<?xml version="1.0" encoding="UTF-8" standalone="no" ?>
<gpx xmlns="http://www.topografix.com/GPX/1/1" xmlns:xsi="http://www.w3.org/2001/XMLSchema-instance" xsi:schemaLocation="http://www.topografix.com/GPX/1/1 http://www.topografix.com/GPX/1/1/gpx.xsd" version="1.1" creator="VisuGPX - https://www.visugpx.com">
  <metadata>
    <name>Tournon</name>
    <desc><![CDATA[Plaine de St Jean]]></desc>
  </metadata>
  <trk>
    <name><![CDATA[Tournon Plaine de St Jean]]></name>
    <cmt><![CDATA[Patrick, Gilles, Gilbert ,Aimé, Brigitte, Martine]]></cmt>
    <trkseg>
      <trkpt lat="45.11564" lon="4.96434">
        <ele>202.00100708008</ele>
        <time>2010-11-17T12:10:08Z</time>
      </trkpt>
      <trkpt lat="45.11558" lon="4.96452">
        <ele>201.15899658203</ele>
        <time>2010-11-17T12:10:25Z</time>
      </trkpt>
      <trkpt lat="45.11562" lon="4.96462">
        <ele>200.83500671387</ele>
        <time>2010-11-17T12:10:27Z</time>
      </trkpt>
      <trkpt lat="45.11572" lon="4.96469">
        <ele>201.16900634766</ele>
        <time>2010-11-17T12:10:32Z</time>
      </trkpt>
      <trkpt lat="45.11573" lon="4.96468">
        <ele>201.35400390625</ele>
        <time>2010-11-17T12:10:34Z</time>
      </trkpt>
      <trkpt lat="45.11576" lon="4.96471">
        <ele>201.85299682617</ele>
        <time>2010-11-17T12:10:39Z</time>
      </trkpt>
      <trkpt lat="45.1158" lon="4.96486">
        <ele>201.63200378418</ele>
        <time>2010-11-17T12:10:44Z</time>
      </trkpt>
      <trkpt lat="45.11579" lon="4.9651">
        <ele>201.00700378418</ele>
        <time>2010-11-17T12:10:49Z</time>
      </trkpt>
      <trkpt lat="45.1158" lon="4.96527">
        <ele>200.71699523926</ele>
        <time>2010-11-17T12:10:52Z</time>
      </trkpt>
      <trkpt lat="45.11583" lon="4.96539">
        <ele>200.65400695801</ele>
        <time>2010-11-17T12:10:54Z</time>
      </trkpt>
      <trkpt lat="45.11599" lon="4.96587">
        <ele>200.52600097656</ele>
        <time>2010-11-17T12:11:01Z</time>
      </trkpt>
      <trkpt lat="45.11619" lon="4.96636">
        <ele>200.70899963379</ele>
        <time>2010-11-17T12:11:08Z</time>
      </trkpt>
      <trkpt lat="45.11633" lon="4.96672">
        <ele>200.76300048828</ele>
        <time>2010-11-17T12:11:13Z</time>
      </trkpt>
      <trkpt lat="45.11658" lon="4.96735">
        <ele>201.72500610352</ele>
        <time>2010-11-17T12:11:22Z</time>
      </trkpt>
      <trkpt lat="45.11684" lon="4.96786">
        <ele>202.56900024414</ele>
        <time>2010-11-17T12:11:30Z</time>
      </trkpt>
      <trkpt lat="45.11717" lon="4.9684">
        <ele>203.35099792481</ele>
        <time>2010-11-17T12:11:39Z</time>
      </trkpt>
      <trkpt lat="45.11724" lon="4.96852">
        <ele>203.40299987793</ele>
        <time>2010-11-17T12:11:41Z</time>
      </trkpt>
      <trkpt lat="45.11732" lon="4.96874">
        <ele>203.65600585938</ele>
        <time>2010-11-17T12:11:44Z</time>
      </trkpt>
      <trkpt lat="45.11746" lon="4.969">
        <ele>203.43200683594</ele>
        <time>2010-11-17T12:11:48Z</time>
      </trkpt>
      <trkpt lat="45.11765" lon="4.96918">
        <ele>203.61599731445</ele>
        <time>2010-11-17T12:11:52Z</time>
      </trkpt>
      <trkpt lat="45.11805" lon="4.9698">
        <ele>204.28900146484</ele>
        <time>2010-11-17T12:12:02Z</time>
      </trkpt>
      <trkpt lat="45.11835" lon="4.9702">
        <ele>204.68099975586</ele>
        <time>2010-11-17T12:12:09Z</time>
      </trkpt>
      <trkpt lat="45.11839" lon="4.97025">
        <ele>204.69400024414</ele>
        <time>2010-11-17T12:12:10Z</time>
      </trkpt>
      <trkpt lat="45.1187" lon="4.97063">
        <ele>205.10600280762</ele>
        <time>2010-11-17T12:12:17Z</time>
      </trkpt>
      <trkpt lat="45.11879" lon="4.97093">
        <ele>205.03199768066</ele>
        <time>2010-11-17T12:12:21Z</time>
      </trkpt>
      <trkpt lat="45.11877" lon="4.9712">
        <ele>204.45199584961</ele>
        <time>2010-11-17T12:12:24Z</time>
      </trkpt>
      <trkpt lat="45.11874" lon="4.97139">
        <ele>204.23300170898</ele>
        <time>2010-11-17T12:12:26Z</time>
      </trkpt>
      <trkpt lat="45.11874" lon="4.97181">
        <ele>203.41000366211</ele>
        <time>2010-11-17T12:12:30Z</time>
      </trkpt>
      <trkpt lat="45.11895" lon="4.97304">
        <ele>202.42399597168</ele>
        <time>2010-11-17T12:12:41Z</time>
      </trkpt>
      <trkpt lat="45.1191" lon="4.97386">
        <ele>202.33500671387</ele>
        <time>2010-11-17T12:12:48Z</time>
      </trkpt>
      <trkpt lat="45.1192" lon="4.97446">
        <ele>202.43899536133</ele>
        <time>2010-11-17T12:12:53Z</time>
      </trkpt>
      <trkpt lat="45.11938" lon="4.9755">
        <ele>203.5359954834</ele>
        <time>2010-11-17T12:13:01Z</time>
      </trkpt>
      <trkpt lat="45.11944" lon="4.97584">
        <ele>204.56799316406</ele>
        <time>2010-11-17T12:13:04Z</time>
      </trkpt>
      <trkpt lat="45.11946" lon="4.97604">
        <ele>205.1130065918</ele>
        <time>2010-11-17T12:13:06Z</time>
      </trkpt>
      <trkpt lat="45.11958" lon="4.97661">
        <ele>205.40899658203</ele>
        <time>2010-11-17T12:13:12Z</time>
      </trkpt>
      <trkpt lat="45.11967" lon="4.9772">
        <ele>204.91000366211</ele>
        <time>2010-11-17T12:13:17Z</time>
      </trkpt>
      <trkpt lat="45.11984" lon="4.97812">
        <ele>205.34300231934</ele>
        <time>2010-11-17T12:13:24Z</time>
      </trkpt>
      <trkpt lat="45.11995" lon="4.97879">
        <ele>206.19200134277</ele>
        <time>2010-11-17T12:13:30Z</time>
      </trkpt>
      <trkpt lat="45.12008" lon="4.97944">
        <ele>206.85099792481</ele>
        <time>2010-11-17T12:13:37Z</time>
      </trkpt>
      <trkpt lat="45.1203" lon="4.98025">
        <ele>207.60899353027</ele>
        <time>2010-11-17T12:13:46Z</time>
      </trkpt>
      <trkpt lat="45.12048" lon="4.98092">
        <ele>208.10699462891</ele>
        <time>2010-11-17T12:13:54Z</time>
      </trkpt>
      <trkpt lat="45.12058" lon="4.98144">
        <ele>208.9049987793</ele>
        <time>2010-11-17T12:14:01Z</time>
      </trkpt>
      <trkpt lat="45.12063" lon="4.98183">
        <ele>209.1130065918</ele>
        <time>2010-11-17T12:14:06Z</time>
      </trkpt>
      <trkpt lat="45.12062" lon="4.98264">
        <ele>209.59399414062</ele>
        <time>2010-11-17T12:14:16Z</time>
      </trkpt>
      <trkpt lat="45.12054" lon="4.98323">
        <ele>209.88000488281</ele>
        <time>2010-11-17T12:14:23Z</time>
      </trkpt>
      <trkpt lat="45.12045" lon="4.98367">
        <ele>210.85699462891</ele>
        <time>2010-11-17T12:14:29Z</time>
      </trkpt>
      <trkpt lat="45.1204" lon="4.98386">
        <ele>211.22300720215</ele>
        <time>2010-11-17T12:14:32Z</time>
      </trkpt>
      <trkpt lat="45.12027" lon="4.98417">
        <ele>211.33999633789</ele>
        <time>2010-11-17T12:14:37Z</time>
      </trkpt>
      <trkpt lat="45.12026" lon="4.98424">
        <ele>211.30400085449</ele>
        <time>2010-11-17T12:14:38Z</time>
      </trkpt>
      <trkpt lat="45.12025" lon="4.98432">
        <ele>211.32899475098</ele>
        <time>2010-11-17T12:14:39Z</time>
      </trkpt>
      <trkpt lat="45.12015" lon="4.98506">
        <ele>211.0119934082</ele>
        <time>2010-11-17T12:14:48Z</time>
      </trkpt>
      <trkpt lat="45.12012" lon="4.98577">
        <ele>211.04400634766</ele>
        <time>2010-11-17T12:14:56Z</time>
      </trkpt>
      <trkpt lat="45.12013" lon="4.98586">
        <ele>211.125</ele>
        <time>2010-11-17T12:14:57Z</time>
      </trkpt>
      <trkpt lat="45.12003" lon="4.98613">
        <ele>211.16299438477</ele>
        <time>2010-11-17T12:15:01Z</time>
      </trkpt>
      <trkpt lat="45.11997" lon="4.98616">
        <ele>210.94799804688</ele>
        <time>2010-11-17T12:15:02Z</time>
      </trkpt>
      <trkpt lat="45.1197" lon="4.98625">
        <ele>209.19200134277</ele>
        <time>2010-11-17T12:15:06Z</time>
      </trkpt>
      <trkpt lat="45.11963" lon="4.98627">
        <ele>209.19599914551</ele>
        <time>2010-11-17T12:15:07Z</time>
      </trkpt>
      <trkpt lat="45.11937" lon="4.9864">
        <ele>209.31399536133</ele>
        <time>2010-11-17T12:15:12Z</time>
      </trkpt>
      <trkpt lat="45.11931" lon="4.98643">
        <ele>209.33999633789</ele>
        <time>2010-11-17T12:15:15Z</time>
      </trkpt>
      <trkpt lat="45.11922" lon="4.98649">
        <ele>208.90800476074</ele>
        <time>2010-11-17T12:15:21Z</time>
      </trkpt>
      <trkpt lat="45.11914" lon="4.98653">
        <ele>208.70300292969</ele>
        <time>2010-11-17T12:15:27Z</time>
      </trkpt>
      <trkpt lat="45.1191" lon="4.98662">
        <ele>208.79899597168</ele>
        <time>2010-11-17T12:15:31Z</time>
      </trkpt>
      <trkpt lat="45.11915" lon="4.98667">
        <ele>208.58399963379</ele>
        <time>2010-11-17T12:15:34Z</time>
      </trkpt>
      <trkpt lat="45.11918" lon="4.98659">
        <ele>208.36500549316</ele>
        <time>2010-11-17T12:15:37Z</time>
      </trkpt>
      <trkpt lat="45.11922" lon="4.98648">
        <ele>208.46899414062</ele>
        <time>2010-11-17T12:15:42Z</time>
      </trkpt>
      <trkpt lat="45.11933" lon="4.98645">
        <ele>208.69400024414</ele>
        <time>2010-11-17T12:15:46Z</time>
      </trkpt>
      <trkpt lat="45.11957" lon="4.98633">
        <ele>209.31700134277</ele>
        <time>2010-11-17T12:15:54Z</time>
      </trkpt>
      <trkpt lat="45.11974" lon="4.98626">
        <ele>209.19999694824</ele>
        <time>2010-11-17T12:15:59Z</time>
      </trkpt>
      <trkpt lat="45.12001" lon="4.98616">
        <ele>209.89900207519</ele>
        <time>2010-11-17T12:16:06Z</time>
      </trkpt>
      <trkpt lat="45.12005" lon="4.98615">
        <ele>210.26699829102</ele>
        <time>2010-11-17T12:16:07Z</time>
      </trkpt>
      <trkpt lat="45.12016" lon="4.98629">
        <ele>210.85000610352</ele>
        <time>2010-11-17T12:16:11Z</time>
      </trkpt>
      <trkpt lat="45.12024" lon="4.98692">
        <ele>210.67700195312</ele>
        <time>2010-11-17T12:16:20Z</time>
      </trkpt>
      <trkpt lat="45.12038" lon="4.9876">
        <ele>210.34599304199</ele>
        <time>2010-11-17T12:16:29Z</time>
      </trkpt>
      <trkpt lat="45.12059" lon="4.98826">
        <ele>210.85000610352</ele>
        <time>2010-11-17T12:16:38Z</time>
      </trkpt>
      <trkpt lat="45.12082" lon="4.98882">
        <ele>210.92799377441</ele>
        <time>2010-11-17T12:16:46Z</time>
      </trkpt>
      <trkpt lat="45.12106" lon="4.98928">
        <ele>211.19599914551</ele>
        <time>2010-11-17T12:16:53Z</time>
      </trkpt>
      <trkpt lat="45.12136" lon="4.98977">
        <ele>212.60000610352</ele>
        <time>2010-11-17T12:17:01Z</time>
      </trkpt>
      <trkpt lat="45.12168" lon="4.99016">
        <ele>214.2440032959</ele>
        <time>2010-11-17T12:17:09Z</time>
      </trkpt>
      <trkpt lat="45.12203" lon="4.99054">
        <ele>216.30700683594</ele>
        <time>2010-11-17T12:17:18Z</time>
      </trkpt>
      <trkpt lat="45.12216" lon="4.99075">
        <ele>216.93899536133</ele>
        <time>2010-11-17T12:17:22Z</time>
      </trkpt>
      <trkpt lat="45.12232" lon="4.9908">
        <ele>217.71899414062</ele>
        <time>2010-11-17T12:17:26Z</time>
      </trkpt>
      <trkpt lat="45.12237" lon="4.99066">
        <ele>218.8450012207</ele>
        <time>2010-11-17T12:17:29Z</time>
      </trkpt>
      <trkpt lat="45.12237" lon="4.9906">
        <ele>218.94999694824</ele>
        <time>2010-11-17T12:17:30Z</time>
      </trkpt>
      <trkpt lat="45.12238" lon="4.99027">
        <ele>218.53700256348</ele>
        <time>2010-11-17T12:17:35Z</time>
      </trkpt>
      <trkpt lat="45.12248" lon="4.98969">
        <ele>219.61199951172</ele>
        <time>2010-11-17T12:17:44Z</time>
      </trkpt>
      <trkpt lat="45.12247" lon="4.98916">
        <ele>219.05999755859</ele>
        <time>2010-11-17T12:17:52Z</time>
      </trkpt>
      <trkpt lat="45.12246" lon="4.98896">
        <ele>218.37100219727</ele>
        <time>2010-11-17T12:17:55Z</time>
      </trkpt>
      <trkpt lat="45.12238" lon="4.98882">
        <ele>218.07400512695</ele>
        <time>2010-11-17T12:17:58Z</time>
      </trkpt>
      <trkpt lat="45.12225" lon="4.98884">
        <ele>218.03199768066</ele>
        <time>2010-11-17T12:18:01Z</time>
      </trkpt>
      <trkpt lat="45.12192" lon="4.9889">
        <ele>214.31599426269</ele>
        <time>2010-11-17T12:18:06Z</time>
      </trkpt>
      <trkpt lat="45.12148" lon="4.98893">
        <ele>210.60400390625</ele>
        <time>2010-11-17T12:18:11Z</time>
      </trkpt>
      <trkpt lat="45.12128" lon="4.98893">
        <ele>209.92799377441</ele>
        <time>2010-11-17T12:18:13Z</time>
      </trkpt>
      <trkpt lat="45.12119" lon="4.98895">
        <ele>209.88900756836</ele>
        <time>2010-11-17T12:18:14Z</time>
      </trkpt>
      <trkpt lat="45.12093" lon="4.98889">
        <ele>210.23899841309</ele>
        <time>2010-11-17T12:18:18Z</time>
      </trkpt>
      <trkpt lat="45.12085" lon="4.98874">
        <ele>210.36099243164</ele>
        <time>2010-11-17T12:18:20Z</time>
      </trkpt>
      <trkpt lat="45.12066" lon="4.98829">
        <ele>210.16799926758</ele>
        <time>2010-11-17T12:18:26Z</time>
      </trkpt>
      <trkpt lat="45.12053" lon="4.98792">
        <ele>209.52900695801</ele>
        <time>2010-11-17T12:18:31Z</time>
      </trkpt>
      <trkpt lat="45.12035" lon="4.98719">
        <ele>208.95300292969</ele>
        <time>2010-11-17T12:18:41Z</time>
      </trkpt>
      <trkpt lat="45.12024" lon="4.98651">
        <ele>209.05299377441</ele>
        <time>2010-11-17T12:18:50Z</time>
      </trkpt>
      <trkpt lat="45.12019" lon="4.98579">
        <ele>208.75399780273</ele>
        <time>2010-11-17T12:18:59Z</time>
      </trkpt>
      <trkpt lat="45.12019" lon="4.98538">
        <ele>208.93600463867</ele>
        <time>2010-11-17T12:19:04Z</time>
      </trkpt>
      <trkpt lat="45.12027" lon="4.98472">
        <ele>209.10299682617</ele>
        <time>2010-11-17T12:19:12Z</time>
      </trkpt>
      <trkpt lat="45.12034" lon="4.98449">
        <ele>208.97399902344</ele>
        <time>2010-11-17T12:19:15Z</time>
      </trkpt>
      <trkpt lat="45.12045" lon="4.9843">
        <ele>208.94500732422</ele>
        <time>2010-11-17T12:19:18Z</time>
      </trkpt>
      <trkpt lat="45.12052" lon="4.98402">
        <ele>209.10699462891</ele>
        <time>2010-11-17T12:19:22Z</time>
      </trkpt>
      <trkpt lat="45.12045" lon="4.98393">
        <ele>209.07200622559</ele>
        <time>2010-11-17T12:19:24Z</time>
      </trkpt>
      <trkpt lat="45.1203" lon="4.98398">
        <ele>209.00199890137</ele>
        <time>2010-11-17T12:19:27Z</time>
      </trkpt>
      <trkpt lat="45.12016" lon="4.98397">
        <ele>208.34599304199</ele>
        <time>2010-11-17T12:19:30Z</time>
      </trkpt>
      <trkpt lat="45.11993" lon="4.98392">
        <ele>207.32200622559</ele>
        <time>2010-11-17T12:19:34Z</time>
      </trkpt>
      <trkpt lat="45.11977" lon="4.98394">
        <ele>207.19400024414</ele>
        <time>2010-11-17T12:19:37Z</time>
      </trkpt>
      <trkpt lat="45.11962" lon="4.98401">
        <ele>207.21299743652</ele>
        <time>2010-11-17T12:19:40Z</time>
      </trkpt>
      <trkpt lat="45.1195" lon="4.98401">
        <ele>207.15699768066</ele>
        <time>2010-11-17T12:19:43Z</time>
      </trkpt>
      <trkpt lat="45.11949" lon="4.98411">
        <ele>207.8390045166</ele>
        <time>2010-11-17T12:19:46Z</time>
      </trkpt>
      <trkpt lat="45.11949" lon="4.98412">
        <ele>207.96000671387</ele>
        <time>2010-11-17T12:19:48Z</time>
      </trkpt>
      <trkpt lat="45.11963" lon="4.98419">
        <ele>207.12899780273</ele>
        <time>2010-11-17T12:21:44Z</time>
      </trkpt>
      <trkpt lat="45.11965" lon="4.98422">
        <ele>206.96699523926</ele>
        <time>2010-11-17T12:21:46Z</time>
      </trkpt>
      <trkpt lat="45.11963" lon="4.98428">
        <ele>206.99499511719</ele>
        <time>2010-11-17T12:21:51Z</time>
      </trkpt>
      <trkpt lat="45.11956" lon="4.98427">
        <ele>207.03100585938</ele>
        <time>2010-11-17T12:21:57Z</time>
      </trkpt>
      <trkpt lat="45.11956" lon="4.98424">
        <ele>207.10299682617</ele>
        <time>2010-11-17T12:22:01Z</time>
      </trkpt>
      <trkpt lat="45.11959" lon="4.98413">
        <ele>203.1369934082</ele>
        <time>2010-11-17T12:36:40Z</time>
      </trkpt>
      <trkpt lat="45.1197" lon="4.98404">
        <ele>202.77600097656</ele>
        <time>2010-11-17T12:36:46Z</time>
      </trkpt>
      <trkpt lat="45.11982" lon="4.98394">
        <ele>202.80200195312</ele>
        <time>2010-11-17T12:36:51Z</time>
      </trkpt>
      <trkpt lat="45.11996" lon="4.98395">
        <ele>202.75199890137</ele>
        <time>2010-11-17T12:36:55Z</time>
      </trkpt>
      <trkpt lat="45.12023" lon="4.98412">
        <ele>203.84100341797</ele>
        <time>2010-11-17T12:37:03Z</time>
      </trkpt>
      <trkpt lat="45.1203" lon="4.98424">
        <ele>204.39500427246</ele>
        <time>2010-11-17T12:37:06Z</time>
      </trkpt>
      <trkpt lat="45.12044" lon="4.98435">
        <ele>204.36599731445</ele>
        <time>2010-11-17T12:37:10Z</time>
      </trkpt>
      <trkpt lat="45.12054" lon="4.98422">
        <ele>204.3450012207</ele>
        <time>2010-11-17T12:37:13Z</time>
      </trkpt>
      <trkpt lat="45.12054" lon="4.98401">
        <ele>204.37600708008</ele>
        <time>2010-11-17T12:37:16Z</time>
      </trkpt>
      <trkpt lat="45.12053" lon="4.98372">
        <ele>204.02600097656</ele>
        <time>2010-11-17T12:37:20Z</time>
      </trkpt>
      <trkpt lat="45.12065" lon="4.98305">
        <ele>202.39900207519</ele>
        <time>2010-11-17T12:37:28Z</time>
      </trkpt>
      <trkpt lat="45.12072" lon="4.98236">
        <ele>202.07200622559</ele>
        <time>2010-11-17T12:37:36Z</time>
      </trkpt>
      <trkpt lat="45.12069" lon="4.98167">
        <ele>201.54699707031</ele>
        <time>2010-11-17T12:37:44Z</time>
      </trkpt>
      <trkpt lat="45.12058" lon="4.98096">
        <ele>200.92599487305</ele>
        <time>2010-11-17T12:37:52Z</time>
      </trkpt>
      <trkpt lat="45.12038" lon="4.98019">
        <ele>199.65299987793</ele>
        <time>2010-11-17T12:38:01Z</time>
      </trkpt>
      <trkpt lat="45.12014" lon="4.97928">
        <ele>199.26600646973</ele>
        <time>2010-11-17T12:38:12Z</time>
      </trkpt>
      <trkpt lat="45.12012" lon="4.97919">
        <ele>199.30299377441</ele>
        <time>2010-11-17T12:38:13Z</time>
      </trkpt>
      <trkpt lat="45.11998" lon="4.97842">
        <ele>198.68200683594</ele>
        <time>2010-11-17T12:38:22Z</time>
      </trkpt>
      <trkpt lat="45.11997" lon="4.97834">
        <ele>198.68699645996</ele>
        <time>2010-11-17T12:38:23Z</time>
      </trkpt>
      <trkpt lat="45.11985" lon="4.97766">
        <ele>198.11599731445</ele>
        <time>2010-11-17T12:38:32Z</time>
      </trkpt>
      <trkpt lat="45.11971" lon="4.97683">
        <ele>197.77900695801</ele>
        <time>2010-11-17T12:38:42Z</time>
      </trkpt>
      <trkpt lat="45.11962" lon="4.97633">
        <ele>197.63600158691</ele>
        <time>2010-11-17T12:38:49Z</time>
      </trkpt>
      <trkpt lat="45.11959" lon="4.97613">
        <ele>197.73599243164</ele>
        <time>2010-11-17T12:38:52Z</time>
      </trkpt>
      <trkpt lat="45.11954" lon="4.97585">
        <ele>197.59100341797</ele>
        <time>2010-11-17T12:38:56Z</time>
      </trkpt>
      <trkpt lat="45.11942" lon="4.97517">
        <ele>196.52200317383</ele>
        <time>2010-11-17T12:39:05Z</time>
      </trkpt>
      <trkpt lat="45.11931" lon="4.97457">
        <ele>195.97500610352</ele>
        <time>2010-11-17T12:39:13Z</time>
      </trkpt>
      <trkpt lat="45.11924" lon="4.97411">
        <ele>195.48500061035</ele>
        <time>2010-11-17T12:39:19Z</time>
      </trkpt>
      <trkpt lat="45.11927" lon="4.97397">
        <ele>195.46499633789</ele>
        <time>2010-11-17T12:39:22Z</time>
      </trkpt>
      <trkpt lat="45.11926" lon="4.97392">
        <ele>195.42500305176</ele>
        <time>2010-11-17T12:39:24Z</time>
      </trkpt>
      <trkpt lat="45.11922" lon="4.97398">
        <ele>195.33700561523</ele>
        <time>2010-11-17T12:39:26Z</time>
      </trkpt>
      <trkpt lat="45.11925" lon="4.97421">
        <ele>194.80299377441</ele>
        <time>2010-11-17T12:39:29Z</time>
      </trkpt>
      <trkpt lat="45.11927" lon="4.97431">
        <ele>194.63800048828</ele>
        <time>2010-11-17T12:39:30Z</time>
      </trkpt>
      <trkpt lat="45.11935" lon="4.9748">
        <ele>195.17900085449</ele>
        <time>2010-11-17T12:39:35Z</time>
      </trkpt>
      <trkpt lat="45.11935" lon="4.97489">
        <ele>195.92999267578</ele>
        <time>2010-11-17T12:39:37Z</time>
      </trkpt>
      <trkpt lat="45.11937" lon="4.97491">
        <ele>196.50799560547</ele>
        <time>2010-11-17T12:39:40Z</time>
      </trkpt>
      <trkpt lat="45.11936" lon="4.97484">
        <ele>196.30499267578</ele>
        <time>2010-11-17T12:39:44Z</time>
      </trkpt>
      <trkpt lat="45.1193" lon="4.9745">
        <ele>195.67999267578</ele>
        <time>2010-11-17T12:39:51Z</time>
      </trkpt>
      <trkpt lat="45.11922" lon="4.97403">
        <ele>194.97099304199</ele>
        <time>2010-11-17T12:39:57Z</time>
      </trkpt>
      <trkpt lat="45.11912" lon="4.97345">
        <ele>194.58000183106</ele>
        <time>2010-11-17T12:40:03Z</time>
      </trkpt>
      <trkpt lat="45.1189" lon="4.97221">
        <ele>195.0299987793</ele>
        <time>2010-11-17T12:40:15Z</time>
      </trkpt>
      <trkpt lat="45.1188" lon="4.9716">
        <ele>195.39399719238</ele>
        <time>2010-11-17T12:40:21Z</time>
      </trkpt>
      <trkpt lat="45.11881" lon="4.9712">
        <ele>195.94099426269</ele>
        <time>2010-11-17T12:40:25Z</time>
      </trkpt>
      <trkpt lat="45.11891" lon="4.97098">
        <ele>197.20399475098</ele>
        <time>2010-11-17T12:40:28Z</time>
      </trkpt>
      <trkpt lat="45.11902" lon="4.97072">
        <ele>197.99299621582</ele>
        <time>2010-11-17T12:40:32Z</time>
      </trkpt>
      <trkpt lat="45.11894" lon="4.97058">
        <ele>198.00300598144</ele>
        <time>2010-11-17T12:40:34Z</time>
      </trkpt>
      <trkpt lat="45.11874" lon="4.97041">
        <ele>197.45799255371</ele>
        <time>2010-11-17T12:40:37Z</time>
      </trkpt>
      <trkpt lat="45.11867" lon="4.97033">
        <ele>197.02200317383</ele>
        <time>2010-11-17T12:40:38Z</time>
      </trkpt>
      <trkpt lat="45.11812" lon="4.96957">
        <ele>196.03799438477</ele>
        <time>2010-11-17T12:40:46Z</time>
      </trkpt>
      <trkpt lat="45.11769" lon="4.96889">
        <ele>196.44299316406</ele>
        <time>2010-11-17T12:40:53Z</time>
      </trkpt>
      <trkpt lat="45.11762" lon="4.96857">
        <ele>196.93400573731</ele>
        <time>2010-11-17T12:40:56Z</time>
      </trkpt>
      <trkpt lat="45.11763" lon="4.96848">
        <ele>197.08599853516</ele>
        <time>2010-11-17T12:40:57Z</time>
      </trkpt>
      <trkpt lat="45.11755" lon="4.96825">
        <ele>196.35800170898</ele>
        <time>2010-11-17T12:41:00Z</time>
      </trkpt>
      <trkpt lat="45.1175" lon="4.96822">
        <ele>196.38200378418</ele>
        <time>2010-11-17T12:41:01Z</time>
      </trkpt>
      <trkpt lat="45.11737" lon="4.96817">
        <ele>196.69400024414</ele>
        <time>2010-11-17T12:41:03Z</time>
      </trkpt>
      <trkpt lat="45.11715" lon="4.96799">
        <ele>196.11999511719</ele>
        <time>2010-11-17T12:41:07Z</time>
      </trkpt>
      <trkpt lat="45.11685" lon="4.96755">
        <ele>195.42799377441</ele>
        <time>2010-11-17T12:41:14Z</time>
      </trkpt>
      <trkpt lat="45.11657" lon="4.96699">
        <ele>194.80299377441</ele>
        <time>2010-11-17T12:41:21Z</time>
      </trkpt>
      <trkpt lat="45.11634" lon="4.96641">
        <ele>194.62600708008</ele>
        <time>2010-11-17T12:41:28Z</time>
      </trkpt>
      <trkpt lat="45.1161" lon="4.96577">
        <ele>194.00900268555</ele>
        <time>2010-11-17T12:41:36Z</time>
      </trkpt>
      <trkpt lat="45.11584" lon="4.96512">
        <ele>193.37399291992</ele>
        <time>2010-11-17T12:41:44Z</time>
      </trkpt>
      <trkpt lat="45.11556" lon="4.9646">
        <ele>193.83200073242</ele>
        <time>2010-11-17T12:41:51Z</time>
      </trkpt>
      <trkpt lat="45.11526" lon="4.96413">
        <ele>194.57499694824</ele>
        <time>2010-11-17T12:41:58Z</time>
      </trkpt>
      <trkpt lat="45.11485" lon="4.96349">
        <ele>194.65299987793</ele>
        <time>2010-11-17T12:42:08Z</time>
      </trkpt>
      <trkpt lat="45.11447" lon="4.96291">
        <ele>195.68499755859</ele>
        <time>2010-11-17T12:42:18Z</time>
      </trkpt>
      <trkpt lat="45.11418" lon="4.96238">
        <ele>196.15400695801</ele>
        <time>2010-11-17T12:42:26Z</time>
      </trkpt>
      <trkpt lat="45.11388" lon="4.96177">
        <ele>195.84899902344</ele>
        <time>2010-11-17T12:42:35Z</time>
      </trkpt>
      <trkpt lat="45.11353" lon="4.96103">
        <ele>195.31100463867</ele>
        <time>2010-11-17T12:42:45Z</time>
      </trkpt>
      <trkpt lat="45.11312" lon="4.96037">
        <ele>193.83799743652</ele>
        <time>2010-11-17T12:42:54Z</time>
      </trkpt>
      <trkpt lat="45.11277" lon="4.95976">
        <ele>193.44799804688</ele>
        <time>2010-11-17T12:43:02Z</time>
      </trkpt>
      <trkpt lat="45.11248" lon="4.95925">
        <ele>192.55000305176</ele>
        <time>2010-11-17T12:43:08Z</time>
      </trkpt>
      <trkpt lat="45.11202" lon="4.95857">
        <ele>192.06300354004</ele>
        <time>2010-11-17T12:43:17Z</time>
      </trkpt>
      <trkpt lat="45.11164" lon="4.95801">
        <ele>192.15100097656</ele>
        <time>2010-11-17T12:43:25Z</time>
      </trkpt>
      <trkpt lat="45.11134" lon="4.95747">
        <ele>192.19900512695</ele>
        <time>2010-11-17T12:43:33Z</time>
      </trkpt>
      <trkpt lat="45.11105" lon="4.95693">
        <ele>192.22900390625</ele>
        <time>2010-11-17T12:43:41Z</time>
      </trkpt>
      <trkpt lat="45.11068" lon="4.95653">
        <ele>192.80499267578</ele>
        <time>2010-11-17T12:43:49Z</time>
      </trkpt>
      <trkpt lat="45.11028" lon="4.95613">
        <ele>192.94799804688</ele>
        <time>2010-11-17T12:43:57Z</time>
      </trkpt>
      <trkpt lat="45.10996" lon="4.95568">
        <ele>192.17700195312</ele>
        <time>2010-11-17T12:44:04Z</time>
      </trkpt>
      <trkpt lat="45.10972" lon="4.95523">
        <ele>191.36000061035</ele>
        <time>2010-11-17T12:44:10Z</time>
      </trkpt>
      <trkpt lat="45.10951" lon="4.9546">
        <ele>190.57800292969</ele>
        <time>2010-11-17T12:44:17Z</time>
      </trkpt>
      <trkpt lat="45.10931" lon="4.95374">
        <ele>189.36099243164</ele>
        <time>2010-11-17T12:44:26Z</time>
      </trkpt>
      <trkpt lat="45.10912" lon="4.95313">
        <ele>189.69000244141</ele>
        <time>2010-11-17T12:44:33Z</time>
      </trkpt>
      <trkpt lat="45.10889" lon="4.9525">
        <ele>189.89700317383</ele>
        <time>2010-11-17T12:44:41Z</time>
      </trkpt>
      <trkpt lat="45.10868" lon="4.95189">
        <ele>191.47900390625</ele>
        <time>2010-11-17T12:44:50Z</time>
      </trkpt>
      <trkpt lat="45.10855" lon="4.95141">
        <ele>193.72399902344</ele>
        <time>2010-11-17T12:44:58Z</time>
      </trkpt>
      <trkpt lat="45.10848" lon="4.95097">
        <ele>196.27299499512</ele>
        <time>2010-11-17T12:45:06Z</time>
      </trkpt>
      <trkpt lat="45.10847" lon="4.95053">
        <ele>198.40400695801</ele>
        <time>2010-11-17T12:45:14Z</time>
      </trkpt>
      <trkpt lat="45.10849" lon="4.95022">
        <ele>200.29299926758</ele>
        <time>2010-11-17T12:45:20Z</time>
      </trkpt>
      <trkpt lat="45.10851" lon="4.94983">
        <ele>202.59599304199</ele>
        <time>2010-11-17T12:45:28Z</time>
      </trkpt>
      <trkpt lat="45.10853" lon="4.94951">
        <ele>204.02200317383</ele>
        <time>2010-11-17T12:45:34Z</time>
      </trkpt>
      <trkpt lat="45.10856" lon="4.94908">
        <ele>206.11000061035</ele>
        <time>2010-11-17T12:45:42Z</time>
      </trkpt>
      <trkpt lat="45.10857" lon="4.94874">
        <ele>208.16700744629</ele>
        <time>2010-11-17T12:45:49Z</time>
      </trkpt>
      <trkpt lat="45.10863" lon="4.94852">
        <ele>208.77400207519</ele>
        <time>2010-11-17T12:45:54Z</time>
      </trkpt>
      <trkpt lat="45.1087" lon="4.94831">
        <ele>209.67500305176</ele>
        <time>2010-11-17T12:46:00Z</time>
      </trkpt>
      <trkpt lat="45.10873" lon="4.94804">
        <ele>209.96699523926</ele>
        <time>2010-11-17T12:46:06Z</time>
      </trkpt>
      <trkpt lat="45.10879" lon="4.94775">
        <ele>209.99299621582</ele>
        <time>2010-11-17T12:46:12Z</time>
      </trkpt>
      <trkpt lat="45.10895" lon="4.94722">
        <ele>209.84300231934</ele>
        <time>2010-11-17T12:46:22Z</time>
      </trkpt>
      <trkpt lat="45.10912" lon="4.94661">
        <ele>209.90100097656</ele>
        <time>2010-11-17T12:46:32Z</time>
      </trkpt>
      <trkpt lat="45.10925" lon="4.94596">
        <ele>209.47599792481</ele>
        <time>2010-11-17T12:46:41Z</time>
      </trkpt>
      <trkpt lat="45.10927" lon="4.94533">
        <ele>209.26499938965</ele>
        <time>2010-11-17T12:46:49Z</time>
      </trkpt>
      <trkpt lat="45.10923" lon="4.94445">
        <ele>208.9880065918</ele>
        <time>2010-11-17T12:47:00Z</time>
      </trkpt>
      <trkpt lat="45.10918" lon="4.94352">
        <ele>208.91400146484</ele>
        <time>2010-11-17T12:47:12Z</time>
      </trkpt>
      <trkpt lat="45.10916" lon="4.94337">
        <ele>208.97599792481</ele>
        <time>2010-11-17T12:47:14Z</time>
      </trkpt>
      <trkpt lat="45.109" lon="4.94297">
        <ele>208.81500244141</ele>
        <time>2010-11-17T12:47:20Z</time>
      </trkpt>
      <trkpt lat="45.10893" lon="4.94285">
        <ele>208.56700134277</ele>
        <time>2010-11-17T12:47:22Z</time>
      </trkpt>
      <trkpt lat="45.10852" lon="4.94239">
        <ele>207.9049987793</ele>
        <time>2010-11-17T12:47:31Z</time>
      </trkpt>
      <trkpt lat="45.10793" lon="4.94171">
        <ele>207.31399536133</ele>
        <time>2010-11-17T12:47:44Z</time>
      </trkpt>
      <trkpt lat="45.10757" lon="4.94122">
        <ele>208.05599975586</ele>
        <time>2010-11-17T12:47:53Z</time>
      </trkpt>
      <trkpt lat="45.10732" lon="4.94074">
        <ele>209.19000244141</ele>
        <time>2010-11-17T12:48:01Z</time>
      </trkpt>
      <trkpt lat="45.10712" lon="4.94023">
        <ele>209.75900268555</ele>
        <time>2010-11-17T12:48:09Z</time>
      </trkpt>
      <trkpt lat="45.10698" lon="4.93968">
        <ele>210.66900634766</ele>
        <time>2010-11-17T12:48:17Z</time>
      </trkpt>
      <trkpt lat="45.10688" lon="4.93901">
        <ele>211.42300415039</ele>
        <time>2010-11-17T12:48:26Z</time>
      </trkpt>
      <trkpt lat="45.10677" lon="4.93805">
        <ele>211.01600646973</ele>
        <time>2010-11-17T12:48:38Z</time>
      </trkpt>
      <trkpt lat="45.10669" lon="4.93741">
        <ele>209.5</ele>
        <time>2010-11-17T12:48:45Z</time>
      </trkpt>
      <trkpt lat="45.10659" lon="4.93654">
        <ele>205.95300292969</ele>
        <time>2010-11-17T12:48:53Z</time>
      </trkpt>
      <trkpt lat="45.10648" lon="4.93582">
        <ele>202.27499389648</ele>
        <time>2010-11-17T12:48:59Z</time>
      </trkpt>
      <trkpt lat="45.10631" lon="4.93492">
        <ele>197.00999450684</ele>
        <time>2010-11-17T12:49:06Z</time>
      </trkpt>
      <trkpt lat="45.10629" lon="4.93481">
        <ele>196.79200744629</ele>
        <time>2010-11-17T12:49:07Z</time>
      </trkpt>
      <trkpt lat="45.10618" lon="4.93427">
        <ele>195.51899719238</ele>
        <time>2010-11-17T12:49:13Z</time>
      </trkpt>
      <trkpt lat="45.1061" lon="4.93391">
        <ele>194.75700378418</ele>
        <time>2010-11-17T12:49:17Z</time>
      </trkpt>
      <trkpt lat="45.10599" lon="4.93331">
        <ele>193.12399291992</ele>
        <time>2010-11-17T12:49:23Z</time>
      </trkpt>
      <trkpt lat="45.10581" lon="4.93239">
        <ele>191.75799560547</ele>
        <time>2010-11-17T12:49:32Z</time>
      </trkpt>
      <trkpt lat="45.10559" lon="4.93126">
        <ele>190.38800048828</ele>
        <time>2010-11-17T12:49:43Z</time>
      </trkpt>
      <trkpt lat="45.10543" lon="4.93042">
        <ele>190.25900268555</ele>
        <time>2010-11-17T12:49:53Z</time>
      </trkpt>
      <trkpt lat="45.1053" lon="4.92975">
        <ele>190.08700561523</ele>
        <time>2010-11-17T12:50:01Z</time>
      </trkpt>
      <trkpt lat="45.10515" lon="4.92901">
        <ele>189.85699462891</ele>
        <time>2010-11-17T12:50:10Z</time>
      </trkpt>
      <trkpt lat="45.10503" lon="4.92845">
        <ele>189.29499816894</ele>
        <time>2010-11-17T12:50:17Z</time>
      </trkpt>
      <trkpt lat="45.10492" lon="4.92783">
        <ele>189.15199279785</ele>
        <time>2010-11-17T12:50:25Z</time>
      </trkpt>
      <trkpt lat="45.1049" lon="4.92768">
        <ele>189.27200317383</ele>
        <time>2010-11-17T12:50:27Z</time>
      </trkpt>
      <trkpt lat="45.10483" lon="4.9274">
        <ele>189.02499389648</ele>
        <time>2010-11-17T12:50:31Z</time>
      </trkpt>
      <trkpt lat="45.10472" lon="4.92695">
        <ele>188.75999450684</ele>
        <time>2010-11-17T12:50:37Z</time>
      </trkpt>
      <trkpt lat="45.10463" lon="4.92643">
        <ele>189.38900756836</ele>
        <time>2010-11-17T12:50:44Z</time>
      </trkpt>
      <trkpt lat="45.10457" lon="4.92611">
        <ele>189.36999511719</ele>
        <time>2010-11-17T12:50:49Z</time>
      </trkpt>
      <trkpt lat="45.10449" lon="4.92555">
        <ele>188.24499511719</ele>
        <time>2010-11-17T12:50:56Z</time>
      </trkpt>
      <trkpt lat="45.10431" lon="4.9246">
        <ele>187.05200195312</ele>
        <time>2010-11-17T12:51:06Z</time>
      </trkpt>
      <trkpt lat="45.10416" lon="4.92378">
        <ele>185.48300170898</ele>
        <time>2010-11-17T12:51:14Z</time>
      </trkpt>
      <trkpt lat="45.10403" lon="4.923">
        <ele>184.25799560547</ele>
        <time>2010-11-17T12:51:22Z</time>
      </trkpt>
      <trkpt lat="45.10388" lon="4.92213">
        <ele>184.65400695801</ele>
        <time>2010-11-17T12:51:32Z</time>
      </trkpt>
      <trkpt lat="45.10376" lon="4.92145">
        <ele>184.51899719238</ele>
        <time>2010-11-17T12:51:40Z</time>
      </trkpt>
      <trkpt lat="45.10366" lon="4.92086">
        <ele>184.95100402832</ele>
        <time>2010-11-17T12:51:47Z</time>
      </trkpt>
      <trkpt lat="45.10353" lon="4.92014">
        <ele>185.27000427246</ele>
        <time>2010-11-17T12:51:56Z</time>
      </trkpt>
      <trkpt lat="45.10341" lon="4.9195">
        <ele>186.28399658203</ele>
        <time>2010-11-17T12:52:04Z</time>
      </trkpt>
      <trkpt lat="45.10327" lon="4.9187">
        <ele>187.21899414062</ele>
        <time>2010-11-17T12:52:14Z</time>
      </trkpt>
      <trkpt lat="45.10316" lon="4.9181">
        <ele>187.64500427246</ele>
        <time>2010-11-17T12:52:22Z</time>
      </trkpt>
      <trkpt lat="45.10313" lon="4.91789">
        <ele>188.05200195312</ele>
        <time>2010-11-17T12:52:25Z</time>
      </trkpt>
      <trkpt lat="45.10302" lon="4.91768">
        <ele>188.19000244141</ele>
        <time>2010-11-17T12:52:29Z</time>
      </trkpt>
      <trkpt lat="45.10282" lon="4.91761">
        <ele>187.93099975586</ele>
        <time>2010-11-17T12:52:33Z</time>
      </trkpt>
      <trkpt lat="45.10276" lon="4.91761">
        <ele>187.84800720215</ele>
        <time>2010-11-17T12:52:34Z</time>
      </trkpt>
      <trkpt lat="45.1021" lon="4.91771">
        <ele>187.32499694824</ele>
        <time>2010-11-17T12:52:45Z</time>
      </trkpt>
      <trkpt lat="45.10144" lon="4.91781">
        <ele>186.42399597168</ele>
        <time>2010-11-17T12:52:56Z</time>
      </trkpt>
      <trkpt lat="45.10097" lon="4.91789">
        <ele>186.55900573731</ele>
        <time>2010-11-17T12:53:04Z</time>
      </trkpt>
      <trkpt lat="45.10046" lon="4.91798">
        <ele>186.61700439453</ele>
        <time>2010-11-17T12:53:13Z</time>
      </trkpt>
      <trkpt lat="45.10002" lon="4.91806">
        <ele>186.64999389648</ele>
        <time>2010-11-17T12:53:21Z</time>
      </trkpt>
      <trkpt lat="45.09957" lon="4.91815">
        <ele>187.42399597168</ele>
        <time>2010-11-17T12:53:29Z</time>
      </trkpt>
      <trkpt lat="45.09893" lon="4.91828">
        <ele>188.24600219727</ele>
        <time>2010-11-17T12:53:40Z</time>
      </trkpt>
      <trkpt lat="45.09836" lon="4.9184">
        <ele>187.89999389648</ele>
        <time>2010-11-17T12:53:50Z</time>
      </trkpt>
      <trkpt lat="45.09787" lon="4.91849">
        <ele>188.61099243164</ele>
        <time>2010-11-17T12:53:59Z</time>
      </trkpt>
      <trkpt lat="45.09735" lon="4.91858">
        <ele>189.66200256348</ele>
        <time>2010-11-17T12:54:09Z</time>
      </trkpt>
      <trkpt lat="45.09689" lon="4.91867">
        <ele>190.84800720215</ele>
        <time>2010-11-17T12:54:18Z</time>
      </trkpt>
      <trkpt lat="45.09635" lon="4.91876">
        <ele>192.10800170898</ele>
        <time>2010-11-17T12:54:29Z</time>
      </trkpt>
      <trkpt lat="45.09581" lon="4.91885">
        <ele>193.58000183106</ele>
        <time>2010-11-17T12:54:40Z</time>
      </trkpt>
      <trkpt lat="45.09523" lon="4.91893">
        <ele>195.02499389648</ele>
        <time>2010-11-17T12:54:52Z</time>
      </trkpt>
      <trkpt lat="45.09484" lon="4.91891">
        <ele>195.13499450684</ele>
        <time>2010-11-17T12:55:00Z</time>
      </trkpt>
      <trkpt lat="45.09447" lon="4.9188">
        <ele>196.58700561523</ele>
        <time>2010-11-17T12:55:08Z</time>
      </trkpt>
      <trkpt lat="45.09417" lon="4.91868">
        <ele>198.71200561523</ele>
        <time>2010-11-17T12:55:16Z</time>
      </trkpt>
      <trkpt lat="45.09391" lon="4.91859">
        <ele>199.67700195312</ele>
        <time>2010-11-17T12:55:23Z</time>
      </trkpt>
      <trkpt lat="45.09366" lon="4.91851">
        <ele>201.24699401856</ele>
        <time>2010-11-17T12:55:29Z</time>
      </trkpt>
      <trkpt lat="45.09338" lon="4.9184">
        <ele>203.12699890137</ele>
        <time>2010-11-17T12:55:37Z</time>
      </trkpt>
      <trkpt lat="45.09334" lon="4.91838">
        <ele>203.30999755859</ele>
        <time>2010-11-17T12:55:38Z</time>
      </trkpt>
      <trkpt lat="45.09305" lon="4.91828">
        <ele>204.46200561523</ele>
        <time>2010-11-17T12:55:45Z</time>
      </trkpt>
      <trkpt lat="45.09263" lon="4.91812">
        <ele>205.9109954834</ele>
        <time>2010-11-17T12:55:53Z</time>
      </trkpt>
      <trkpt lat="45.09225" lon="4.91806">
        <ele>208.59300231934</ele>
        <time>2010-11-17T12:56:00Z</time>
      </trkpt>
      <trkpt lat="45.09186" lon="4.91816">
        <ele>211.04899597168</ele>
        <time>2010-11-17T12:56:07Z</time>
      </trkpt>
      <trkpt lat="45.09164" lon="4.91824">
        <ele>212.82099914551</ele>
        <time>2010-11-17T12:56:11Z</time>
      </trkpt>
      <trkpt lat="45.09109" lon="4.91844">
        <ele>216.08099365234</ele>
        <time>2010-11-17T12:56:21Z</time>
      </trkpt>
      <trkpt lat="45.09058" lon="4.91863">
        <ele>219.63000488281</ele>
        <time>2010-11-17T12:56:31Z</time>
      </trkpt>
      <trkpt lat="45.09011" lon="4.91875">
        <ele>222.06100463867</ele>
        <time>2010-11-17T12:56:40Z</time>
      </trkpt>
      <trkpt lat="45.08952" lon="4.91888">
        <ele>224.00199890137</ele>
        <time>2010-11-17T12:56:51Z</time>
      </trkpt>
      <trkpt lat="45.08895" lon="4.919">
        <ele>225.75300598144</ele>
        <time>2010-11-17T12:57:02Z</time>
      </trkpt>
      <trkpt lat="45.08839" lon="4.91907">
        <ele>227.45700073242</ele>
        <time>2010-11-17T12:57:13Z</time>
      </trkpt>
      <trkpt lat="45.08779" lon="4.91912">
        <ele>229.98100280762</ele>
        <time>2010-11-17T12:57:25Z</time>
      </trkpt>
      <trkpt lat="45.08722" lon="4.91916">
        <ele>231.46200561523</ele>
        <time>2010-11-17T12:57:36Z</time>
      </trkpt>
      <trkpt lat="45.08671" lon="4.9192">
        <ele>233.44999694824</ele>
        <time>2010-11-17T12:57:45Z</time>
      </trkpt>
      <trkpt lat="45.08626" lon="4.91923">
        <ele>235.27299499512</ele>
        <time>2010-11-17T12:57:53Z</time>
      </trkpt>
      <trkpt lat="45.08596" lon="4.91918">
        <ele>237.52600097656</ele>
        <time>2010-11-17T12:57:59Z</time>
      </trkpt>
      <trkpt lat="45.08562" lon="4.91917">
        <ele>241.56199645996</ele>
        <time>2010-11-17T12:58:06Z</time>
      </trkpt>
      <trkpt lat="45.08554" lon="4.91918">
        <ele>242.43400573731</ele>
        <time>2010-11-17T12:58:08Z</time>
      </trkpt>
      <trkpt lat="45.08542" lon="4.91919">
        <ele>244.59100341797</ele>
        <time>2010-11-17T12:58:12Z</time>
      </trkpt>
      <trkpt lat="45.08529" lon="4.91921">
        <ele>246.13999938965</ele>
        <time>2010-11-17T12:58:16Z</time>
      </trkpt>
      <trkpt lat="45.08508" lon="4.91921">
        <ele>248.38999938965</ele>
        <time>2010-11-17T12:58:22Z</time>
      </trkpt>
      <trkpt lat="45.08484" lon="4.91918">
        <ele>251.35800170898</ele>
        <time>2010-11-17T12:58:29Z</time>
      </trkpt>
      <trkpt lat="45.08461" lon="4.91913">
        <ele>253.35200500488</ele>
        <time>2010-11-17T12:58:36Z</time>
      </trkpt>
      <trkpt lat="45.08451" lon="4.91909">
        <ele>254.38299560547</ele>
        <time>2010-11-17T12:58:39Z</time>
      </trkpt>
      <trkpt lat="45.08448" lon="4.91909">
        <ele>254.50700378418</ele>
        <time>2010-11-17T12:58:40Z</time>
      </trkpt>
      <trkpt lat="45.08426" lon="4.91916">
        <ele>253.25399780273</ele>
        <time>2010-11-17T12:58:45Z</time>
      </trkpt>
      <trkpt lat="45.08408" lon="4.91924">
        <ele>252.19099426269</ele>
        <time>2010-11-17T12:58:48Z</time>
      </trkpt>
      <trkpt lat="45.08364" lon="4.91946">
        <ele>250.35299682617</ele>
        <time>2010-11-17T12:58:55Z</time>
      </trkpt>
      <trkpt lat="45.08359" lon="4.91949">
        <ele>250.3869934082</ele>
        <time>2010-11-17T12:58:56Z</time>
      </trkpt>
      <trkpt lat="45.08348" lon="4.91953">
        <ele>251.12100219727</ele>
        <time>2010-11-17T12:58:58Z</time>
      </trkpt>
      <trkpt lat="45.08331" lon="4.91956">
        <ele>252.33200073242</ele>
        <time>2010-11-17T12:59:02Z</time>
      </trkpt>
      <trkpt lat="45.08314" lon="4.91955">
        <ele>252.79899597168</ele>
        <time>2010-11-17T12:59:06Z</time>
      </trkpt>
      <trkpt lat="45.0831" lon="4.91954">
        <ele>252.90199279785</ele>
        <time>2010-11-17T12:59:07Z</time>
      </trkpt>
      <trkpt lat="45.08301" lon="4.91953">
        <ele>252.89500427246</ele>
        <time>2010-11-17T12:59:09Z</time>
      </trkpt>
      <trkpt lat="45.08297" lon="4.91952">
        <ele>252.8630065918</ele>
        <time>2010-11-17T12:59:10Z</time>
      </trkpt>
      <trkpt lat="45.0828" lon="4.91945">
        <ele>252.55599975586</ele>
        <time>2010-11-17T12:59:14Z</time>
      </trkpt>
      <trkpt lat="45.08266" lon="4.91938">
        <ele>252.15800476074</ele>
        <time>2010-11-17T12:59:17Z</time>
      </trkpt>
      <trkpt lat="45.08261" lon="4.91936">
        <ele>252.1369934082</ele>
        <time>2010-11-17T12:59:18Z</time>
      </trkpt>
      <trkpt lat="45.0824" lon="4.91928">
        <ele>250.94799804688</ele>
        <time>2010-11-17T12:59:22Z</time>
      </trkpt>
      <trkpt lat="45.08234" lon="4.91925">
        <ele>250.625</ele>
        <time>2010-11-17T12:59:23Z</time>
      </trkpt>
      <trkpt lat="45.08194" lon="4.9191">
        <ele>247.19099426269</ele>
        <time>2010-11-17T12:59:29Z</time>
      </trkpt>
      <trkpt lat="45.08175" lon="4.91906">
        <ele>245.80499267578</ele>
        <time>2010-11-17T12:59:32Z</time>
      </trkpt>
      <trkpt lat="45.08163" lon="4.91901">
        <ele>244.74699401856</ele>
        <time>2010-11-17T12:59:36Z</time>
      </trkpt>
      <trkpt lat="45.08162" lon="4.91899">
        <ele>244.59300231934</ele>
        <time>2010-11-17T12:59:37Z</time>
      </trkpt>
      <trkpt lat="45.08162" lon="4.91906">
        <ele>244.45199584961</ele>
        <time>2010-11-17T12:59:41Z</time>
      </trkpt>
      <trkpt lat="45.08167" lon="4.91907">
        <ele>244.56599426269</ele>
        <time>2010-11-17T12:59:43Z</time>
      </trkpt>
      <trkpt lat="45.08188" lon="4.9191">
        <ele>246.16499328613</ele>
        <time>2010-11-17T12:59:49Z</time>
      </trkpt>
      <trkpt lat="45.0821" lon="4.91917">
        <ele>248.6309967041</ele>
        <time>2010-11-17T12:59:55Z</time>
      </trkpt>
      <trkpt lat="45.0824" lon="4.91928">
        <ele>250.43899536133</ele>
        <time>2010-11-17T13:00:02Z</time>
      </trkpt>
      <trkpt lat="45.08272" lon="4.91941">
        <ele>252.21800231934</ele>
        <time>2010-11-17T13:00:08Z</time>
      </trkpt>
      <trkpt lat="45.08303" lon="4.91955">
        <ele>253.18499755859</ele>
        <time>2010-11-17T13:00:14Z</time>
      </trkpt>
      <trkpt lat="45.08314" lon="4.91957">
        <ele>253.07200622559</ele>
        <time>2010-11-17T13:00:16Z</time>
      </trkpt>
      <trkpt lat="45.08339" lon="4.91957">
        <ele>252.73100280762</ele>
        <time>2010-11-17T13:00:20Z</time>
      </trkpt>
      <trkpt lat="45.08369" lon="4.91948">
        <ele>251.04800415039</ele>
        <time>2010-11-17T13:00:25Z</time>
      </trkpt>
      <trkpt lat="45.08377" lon="4.91955">
        <ele>250.80200195312</ele>
        <time>2010-11-17T13:00:27Z</time>
      </trkpt>
      <trkpt lat="45.08373" lon="4.91972">
        <ele>249.53100585938</ele>
        <time>2010-11-17T13:00:29Z</time>
      </trkpt>
      <trkpt lat="45.08364" lon="4.91988">
        <ele>247.48699951172</ele>
        <time>2010-11-17T13:00:31Z</time>
      </trkpt>
      <trkpt lat="45.08331" lon="4.92029">
        <ele>241.48500061035</ele>
        <time>2010-11-17T13:00:37Z</time>
      </trkpt>
      <trkpt lat="45.08324" lon="4.92036">
        <ele>239.58999633789</ele>
        <time>2010-11-17T13:00:40Z</time>
      </trkpt>
      <trkpt lat="45.08304" lon="4.92041">
        <ele>238.39100646973</ele>
        <time>2010-11-17T13:00:45Z</time>
      </trkpt>
      <trkpt lat="45.08287" lon="4.92036">
        <ele>238.45199584961</ele>
        <time>2010-11-17T13:00:48Z</time>
      </trkpt>
      <trkpt lat="45.08256" lon="4.92035">
        <ele>239.13800048828</ele>
        <time>2010-11-17T13:00:53Z</time>
      </trkpt>
      <trkpt lat="45.08244" lon="4.92033">
        <ele>239.86999511719</ele>
        <time>2010-11-17T13:00:55Z</time>
      </trkpt>
      <trkpt lat="45.08231" lon="4.92029">
        <ele>240.32699584961</ele>
        <time>2010-11-17T13:00:57Z</time>
      </trkpt>
      <trkpt lat="45.08214" lon="4.92014">
        <ele>241.33700561523</ele>
        <time>2010-11-17T13:01:00Z</time>
      </trkpt>
      <trkpt lat="45.08186" lon="4.91963">
        <ele>243.41299438477</ele>
        <time>2010-11-17T13:01:07Z</time>
      </trkpt>
      <trkpt lat="45.08181" lon="4.9195">
        <ele>244.00500488281</ele>
        <time>2010-11-17T13:01:09Z</time>
      </trkpt>
      <trkpt lat="45.08178" lon="4.91943">
        <ele>244.13400268555</ele>
        <time>2010-11-17T13:01:10Z</time>
      </trkpt>
      <trkpt lat="45.08168" lon="4.91917">
        <ele>244.59100341797</ele>
        <time>2010-11-17T13:01:14Z</time>
      </trkpt>
      <trkpt lat="45.08164" lon="4.91905">
        <ele>244.39700317383</ele>
        <time>2010-11-17T13:01:16Z</time>
      </trkpt>
      <trkpt lat="45.08152" lon="4.91888">
        <ele>243.60400390625</ele>
        <time>2010-11-17T13:01:20Z</time>
      </trkpt>
      <trkpt lat="45.0815" lon="4.91879">
        <ele>243.58000183106</ele>
        <time>2010-11-17T13:01:24Z</time>
      </trkpt>
      <trkpt lat="45.08154" lon="4.91874">
        <ele>243.4700012207</ele>
        <time>2010-11-17T13:01:52Z</time>
      </trkpt>
      <trkpt lat="45.08154" lon="4.91867">
        <ele>243.22300720215</ele>
        <time>2010-11-17T13:01:54Z</time>
      </trkpt>
      <trkpt lat="45.08153" lon="4.9183">
        <ele>241.20500183106</ele>
        <time>2010-11-17T13:01:59Z</time>
      </trkpt>
      <trkpt lat="45.08155" lon="4.9181">
        <ele>240.51400756836</ele>
        <time>2010-11-17T13:02:01Z</time>
      </trkpt>
      <trkpt lat="45.08157" lon="4.91799">
        <ele>240.05299377441</ele>
        <time>2010-11-17T13:02:02Z</time>
      </trkpt>
      <trkpt lat="45.0817" lon="4.91722">
        <ele>236.2559967041</ele>
        <time>2010-11-17T13:02:08Z</time>
      </trkpt>
      <trkpt lat="45.08181" lon="4.91645">
        <ele>232.77799987793</ele>
        <time>2010-11-17T13:02:13Z</time>
      </trkpt>
      <trkpt lat="45.08172" lon="4.91576">
        <ele>228.49899291992</ele>
        <time>2010-11-17T13:02:17Z</time>
      </trkpt>
      <trkpt lat="45.08146" lon="4.91534">
        <ele>225.59800720215</ele>
        <time>2010-11-17T13:02:20Z</time>
      </trkpt>
      <trkpt lat="45.08135" lon="4.91522">
        <ele>224.77699279785</ele>
        <time>2010-11-17T13:02:21Z</time>
      </trkpt>
      <trkpt lat="45.08052" lon="4.9144">
        <ele>217.64399719238</ele>
        <time>2010-11-17T13:02:28Z</time>
      </trkpt>
      <trkpt lat="45.0799" lon="4.91361">
        <ele>213.88200378418</ele>
        <time>2010-11-17T13:02:34Z</time>
      </trkpt>
      <trkpt lat="45.07941" lon="4.91293">
        <ele>210.64500427246</ele>
        <time>2010-11-17T13:02:39Z</time>
      </trkpt>
      <trkpt lat="45.07874" lon="4.91176">
        <ele>206.51800537109</ele>
        <time>2010-11-17T13:02:47Z</time>
      </trkpt>
      <trkpt lat="45.07864" lon="4.91163">
        <ele>206.31500244141</ele>
        <time>2010-11-17T13:02:48Z</time>
      </trkpt>
      <trkpt lat="45.07823" lon="4.9112">
        <ele>204.89100646973</ele>
        <time>2010-11-17T13:02:52Z</time>
      </trkpt>
      <trkpt lat="45.07775" lon="4.91066">
        <ele>203.57400512695</ele>
        <time>2010-11-17T13:02:57Z</time>
      </trkpt>
      <trkpt lat="45.07721" lon="4.90982">
        <ele>202.21000671387</ele>
        <time>2010-11-17T13:03:04Z</time>
      </trkpt>
      <trkpt lat="45.07681" lon="4.90909">
        <ele>200.4700012207</ele>
        <time>2010-11-17T13:03:10Z</time>
      </trkpt>
      <trkpt lat="45.07651" lon="4.90825">
        <ele>199.43400573731</ele>
        <time>2010-11-17T13:03:16Z</time>
      </trkpt>
      <trkpt lat="45.07627" lon="4.90753">
        <ele>198.36099243164</ele>
        <time>2010-11-17T13:03:21Z</time>
      </trkpt>
      <trkpt lat="45.07624" lon="4.90737">
        <ele>198.13299560547</ele>
        <time>2010-11-17T13:03:22Z</time>
      </trkpt>
      <trkpt lat="45.07619" lon="4.90658">
        <ele>196.34199523926</ele>
        <time>2010-11-17T13:03:27Z</time>
      </trkpt>
      <trkpt lat="45.0763" lon="4.9056">
        <ele>193.3690032959</ele>
        <time>2010-11-17T13:03:33Z</time>
      </trkpt>
      <trkpt lat="45.07659" lon="4.90484">
        <ele>189.0059967041</ele>
        <time>2010-11-17T13:03:38Z</time>
      </trkpt>
      <trkpt lat="45.07706" lon="4.90376">
        <ele>183.76699829102</ele>
        <time>2010-11-17T13:03:45Z</time>
      </trkpt>
      <trkpt lat="45.07717" lon="4.90325">
        <ele>182.4700012207</ele>
        <time>2010-11-17T13:03:48Z</time>
      </trkpt>
      <trkpt lat="45.07723" lon="4.90237">
        <ele>180.19299316406</ele>
        <time>2010-11-17T13:03:53Z</time>
      </trkpt>
      <trkpt lat="45.07724" lon="4.90153">
        <ele>177.63400268555</ele>
        <time>2010-11-17T13:03:58Z</time>
      </trkpt>
      <trkpt lat="45.07729" lon="4.90072">
        <ele>176.4049987793</ele>
        <time>2010-11-17T13:04:03Z</time>
      </trkpt>
      <trkpt lat="45.07751" lon="4.89983">
        <ele>174.90600585938</ele>
        <time>2010-11-17T13:04:09Z</time>
      </trkpt>
      <trkpt lat="45.07792" lon="4.89907">
        <ele>173.43899536133</ele>
        <time>2010-11-17T13:04:15Z</time>
      </trkpt>
      <trkpt lat="45.07862" lon="4.89784">
        <ele>171.58200073242</ele>
        <time>2010-11-17T13:04:25Z</time>
      </trkpt>
      <trkpt lat="45.07869" lon="4.89771">
        <ele>171.64700317383</ele>
        <time>2010-11-17T13:04:26Z</time>
      </trkpt>
      <trkpt lat="45.07881" lon="4.89713">
        <ele>170.61399841309</ele>
        <time>2010-11-17T13:04:30Z</time>
      </trkpt>
      <trkpt lat="45.07888" lon="4.89623">
        <ele>169.76100158691</ele>
        <time>2010-11-17T13:04:36Z</time>
      </trkpt>
      <trkpt lat="45.07893" lon="4.89553">
        <ele>169.83200073242</ele>
        <time>2010-11-17T13:04:41Z</time>
      </trkpt>
      <trkpt lat="45.07892" lon="4.89514">
        <ele>169.9940032959</ele>
        <time>2010-11-17T13:04:44Z</time>
      </trkpt>
      <trkpt lat="45.07888" lon="4.89444">
        <ele>170.96099853516</ele>
        <time>2010-11-17T13:04:50Z</time>
      </trkpt>
      <trkpt lat="45.07877" lon="4.89389">
        <ele>170.80200195312</ele>
        <time>2010-11-17T13:04:55Z</time>
      </trkpt>
      <trkpt lat="45.07846" lon="4.89296">
        <ele>171.47500610352</ele>
        <time>2010-11-17T13:05:04Z</time>
      </trkpt>
      <trkpt lat="45.07811" lon="4.89211">
        <ele>170.66000366211</ele>
        <time>2010-11-17T13:05:12Z</time>
      </trkpt>
      <trkpt lat="45.0779" lon="4.89149">
        <ele>168.14799499512</ele>
        <time>2010-11-17T13:05:17Z</time>
      </trkpt>
      <trkpt lat="45.07766" lon="4.89074">
        <ele>162.91000366211</ele>
        <time>2010-11-17T13:05:22Z</time>
      </trkpt>
      <trkpt lat="45.07734" lon="4.89022">
        <ele>160.52900695801</ele>
        <time>2010-11-17T13:05:26Z</time>
      </trkpt>
      <trkpt lat="45.07725" lon="4.89011">
        <ele>160.34800720215</ele>
        <time>2010-11-17T13:05:27Z</time>
      </trkpt>
      <trkpt lat="45.07687" lon="4.88978">
        <ele>159.49000549316</ele>
        <time>2010-11-17T13:05:31Z</time>
      </trkpt>
      <trkpt lat="45.07638" lon="4.88956">
        <ele>159.0890045166</ele>
        <time>2010-11-17T13:05:36Z</time>
      </trkpt>
      <trkpt lat="45.07591" lon="4.88953">
        <ele>158.82400512695</ele>
        <time>2010-11-17T13:05:41Z</time>
      </trkpt>
      <trkpt lat="45.07573" lon="4.88956">
        <ele>158.2140045166</ele>
        <time>2010-11-17T13:05:43Z</time>
      </trkpt>
      <trkpt lat="45.07547" lon="4.88951">
        <ele>158.75900268555</ele>
        <time>2010-11-17T13:05:46Z</time>
      </trkpt>
      <trkpt lat="45.07511" lon="4.88951">
        <ele>158.28700256348</ele>
        <time>2010-11-17T13:05:50Z</time>
      </trkpt>
      <trkpt lat="45.07494" lon="4.88944">
        <ele>157.95599365234</ele>
        <time>2010-11-17T13:05:52Z</time>
      </trkpt>
      <trkpt lat="45.07436" lon="4.88912">
        <ele>156.88499450684</ele>
        <time>2010-11-17T13:05:59Z</time>
      </trkpt>
      <trkpt lat="45.07414" lon="4.88916">
        <ele>156.55299377441</ele>
        <time>2010-11-17T13:06:02Z</time>
      </trkpt>
      <trkpt lat="45.07408" lon="4.88923">
        <ele>156.55299377441</ele>
        <time>2010-11-17T13:06:03Z</time>
      </trkpt>
      <trkpt lat="45.07369" lon="4.88941">
        <ele>155.35200500488</ele>
        <time>2010-11-17T13:06:08Z</time>
      </trkpt>
      <trkpt lat="45.0733" lon="4.88963">
        <ele>154.54600524902</ele>
        <time>2010-11-17T13:06:13Z</time>
      </trkpt>
      <trkpt lat="45.07314" lon="4.88967">
        <ele>154.60200500488</ele>
        <time>2010-11-17T13:06:15Z</time>
      </trkpt>
      <trkpt lat="45.07249" lon="4.88973">
        <ele>154.58500671387</ele>
        <time>2010-11-17T13:06:23Z</time>
      </trkpt>
      <trkpt lat="45.07206" lon="4.88987">
        <ele>155.44099426269</ele>
        <time>2010-11-17T13:06:29Z</time>
      </trkpt>
      <trkpt lat="45.07166" lon="4.89013">
        <ele>154.47500610352</ele>
        <time>2010-11-17T13:06:35Z</time>
      </trkpt>
      <trkpt lat="45.07138" lon="4.89026">
        <ele>153.38299560547</ele>
        <time>2010-11-17T13:06:39Z</time>
      </trkpt>
      <trkpt lat="45.07106" lon="4.89049">
        <ele>153.29100036621</ele>
        <time>2010-11-17T13:06:44Z</time>
      </trkpt>
      <trkpt lat="45.0709" lon="4.89065">
        <ele>153.30599975586</ele>
        <time>2010-11-17T13:06:47Z</time>
      </trkpt>
      <trkpt lat="45.07058" lon="4.89078">
        <ele>152.91999816894</ele>
        <time>2010-11-17T13:06:52Z</time>
      </trkpt>
      <trkpt lat="45.0705" lon="4.89078">
        <ele>152.76300048828</ele>
        <time>2010-11-17T13:06:53Z</time>
      </trkpt>
      <trkpt lat="45.06989" lon="4.89073">
        <ele>152.37699890137</ele>
        <time>2010-11-17T13:07:01Z</time>
      </trkpt>
      <trkpt lat="45.06939" lon="4.8907">
        <ele>151.97200012207</ele>
        <time>2010-11-17T13:07:08Z</time>
      </trkpt>
      <trkpt lat="45.06884" lon="4.89068">
        <ele>151.43600463867</ele>
        <time>2010-11-17T13:07:16Z</time>
      </trkpt>
      <trkpt lat="45.06829" lon="4.89065">
        <ele>151.07200622559</ele>
        <time>2010-11-17T13:07:24Z</time>
      </trkpt>
      <trkpt lat="45.06776" lon="4.8906">
        <ele>150.30799865723</ele>
        <time>2010-11-17T13:07:32Z</time>
      </trkpt>
      <trkpt lat="45.06723" lon="4.89057">
        <ele>150.30599975586</ele>
        <time>2010-11-17T13:07:40Z</time>
      </trkpt>
      <trkpt lat="45.06693" lon="4.89058">
        <ele>149.72399902344</ele>
        <time>2010-11-17T13:07:45Z</time>
      </trkpt>
      <trkpt lat="45.06655" lon="4.89058">
        <ele>149.64300537109</ele>
        <time>2010-11-17T13:07:51Z</time>
      </trkpt>
      <trkpt lat="45.06606" lon="4.89058">
        <ele>149.50399780273</ele>
        <time>2010-11-17T13:07:59Z</time>
      </trkpt>
      <trkpt lat="45.06594" lon="4.89058">
        <ele>149.47300720215</ele>
        <time>2010-11-17T13:08:01Z</time>
      </trkpt>
      <trkpt lat="45.06576" lon="4.89058">
        <ele>150.45799255371</ele>
        <time>2010-11-17T13:08:06Z</time>
      </trkpt>
      <trkpt lat="45.06569" lon="4.89058">
        <ele>150.3809967041</ele>
        <time>2010-11-17T13:08:08Z</time>
      </trkpt>
      <trkpt lat="45.06547" lon="4.89063">
        <ele>149.44900512695</ele>
        <time>2010-11-17T13:08:13Z</time>
      </trkpt>
      <trkpt lat="45.06536" lon="4.89064">
        <ele>148.81500244141</ele>
        <time>2010-11-17T13:08:15Z</time>
      </trkpt>
      <trkpt lat="45.06496" lon="4.89077">
        <ele>147.27000427246</ele>
        <time>2010-11-17T13:08:22Z</time>
      </trkpt>
      <trkpt lat="45.06453" lon="4.89085">
        <ele>145.62800598144</ele>
        <time>2010-11-17T13:08:29Z</time>
      </trkpt>
      <trkpt lat="45.06447" lon="4.89086">
        <ele>145.44000244141</ele>
        <time>2010-11-17T13:08:30Z</time>
      </trkpt>
      <trkpt lat="45.06419" lon="4.89106">
        <ele>144.2559967041</ele>
        <time>2010-11-17T13:08:35Z</time>
      </trkpt>
      <trkpt lat="45.06414" lon="4.89111">
        <ele>144.15299987793</ele>
        <time>2010-11-17T13:08:36Z</time>
      </trkpt>
      <trkpt lat="45.06404" lon="4.89123">
        <ele>143.89799499512</ele>
        <time>2010-11-17T13:08:38Z</time>
      </trkpt>
      <trkpt lat="45.06376" lon="4.89145">
        <ele>143.22900390625</ele>
        <time>2010-11-17T13:08:43Z</time>
      </trkpt>
      <trkpt lat="45.06369" lon="4.89147">
        <ele>142.61099243164</ele>
        <time>2010-11-17T13:08:44Z</time>
      </trkpt>
      <trkpt lat="45.06342" lon="4.89151">
        <ele>142.06300354004</ele>
        <time>2010-11-17T13:08:48Z</time>
      </trkpt>
      <trkpt lat="45.06308" lon="4.89154">
        <ele>140.82699584961</ele>
        <time>2010-11-17T13:08:53Z</time>
      </trkpt>
      <trkpt lat="45.06255" lon="4.89158">
        <ele>140.60099792481</ele>
        <time>2010-11-17T13:09:01Z</time>
      </trkpt>
      <trkpt lat="45.0621" lon="4.89163">
        <ele>140.32200622559</ele>
        <time>2010-11-17T13:09:08Z</time>
      </trkpt>
      <trkpt lat="45.06159" lon="4.89168">
        <ele>140.62100219727</ele>
        <time>2010-11-17T13:09:16Z</time>
      </trkpt>
      <trkpt lat="45.06081" lon="4.89175">
        <ele>140.62300109863</ele>
        <time>2010-11-17T13:09:28Z</time>
      </trkpt>
      <trkpt lat="45.06047" lon="4.89177">
        <ele>140.71600341797</ele>
        <time>2010-11-17T13:09:33Z</time>
      </trkpt>
      <trkpt lat="45.05978" lon="4.89183">
        <ele>140.27299499512</ele>
        <time>2010-11-17T13:09:43Z</time>
      </trkpt>
      <trkpt lat="45.05922" lon="4.89181">
        <ele>139.92300415039</ele>
        <time>2010-11-17T13:09:51Z</time>
      </trkpt>
      <trkpt lat="45.05881" lon="4.89167">
        <ele>139.39700317383</ele>
        <time>2010-11-17T13:09:57Z</time>
      </trkpt>
      <trkpt lat="45.05833" lon="4.89148">
        <ele>139.61099243164</ele>
        <time>2010-11-17T13:10:05Z</time>
      </trkpt>
      <trkpt lat="45.05785" lon="4.89133">
        <ele>140.57200622559</ele>
        <time>2010-11-17T13:10:13Z</time>
      </trkpt>
      <trkpt lat="45.05745" lon="4.8912">
        <ele>139.46600341797</ele>
        <time>2010-11-17T13:10:20Z</time>
      </trkpt>
      <trkpt lat="45.05703" lon="4.89101">
        <ele>139.38299560547</ele>
        <time>2010-11-17T13:10:27Z</time>
      </trkpt>
      <trkpt lat="45.05647" lon="4.89061">
        <ele>139.48300170898</ele>
        <time>2010-11-17T13:10:37Z</time>
      </trkpt>
      <trkpt lat="45.056" lon="4.89024">
        <ele>140.19900512695</ele>
        <time>2010-11-17T13:10:46Z</time>
      </trkpt>
      <trkpt lat="45.05549" lon="4.8899">
        <ele>139.24299621582</ele>
        <time>2010-11-17T13:10:55Z</time>
      </trkpt>
      <trkpt lat="45.05497" lon="4.8896">
        <ele>139.22500610352</ele>
        <time>2010-11-17T13:11:04Z</time>
      </trkpt>
      <trkpt lat="45.05427" lon="4.88923">
        <ele>139.58999633789</ele>
        <time>2010-11-17T13:11:16Z</time>
      </trkpt>
      <trkpt lat="45.0537" lon="4.88892">
        <ele>139.125</ele>
        <time>2010-11-17T13:11:26Z</time>
      </trkpt>
      <trkpt lat="45.05327" lon="4.88875">
        <ele>138.97399902344</ele>
        <time>2010-11-17T13:11:33Z</time>
      </trkpt>
      <trkpt lat="45.05259" lon="4.8886">
        <ele>139.37600708008</ele>
        <time>2010-11-17T13:11:44Z</time>
      </trkpt>
      <trkpt lat="45.05198" lon="4.88851">
        <ele>139.79200744629</ele>
        <time>2010-11-17T13:11:54Z</time>
      </trkpt>
      <trkpt lat="45.05133" lon="4.88841">
        <ele>139.18099975586</ele>
        <time>2010-11-17T13:12:04Z</time>
      </trkpt>
      <trkpt lat="45.05074" lon="4.88833">
        <ele>139.07899475098</ele>
        <time>2010-11-17T13:12:13Z</time>
      </trkpt>
      <trkpt lat="45.05023" lon="4.88825">
        <ele>139.01800537109</ele>
        <time>2010-11-17T13:12:21Z</time>
      </trkpt>
      <trkpt lat="45.04959" lon="4.88809">
        <ele>138.75199890137</ele>
        <time>2010-11-17T13:12:31Z</time>
      </trkpt>
      <trkpt lat="45.04907" lon="4.88795">
        <ele>138.36500549316</ele>
        <time>2010-11-17T13:12:39Z</time>
      </trkpt>
      <trkpt lat="45.04853" lon="4.88782">
        <ele>139.41600036621</ele>
        <time>2010-11-17T13:12:48Z</time>
      </trkpt>
      <trkpt lat="45.04789" lon="4.88769">
        <ele>140.06199645996</ele>
        <time>2010-11-17T13:12:59Z</time>
      </trkpt>
      <trkpt lat="45.04738" lon="4.88757">
        <ele>139.77299499512</ele>
        <time>2010-11-17T13:13:07Z</time>
      </trkpt>
      <trkpt lat="45.04644" lon="4.8873">
        <ele>139.57200622559</ele>
        <time>2010-11-17T13:13:22Z</time>
      </trkpt>
      <trkpt lat="45.04582" lon="4.88716">
        <ele>138.9109954834</ele>
        <time>2010-11-17T13:13:32Z</time>
      </trkpt>
      <trkpt lat="45.0452" lon="4.88709">
        <ele>139.16400146484</ele>
        <time>2010-11-17T13:13:42Z</time>
      </trkpt>
      <trkpt lat="45.04464" lon="4.88704">
        <ele>139.2619934082</ele>
        <time>2010-11-17T13:13:51Z</time>
      </trkpt>
      <trkpt lat="45.04386" lon="4.88698">
        <ele>138.93200683594</ele>
        <time>2010-11-17T13:14:03Z</time>
      </trkpt>
      <trkpt lat="45.04325" lon="4.88698">
        <ele>138.62699890137</ele>
        <time>2010-11-17T13:14:12Z</time>
      </trkpt>
      <trkpt lat="45.04274" lon="4.88698">
        <ele>138.66000366211</ele>
        <time>2010-11-17T13:14:20Z</time>
      </trkpt>
      <trkpt lat="45.04211" lon="4.88695">
        <ele>138.95300292969</ele>
        <time>2010-11-17T13:14:30Z</time>
      </trkpt>
      <trkpt lat="45.04151" lon="4.88693">
        <ele>139.23100280762</ele>
        <time>2010-11-17T13:14:40Z</time>
      </trkpt>
      <trkpt lat="45.04098" lon="4.8869">
        <ele>137.48899841309</ele>
        <time>2010-11-17T13:14:48Z</time>
      </trkpt>
      <trkpt lat="45.04032" lon="4.88687">
        <ele>137.50900268555</ele>
        <time>2010-11-17T13:14:58Z</time>
      </trkpt>
      <trkpt lat="45.03996" lon="4.88687">
        <ele>137.31199645996</ele>
        <time>2010-11-17T13:15:04Z</time>
      </trkpt>
      <trkpt lat="45.03978" lon="4.88694">
        <ele>137.2380065918</ele>
        <time>2010-11-17T13:15:07Z</time>
      </trkpt>
      <trkpt lat="45.03958" lon="4.88694">
        <ele>138.13900756836</ele>
        <time>2010-11-17T13:15:11Z</time>
      </trkpt>
      <trkpt lat="45.03954" lon="4.8869">
        <ele>138.36199951172</ele>
        <time>2010-11-17T13:15:12Z</time>
      </trkpt>
      <trkpt lat="45.03926" lon="4.88676">
        <ele>138.90199279785</ele>
        <time>2010-11-17T13:15:18Z</time>
      </trkpt>
      <trkpt lat="45.03917" lon="4.88669">
        <ele>138.91799926758</ele>
        <time>2010-11-17T13:15:20Z</time>
      </trkpt>
      <trkpt lat="45.03885" lon="4.88636">
        <ele>138.33999633789</ele>
        <time>2010-11-17T13:15:27Z</time>
      </trkpt>
      <trkpt lat="45.0386" lon="4.88613">
        <ele>138.14900207519</ele>
        <time>2010-11-17T13:15:32Z</time>
      </trkpt>
      <trkpt lat="45.03823" lon="4.88577">
        <ele>138.48699951172</ele>
        <time>2010-11-17T13:15:40Z</time>
      </trkpt>
      <trkpt lat="45.03762" lon="4.8852">
        <ele>138.3390045166</ele>
        <time>2010-11-17T13:15:52Z</time>
      </trkpt>
      <trkpt lat="45.03717" lon="4.88479">
        <ele>138.70599365234</ele>
        <time>2010-11-17T13:16:01Z</time>
      </trkpt>
      <trkpt lat="45.03662" lon="4.88427">
        <ele>138.45500183106</ele>
        <time>2010-11-17T13:16:12Z</time>
      </trkpt>
      <trkpt lat="45.0361" lon="4.88377">
        <ele>138.41499328613</ele>
        <time>2010-11-17T13:16:22Z</time>
      </trkpt>
      <trkpt lat="45.03561" lon="4.88336">
        <ele>138.47300720215</ele>
        <time>2010-11-17T13:16:31Z</time>
      </trkpt>
      <trkpt lat="45.03503" lon="4.88291">
        <ele>138.02799987793</ele>
        <time>2010-11-17T13:16:41Z</time>
      </trkpt>
      <trkpt lat="45.03431" lon="4.88243">
        <ele>137.76600646973</ele>
        <time>2010-11-17T13:16:53Z</time>
      </trkpt>
      <trkpt lat="45.0337" lon="4.88202">
        <ele>137.49299621582</ele>
        <time>2010-11-17T13:17:03Z</time>
      </trkpt>
      <trkpt lat="45.03312" lon="4.88157">
        <ele>137.49200439453</ele>
        <time>2010-11-17T13:17:13Z</time>
      </trkpt>
      <trkpt lat="45.03248" lon="4.88107">
        <ele>137.37100219727</ele>
        <time>2010-11-17T13:17:24Z</time>
      </trkpt>
      <trkpt lat="45.03193" lon="4.88068">
        <ele>136.86199951172</ele>
        <time>2010-11-17T13:17:33Z</time>
      </trkpt>
      <trkpt lat="45.03149" lon="4.88032">
        <ele>136.20700073242</ele>
        <time>2010-11-17T13:17:40Z</time>
      </trkpt>
      <trkpt lat="45.03095" lon="4.87984">
        <ele>135.71099853516</ele>
        <time>2010-11-17T13:17:49Z</time>
      </trkpt>
      <trkpt lat="45.03044" lon="4.87951">
        <ele>134.83299255371</ele>
        <time>2010-11-17T13:17:57Z</time>
      </trkpt>
      <trkpt lat="45.02989" lon="4.87914">
        <ele>134.31900024414</ele>
        <time>2010-11-17T13:18:06Z</time>
      </trkpt>
      <trkpt lat="45.02961" lon="4.87888">
        <ele>134.3809967041</ele>
        <time>2010-11-17T13:18:11Z</time>
      </trkpt>
      <trkpt lat="45.0294" lon="4.87851">
        <ele>134.48599243164</ele>
        <time>2010-11-17T13:18:16Z</time>
      </trkpt>
      <trkpt lat="45.02905" lon="4.87789">
        <ele>135.27099609375</ele>
        <time>2010-11-17T13:18:25Z</time>
      </trkpt>
      <trkpt lat="45.02861" lon="4.87714">
        <ele>135.92300415039</ele>
        <time>2010-11-17T13:18:36Z</time>
      </trkpt>
      <trkpt lat="45.02826" lon="4.87628">
        <ele>136.03999328613</ele>
        <time>2010-11-17T13:18:47Z</time>
      </trkpt>
      <trkpt lat="45.02804" lon="4.87579">
        <ele>136.27099609375</ele>
        <time>2010-11-17T13:18:54Z</time>
      </trkpt>
      <trkpt lat="45.02785" lon="4.8754">
        <ele>138.07899475098</ele>
        <time>2010-11-17T13:19:01Z</time>
      </trkpt>
      <trkpt lat="45.0278" lon="4.87529">
        <ele>138.83200073242</ele>
        <time>2010-11-17T13:19:03Z</time>
      </trkpt>
      <trkpt lat="45.02758" lon="4.87479">
        <ele>139.00500488281</ele>
        <time>2010-11-17T13:19:11Z</time>
      </trkpt>
      <trkpt lat="45.02737" lon="4.87432">
        <ele>136.88600158691</ele>
        <time>2010-11-17T13:19:17Z</time>
      </trkpt>
      <trkpt lat="45.02733" lon="4.87423">
        <ele>136.61399841309</ele>
        <time>2010-11-17T13:19:18Z</time>
      </trkpt>
      <trkpt lat="45.02702" lon="4.87353">
        <ele>132.76899719238</ele>
        <time>2010-11-17T13:19:25Z</time>
      </trkpt>
      <trkpt lat="45.0267" lon="4.87276">
        <ele>131.67300415039</ele>
        <time>2010-11-17T13:19:33Z</time>
      </trkpt>
      <trkpt lat="45.02633" lon="4.87186">
        <ele>131.90699768066</ele>
        <time>2010-11-17T13:19:43Z</time>
      </trkpt>
      <trkpt lat="45.02603" lon="4.87122">
        <ele>132.27499389648</ele>
        <time>2010-11-17T13:19:51Z</time>
      </trkpt>
      <trkpt lat="45.02573" lon="4.87053">
        <ele>133.15800476074</ele>
        <time>2010-11-17T13:20:00Z</time>
      </trkpt>
      <trkpt lat="45.02544" lon="4.86969">
        <ele>133.92300415039</ele>
        <time>2010-11-17T13:20:11Z</time>
      </trkpt>
      <trkpt lat="45.02524" lon="4.86912">
        <ele>134.32699584961</ele>
        <time>2010-11-17T13:20:19Z</time>
      </trkpt>
      <trkpt lat="45.02507" lon="4.86867">
        <ele>134.72900390625</ele>
        <time>2010-11-17T13:20:27Z</time>
      </trkpt>
      <trkpt lat="45.02496" lon="4.86834">
        <ele>135.31300354004</ele>
        <time>2010-11-17T13:20:35Z</time>
      </trkpt>
      <trkpt lat="45.02496" lon="4.86832">
        <ele>135.84399414062</ele>
        <time>2010-11-17T13:20:38Z</time>
      </trkpt>
      <trkpt lat="45.02497" lon="4.86824">
        <ele>135.80900573731</ele>
        <time>2010-11-17T13:21:46Z</time>
      </trkpt>
      <trkpt lat="45.02491" lon="4.86815">
        <ele>135.3450012207</ele>
        <time>2010-11-17T13:21:50Z</time>
      </trkpt>
      <trkpt lat="45.02481" lon="4.86801">
        <ele>135.2619934082</ele>
        <time>2010-11-17T13:21:54Z</time>
      </trkpt>
      <trkpt lat="45.02458" lon="4.86758">
        <ele>134.53500366211</ele>
        <time>2010-11-17T13:22:02Z</time>
      </trkpt>
      <trkpt lat="45.02432" lon="4.86706">
        <ele>134.51499938965</ele>
        <time>2010-11-17T13:22:10Z</time>
      </trkpt>
      <trkpt lat="45.02401" lon="4.86643">
        <ele>133.62600708008</ele>
        <time>2010-11-17T13:22:19Z</time>
      </trkpt>
      <trkpt lat="45.02372" lon="4.86588">
        <ele>133.36199951172</ele>
        <time>2010-11-17T13:22:27Z</time>
      </trkpt>
      <trkpt lat="45.02334" lon="4.86517">
        <ele>132.55799865723</ele>
        <time>2010-11-17T13:22:37Z</time>
      </trkpt>
      <trkpt lat="45.02296" lon="4.86443">
        <ele>132.16200256348</ele>
        <time>2010-11-17T13:22:47Z</time>
      </trkpt>
      <trkpt lat="45.02255" lon="4.8636">
        <ele>132.02699279785</ele>
        <time>2010-11-17T13:22:58Z</time>
      </trkpt>
      <trkpt lat="45.02217" lon="4.86297">
        <ele>132.06399536133</ele>
        <time>2010-11-17T13:23:07Z</time>
      </trkpt>
      <trkpt lat="45.02193" lon="4.86253">
        <ele>131.72399902344</ele>
        <time>2010-11-17T13:23:13Z</time>
      </trkpt>
      <trkpt lat="45.02171" lon="4.86202">
        <ele>129.81399536133</ele>
        <time>2010-11-17T13:23:19Z</time>
      </trkpt>
      <trkpt lat="45.02143" lon="4.86155">
        <ele>127.1669998169</ele>
        <time>2010-11-17T13:23:24Z</time>
      </trkpt>
      <trkpt lat="45.02138" lon="4.86145">
        <ele>126.87300109863</ele>
        <time>2010-11-17T13:23:25Z</time>
      </trkpt>
      <trkpt lat="45.02105" lon="4.86081">
        <ele>124.87000274658</ele>
        <time>2010-11-17T13:23:31Z</time>
      </trkpt>
      <trkpt lat="45.02082" lon="4.86024">
        <ele>123.59400177002</ele>
        <time>2010-11-17T13:23:37Z</time>
      </trkpt>
      <trkpt lat="45.02054" lon="4.85971">
        <ele>121.49800109863</ele>
        <time>2010-11-17T13:23:43Z</time>
      </trkpt>
      <trkpt lat="45.02049" lon="4.85962">
        <ele>121.20999908447</ele>
        <time>2010-11-17T13:23:44Z</time>
      </trkpt>
      <trkpt lat="45.02026" lon="4.85915">
        <ele>120.12599945068</ele>
        <time>2010-11-17T13:23:49Z</time>
      </trkpt>
      <trkpt lat="45.02003" lon="4.85846">
        <ele>120.01999664307</ele>
        <time>2010-11-17T13:23:56Z</time>
      </trkpt>
      <trkpt lat="45.01996" lon="4.85827">
        <ele>119.83599853516</ele>
        <time>2010-11-17T13:23:58Z</time>
      </trkpt>
      <trkpt lat="45.01975" lon="4.85799">
        <ele>119.28600311279</ele>
        <time>2010-11-17T13:24:02Z</time>
      </trkpt>
      <trkpt lat="45.01968" lon="4.85797">
        <ele>119.11100006103</ele>
        <time>2010-11-17T13:24:03Z</time>
      </trkpt>
      <trkpt lat="45.01896" lon="4.85782">
        <ele>119.81400299072</ele>
        <time>2010-11-17T13:24:14Z</time>
      </trkpt>
      <trkpt lat="45.01827" lon="4.85768">
        <ele>120.8450012207</ele>
        <time>2010-11-17T13:24:25Z</time>
      </trkpt>
      <trkpt lat="45.01774" lon="4.85757">
        <ele>121.1669998169</ele>
        <time>2010-11-17T13:24:34Z</time>
      </trkpt>
      <trkpt lat="45.01733" lon="4.8575">
        <ele>121.68599700928</ele>
        <time>2010-11-17T13:24:41Z</time>
      </trkpt>
      <trkpt lat="45.017" lon="4.85751">
        <ele>122.9049987793</ele>
        <time>2010-11-17T13:24:47Z</time>
      </trkpt>
      <trkpt lat="45.01667" lon="4.85756">
        <ele>125.19300079346</ele>
        <time>2010-11-17T13:24:54Z</time>
      </trkpt>
      <trkpt lat="45.01631" lon="4.85762">
        <ele>128.18299865723</ele>
        <time>2010-11-17T13:25:02Z</time>
      </trkpt>
      <trkpt lat="45.01612" lon="4.85765">
        <ele>128.26100158691</ele>
        <time>2010-11-17T13:25:06Z</time>
      </trkpt>
      <trkpt lat="45.01591" lon="4.85766">
        <ele>128.17399597168</ele>
        <time>2010-11-17T13:25:10Z</time>
      </trkpt>
      <trkpt lat="45.01566" lon="4.85753">
        <ele>126.97599792481</ele>
        <time>2010-11-17T13:25:15Z</time>
      </trkpt>
      <trkpt lat="45.01559" lon="4.8573">
        <ele>126.70400238037</ele>
        <time>2010-11-17T13:25:18Z</time>
      </trkpt>
      <trkpt lat="45.01551" lon="4.85664">
        <ele>125.01000213623</ele>
        <time>2010-11-17T13:25:26Z</time>
      </trkpt>
      <trkpt lat="45.01551" lon="4.8566">
        <ele>124.95400238037</ele>
        <time>2010-11-17T13:25:27Z</time>
      </trkpt>
      <trkpt lat="45.01554" lon="4.85648">
        <ele>124.60900115967</ele>
        <time>2010-11-17T13:25:29Z</time>
      </trkpt>
      <trkpt lat="45.0155" lon="4.8562">
        <ele>123.51899719238</ele>
        <time>2010-11-17T13:25:33Z</time>
      </trkpt>
      <trkpt lat="45.01538" lon="4.8559">
        <ele>122.40299987793</ele>
        <time>2010-11-17T13:25:37Z</time>
      </trkpt>
      <trkpt lat="45.0153" lon="4.85561">
        <ele>121.1309967041</ele>
        <time>2010-11-17T13:25:40Z</time>
      </trkpt>
      <trkpt lat="45.01516" lon="4.85522">
        <ele>119.02300262451</ele>
        <time>2010-11-17T13:25:44Z</time>
      </trkpt>
      <trkpt lat="45.01509" lon="4.85503">
        <ele>118.72899627685</ele>
        <time>2010-11-17T13:25:46Z</time>
      </trkpt>
      <trkpt lat="45.01505" lon="4.85493">
        <ele>118.60299682617</ele>
        <time>2010-11-17T13:25:47Z</time>
      </trkpt>
      <trkpt lat="45.01498" lon="4.85475">
        <ele>118.922996521</ele>
        <time>2010-11-17T13:25:49Z</time>
      </trkpt>
      <trkpt lat="45.01476" lon="4.85419">
        <ele>120.38200378418</ele>
        <time>2010-11-17T13:25:56Z</time>
      </trkpt>
      <trkpt lat="45.01452" lon="4.85355">
        <ele>120.82199859619</ele>
        <time>2010-11-17T13:26:04Z</time>
      </trkpt>
      <trkpt lat="45.01423" lon="4.85279">
        <ele>119.9049987793</ele>
        <time>2010-11-17T13:26:13Z</time>
      </trkpt>
      <trkpt lat="45.01395" lon="4.85207">
        <ele>117.84700012207</ele>
        <time>2010-11-17T13:26:21Z</time>
      </trkpt>
      <trkpt lat="45.0139" lon="4.85197">
        <ele>117.56099700928</ele>
        <time>2010-11-17T13:26:22Z</time>
      </trkpt>
      <trkpt lat="45.0136" lon="4.85117">
        <ele>113.88999938965</ele>
        <time>2010-11-17T13:26:29Z</time>
      </trkpt>
      <trkpt lat="45.01332" lon="4.8503">
        <ele>112.63200378418</ele>
        <time>2010-11-17T13:26:36Z</time>
      </trkpt>
      <trkpt lat="45.01311" lon="4.84954">
        <ele>112.53600311279</ele>
        <time>2010-11-17T13:26:43Z</time>
      </trkpt>
      <trkpt lat="45.01304" lon="4.84913">
        <ele>112.52200317383</ele>
        <time>2010-11-17T13:26:47Z</time>
      </trkpt>
      <trkpt lat="45.01286" lon="4.84858">
        <ele>112.34200286865</ele>
        <time>2010-11-17T13:26:53Z</time>
      </trkpt>
      <trkpt lat="45.0126" lon="4.84798">
        <ele>112.40100097656</ele>
        <time>2010-11-17T13:27:00Z</time>
      </trkpt>
      <trkpt lat="45.01223" lon="4.8475">
        <ele>112.16999816894</ele>
        <time>2010-11-17T13:27:07Z</time>
      </trkpt>
      <trkpt lat="45.01156" lon="4.8467">
        <ele>112.21900177002</ele>
        <time>2010-11-17T13:27:19Z</time>
      </trkpt>
      <trkpt lat="45.01109" lon="4.84609">
        <ele>112.16000366211</ele>
        <time>2010-11-17T13:27:28Z</time>
      </trkpt>
      <trkpt lat="45.01096" lon="4.84587">
        <ele>112.16000366211</ele>
        <time>2010-11-17T13:27:31Z</time>
      </trkpt>
      <trkpt lat="45.01087" lon="4.84555">
        <ele>112.12300109863</ele>
        <time>2010-11-17T13:27:35Z</time>
      </trkpt>
      <trkpt lat="45.01079" lon="4.84522">
        <ele>111.87899780273</ele>
        <time>2010-11-17T13:27:39Z</time>
      </trkpt>
      <trkpt lat="45.01073" lon="4.84474">
        <ele>111.05500030518</ele>
        <time>2010-11-17T13:27:44Z</time>
      </trkpt>
      <trkpt lat="45.01076" lon="4.84393">
        <ele>110.21299743652</ele>
        <time>2010-11-17T13:27:52Z</time>
      </trkpt>
      <trkpt lat="45.0108" lon="4.84316">
        <ele>110.63999938965</ele>
        <time>2010-11-17T13:28:00Z</time>
      </trkpt>
      <trkpt lat="45.0108" lon="4.8425">
        <ele>110.48899841309</ele>
        <time>2010-11-17T13:28:07Z</time>
      </trkpt>
      <trkpt lat="45.01078" lon="4.84224">
        <ele>110.65299987793</ele>
        <time>2010-11-17T13:28:10Z</time>
      </trkpt>
      <trkpt lat="45.01081" lon="4.84186">
        <ele>110.59300231934</ele>
        <time>2010-11-17T13:28:15Z</time>
      </trkpt>
      <trkpt lat="45.01073" lon="4.84166">
        <ele>110.5179977417</ele>
        <time>2010-11-17T13:28:18Z</time>
      </trkpt>
      <trkpt lat="45.01045" lon="4.84145">
        <ele>111.63300323486</ele>
        <time>2010-11-17T13:28:24Z</time>
      </trkpt>
      <trkpt lat="45.01035" lon="4.84145">
        <ele>111.87300109863</ele>
        <time>2010-11-17T13:28:26Z</time>
      </trkpt>
      <trkpt lat="45.01017" lon="4.84132">
        <ele>113.42700195312</ele>
        <time>2010-11-17T13:28:30Z</time>
      </trkpt>
      <trkpt lat="45.01012" lon="4.84108">
        <ele>114.66799926758</ele>
        <time>2010-11-17T13:28:34Z</time>
      </trkpt>
      <trkpt lat="45.01012" lon="4.84101">
        <ele>115.047996521</ele>
        <time>2010-11-17T13:28:35Z</time>
      </trkpt>
      <trkpt lat="45.0102" lon="4.8404">
        <ele>115.84200286865</ele>
        <time>2010-11-17T13:28:43Z</time>
      </trkpt>
      <trkpt lat="45.01029" lon="4.8399">
        <ele>116.00299835205</ele>
        <time>2010-11-17T13:28:49Z</time>
      </trkpt>
      <trkpt lat="45.01036" lon="4.83946">
        <ele>115.85399627685</ele>
        <time>2010-11-17T13:28:54Z</time>
      </trkpt>
      <trkpt lat="45.01038" lon="4.83937">
        <ele>115.91100311279</ele>
        <time>2010-11-17T13:28:55Z</time>
      </trkpt>
      <trkpt lat="45.01055" lon="4.83831">
        <ele>115.91799926758</ele>
        <time>2010-11-17T13:29:07Z</time>
      </trkpt>
      <trkpt lat="45.01065" lon="4.83781">
        <ele>113.98500061035</ele>
        <time>2010-11-17T13:29:12Z</time>
      </trkpt>
      <trkpt lat="45.01074" lon="4.83748">
        <ele>112.40000152588</ele>
        <time>2010-11-17T13:29:15Z</time>
      </trkpt>
      <trkpt lat="45.01093" lon="4.83708">
        <ele>111.59799957275</ele>
        <time>2010-11-17T13:29:19Z</time>
      </trkpt>
      <trkpt lat="45.01123" lon="4.83652">
        <ele>111.70899963379</ele>
        <time>2010-11-17T13:29:26Z</time>
      </trkpt>
      <trkpt lat="45.01142" lon="4.83618">
        <ele>111.73400115967</ele>
        <time>2010-11-17T13:29:30Z</time>
      </trkpt>
      <trkpt lat="45.01152" lon="4.83602">
        <ele>111.69200134277</ele>
        <time>2010-11-17T13:29:32Z</time>
      </trkpt>
      <trkpt lat="45.01184" lon="4.83575">
        <ele>111.48500061035</ele>
        <time>2010-11-17T13:29:37Z</time>
      </trkpt>
      <trkpt lat="45.01214" lon="4.83574">
        <ele>111.28099822998</ele>
        <time>2010-11-17T13:29:41Z</time>
      </trkpt>
      <trkpt lat="45.01231" lon="4.8358">
        <ele>111.00900268555</ele>
        <time>2010-11-17T13:29:43Z</time>
      </trkpt>
      <trkpt lat="45.01291" lon="4.8361">
        <ele>110.80599975586</ele>
        <time>2010-11-17T13:29:51Z</time>
      </trkpt>
      <trkpt lat="45.01355" lon="4.83642">
        <ele>110.62100219727</ele>
        <time>2010-11-17T13:30:00Z</time>
      </trkpt>
      <trkpt lat="45.0141" lon="4.83671">
        <ele>110.67500305176</ele>
        <time>2010-11-17T13:30:08Z</time>
      </trkpt>
      <trkpt lat="45.01468" lon="4.83696">
        <ele>110.4940032959</ele>
        <time>2010-11-17T13:30:16Z</time>
      </trkpt>
      <trkpt lat="45.01506" lon="4.83699">
        <ele>110.41600036621</ele>
        <time>2010-11-17T13:30:21Z</time>
      </trkpt>
      <trkpt lat="45.0155" lon="4.83687">
        <ele>110.30999755859</ele>
        <time>2010-11-17T13:30:27Z</time>
      </trkpt>
      <trkpt lat="45.01607" lon="4.83652">
        <ele>110.31700134277</ele>
        <time>2010-11-17T13:30:35Z</time>
      </trkpt>
      <trkpt lat="45.01671" lon="4.83616">
        <ele>109.94699859619</ele>
        <time>2010-11-17T13:30:44Z</time>
      </trkpt>
      <trkpt lat="45.01727" lon="4.8359">
        <ele>110.51300048828</ele>
        <time>2010-11-17T13:30:52Z</time>
      </trkpt>
      <trkpt lat="45.01792" lon="4.83552">
        <ele>111.75399780273</ele>
        <time>2010-11-17T13:31:02Z</time>
      </trkpt>
      <trkpt lat="45.01838" lon="4.83519">
        <ele>112.01100158691</ele>
        <time>2010-11-17T13:31:10Z</time>
      </trkpt>
      <trkpt lat="45.01864" lon="4.83495">
        <ele>112.23000335693</ele>
        <time>2010-11-17T13:31:16Z</time>
      </trkpt>
      <trkpt lat="45.0188" lon="4.83477">
        <ele>112.34400177002</ele>
        <time>2010-11-17T13:31:22Z</time>
      </trkpt>
      <trkpt lat="45.01896" lon="4.83454">
        <ele>112.41600036621</ele>
        <time>2010-11-17T13:31:28Z</time>
      </trkpt>
      <trkpt lat="45.01912" lon="4.83436">
        <ele>113.23899841309</ele>
        <time>2010-11-17T13:31:34Z</time>
      </trkpt>
      <trkpt lat="45.01924" lon="4.83432">
        <ele>112.64800262451</ele>
        <time>2010-11-17T13:31:37Z</time>
      </trkpt>
      <trkpt lat="45.01936" lon="4.8343">
        <ele>111.79399871826</ele>
        <time>2010-11-17T13:31:39Z</time>
      </trkpt>
      <trkpt lat="45.01967" lon="4.83432">
        <ele>110.74099731445</ele>
        <time>2010-11-17T13:31:44Z</time>
      </trkpt>
      <trkpt lat="45.01981" lon="4.83432">
        <ele>110.77600097656</ele>
        <time>2010-11-17T13:31:46Z</time>
      </trkpt>
      <trkpt lat="45.01994" lon="4.83433">
        <ele>110.69899749756</ele>
        <time>2010-11-17T13:31:48Z</time>
      </trkpt>
      <trkpt lat="45.02043" lon="4.83428">
        <ele>110.05899810791</ele>
        <time>2010-11-17T13:31:55Z</time>
      </trkpt>
      <trkpt lat="45.02082" lon="4.83425">
        <ele>109.70999908447</ele>
        <time>2010-11-17T13:32:01Z</time>
      </trkpt>
      <trkpt lat="45.02101" lon="4.83426">
        <ele>109.80000305176</ele>
        <time>2010-11-17T13:32:05Z</time>
      </trkpt>
      <trkpt lat="45.0211" lon="4.83421">
        <ele>109.65100097656</ele>
        <time>2010-11-17T13:32:07Z</time>
      </trkpt>
      <trkpt lat="45.02121" lon="4.83415">
        <ele>109.48400115967</ele>
        <time>2010-11-17T13:32:09Z</time>
      </trkpt>
      <trkpt lat="45.02179" lon="4.83397">
        <ele>109.07900238037</ele>
        <time>2010-11-17T13:32:18Z</time>
      </trkpt>
      <trkpt lat="45.02219" lon="4.83383">
        <ele>108.8330001831</ele>
        <time>2010-11-17T13:32:24Z</time>
      </trkpt>
      <trkpt lat="45.02279" lon="4.83354">
        <ele>108.47100067139</ele>
        <time>2010-11-17T13:32:33Z</time>
      </trkpt>
      <trkpt lat="45.0233" lon="4.83325">
        <ele>108.99800109863</ele>
        <time>2010-11-17T13:32:41Z</time>
      </trkpt>
      <trkpt lat="45.02364" lon="4.83301">
        <ele>110.02200317383</ele>
        <time>2010-11-17T13:32:47Z</time>
      </trkpt>
      <trkpt lat="45.02375" lon="4.83294">
        <ele>110.80100250244</ele>
        <time>2010-11-17T13:32:49Z</time>
      </trkpt>
      <trkpt lat="45.02389" lon="4.83284">
        <ele>112.02700042725</ele>
        <time>2010-11-17T13:32:52Z</time>
      </trkpt>
      <trkpt lat="45.02421" lon="4.83266">
        <ele>112.20600128174</ele>
        <time>2010-11-17T13:32:58Z</time>
      </trkpt>
      <trkpt lat="45.02465" lon="4.83245">
        <ele>111.45500183106</ele>
        <time>2010-11-17T13:33:05Z</time>
      </trkpt>
      <trkpt lat="45.02494" lon="4.83238">
        <ele>112.99500274658</ele>
        <time>2010-11-17T13:33:10Z</time>
      </trkpt>
      <trkpt lat="45.02517" lon="4.83225">
        <ele>115.18499755859</ele>
        <time>2010-11-17T13:33:16Z</time>
      </trkpt>
      <trkpt lat="45.02519" lon="4.83224">
        <ele>115.51100158691</ele>
        <time>2010-11-17T13:33:17Z</time>
      </trkpt>
      <trkpt lat="45.02519" lon="4.83217">
        <ele>115.78700256348</ele>
        <time>2010-11-17T13:33:20Z</time>
      </trkpt>
      <trkpt lat="45.02505" lon="4.83208">
        <ele>115.58699798584</ele>
        <time>2010-11-17T13:33:25Z</time>
      </trkpt>
      <trkpt lat="45.02481" lon="4.83194">
        <ele>115.37000274658</ele>
        <time>2010-11-17T13:33:32Z</time>
      </trkpt>
      <trkpt lat="45.02472" lon="4.83185">
        <ele>115.18199920654</ele>
        <time>2010-11-17T13:33:35Z</time>
      </trkpt>
      <trkpt lat="45.02461" lon="4.83168">
        <ele>114.18000030518</ele>
        <time>2010-11-17T13:33:40Z</time>
      </trkpt>
      <trkpt lat="45.02456" lon="4.8315">
        <ele>113.94400024414</ele>
        <time>2010-11-17T13:33:44Z</time>
      </trkpt>
      <trkpt lat="45.02452" lon="4.83113">
        <ele>115.51999664307</ele>
        <time>2010-11-17T13:33:51Z</time>
      </trkpt>
      <trkpt lat="45.02452" lon="4.83107">
        <ele>116.34799957275</ele>
        <time>2010-11-17T13:33:53Z</time>
      </trkpt>
      <trkpt lat="45.02456" lon="4.83104">
        <ele>116.67600250244</ele>
        <time>2010-11-17T13:33:57Z</time>
      </trkpt>
      <trkpt lat="45.02465" lon="4.8311">
        <ele>116.23100280762</ele>
        <time>2010-11-17T13:34:03Z</time>
      </trkpt>
      <trkpt lat="45.02472" lon="4.83123">
        <ele>115.78600311279</ele>
        <time>2010-11-17T13:34:07Z</time>
      </trkpt>
      <trkpt lat="45.02486" lon="4.8313">
        <ele>115.13999938965</ele>
        <time>2010-11-17T13:34:11Z</time>
      </trkpt>
      <trkpt lat="45.02508" lon="4.83128">
        <ele>113.99500274658</ele>
        <time>2010-11-17T13:34:16Z</time>
      </trkpt>
      <trkpt lat="45.02517" lon="4.83125">
        <ele>113.6429977417</ele>
        <time>2010-11-17T13:34:18Z</time>
      </trkpt>
      <trkpt lat="45.0254" lon="4.83117">
        <ele>112.96499633789</ele>
        <time>2010-11-17T13:34:23Z</time>
      </trkpt>
      <trkpt lat="45.02582" lon="4.83101">
        <ele>112.95899963379</ele>
        <time>2010-11-17T13:34:32Z</time>
      </trkpt>
      <trkpt lat="45.02597" lon="4.83095">
        <ele>112.82299804688</ele>
        <time>2010-11-17T13:34:35Z</time>
      </trkpt>
      <trkpt lat="45.02621" lon="4.83081">
        <ele>112.7200012207</ele>
        <time>2010-11-17T13:34:40Z</time>
      </trkpt>
      <trkpt lat="45.02659" lon="4.8306">
        <ele>112.96700286865</ele>
        <time>2010-11-17T13:34:48Z</time>
      </trkpt>
      <trkpt lat="45.02687" lon="4.83044">
        <ele>113.17199707031</ele>
        <time>2010-11-17T13:34:54Z</time>
      </trkpt>
      <trkpt lat="45.02716" lon="4.83027">
        <ele>113.375</ele>
        <time>2010-11-17T13:35:01Z</time>
      </trkpt>
      <trkpt lat="45.02764" lon="4.83001">
        <ele>114.22100067139</ele>
        <time>2010-11-17T13:35:11Z</time>
      </trkpt>
      <trkpt lat="45.02807" lon="4.82975">
        <ele>115.07199859619</ele>
        <time>2010-11-17T13:35:20Z</time>
      </trkpt>
      <trkpt lat="45.02835" lon="4.82958">
        <ele>116.71900177002</ele>
        <time>2010-11-17T13:35:26Z</time>
      </trkpt>
      <trkpt lat="45.02858" lon="4.82944">
        <ele>116.87699890137</ele>
        <time>2010-11-17T13:35:31Z</time>
      </trkpt>
      <trkpt lat="45.02885" lon="4.82927">
        <ele>117.98899841309</ele>
        <time>2010-11-17T13:35:37Z</time>
      </trkpt>
      <trkpt lat="45.02898" lon="4.82918">
        <ele>118.33399963379</ele>
        <time>2010-11-17T13:35:42Z</time>
      </trkpt>
      <trkpt lat="45.0291" lon="4.82911">
        <ele>118.06900024414</ele>
        <time>2010-11-17T13:35:49Z</time>
      </trkpt>
      <trkpt lat="45.02919" lon="4.82906">
        <ele>117.60199737549</ele>
        <time>2010-11-17T13:35:56Z</time>
      </trkpt>
      <trkpt lat="45.02924" lon="4.82901">
        <ele>117.297996521</ele>
        <time>2010-11-17T13:36:01Z</time>
      </trkpt>
      <trkpt lat="45.02929" lon="4.82897">
        <ele>117.31600189209</ele>
        <time>2010-11-17T13:36:06Z</time>
      </trkpt>
      <trkpt lat="45.02929" lon="4.82897">
        <ele>117.2919998169</ele>
        <time>2010-11-17T13:36:08Z</time>
      </trkpt>
      <trkpt lat="45.02932" lon="4.82895">
        <ele>117.22399902344</ele>
        <time>2010-11-17T13:36:20Z</time>
      </trkpt>
      <trkpt lat="45.02942" lon="4.82885">
        <ele>117.21299743652</ele>
        <time>2010-11-17T13:36:26Z</time>
      </trkpt>
      <trkpt lat="45.02946" lon="4.82878">
        <ele>117.30500030518</ele>
        <time>2010-11-17T13:36:29Z</time>
      </trkpt>
      <trkpt lat="45.0296" lon="4.82874">
        <ele>117.7799987793</ele>
        <time>2010-11-17T13:36:35Z</time>
      </trkpt>
      <trkpt lat="45.02963" lon="4.82873">
        <ele>117.7320022583</ele>
        <time>2010-11-17T13:36:36Z</time>
      </trkpt>
      <trkpt lat="45.0298" lon="4.82863">
        <ele>118.05100250244</ele>
        <time>2010-11-17T13:36:43Z</time>
      </trkpt>
      <trkpt lat="45.02996" lon="4.82853">
        <ele>117.87400054932</ele>
        <time>2010-11-17T13:36:49Z</time>
      </trkpt>
      <trkpt lat="45.03019" lon="4.82839">
        <ele>117.91999816894</ele>
        <time>2010-11-17T13:36:55Z</time>
      </trkpt>
      <trkpt lat="45.03045" lon="4.82824">
        <ele>118.38300323486</ele>
        <time>2010-11-17T13:37:02Z</time>
      </trkpt>
      <trkpt lat="45.03083" lon="4.82802">
        <ele>118.5830001831</ele>
        <time>2010-11-17T13:37:10Z</time>
      </trkpt>
      <trkpt lat="45.03123" lon="4.82779">
        <ele>119.2200012207</ele>
        <time>2010-11-17T13:37:18Z</time>
      </trkpt>
      <trkpt lat="45.03161" lon="4.82756">
        <ele>119.30500030518</ele>
        <time>2010-11-17T13:37:26Z</time>
      </trkpt>
      <trkpt lat="45.03195" lon="4.82737">
        <ele>119.88300323486</ele>
        <time>2010-11-17T13:37:33Z</time>
      </trkpt>
      <trkpt lat="45.03234" lon="4.82715">
        <ele>120.32499694824</ele>
        <time>2010-11-17T13:37:41Z</time>
      </trkpt>
      <trkpt lat="45.03252" lon="4.82704">
        <ele>120.53800201416</ele>
        <time>2010-11-17T13:37:45Z</time>
      </trkpt>
      <trkpt lat="45.03284" lon="4.82687">
        <ele>121.25</ele>
        <time>2010-11-17T13:37:53Z</time>
      </trkpt>
      <trkpt lat="45.03308" lon="4.82685">
        <ele>119.5950012207</ele>
        <time>2010-11-17T13:37:58Z</time>
      </trkpt>
      <trkpt lat="45.03312" lon="4.82685">
        <ele>119.06400299072</ele>
        <time>2010-11-17T13:37:59Z</time>
      </trkpt>
      <trkpt lat="45.03322" lon="4.82702">
        <ele>117.65699768066</ele>
        <time>2010-11-17T13:38:03Z</time>
      </trkpt>
      <trkpt lat="45.03333" lon="4.82709">
        <ele>117.59600067139</ele>
        <time>2010-11-17T13:38:06Z</time>
      </trkpt>
      <trkpt lat="45.03341" lon="4.82705">
        <ele>118.04399871826</ele>
        <time>2010-11-17T13:38:08Z</time>
      </trkpt>
      <trkpt lat="45.03356" lon="4.82695">
        <ele>118.62100219727</ele>
        <time>2010-11-17T13:38:12Z</time>
      </trkpt>
      <trkpt lat="45.03369" lon="4.82687">
        <ele>118.68199920654</ele>
        <time>2010-11-17T13:38:15Z</time>
      </trkpt>
      <trkpt lat="45.03407" lon="4.82666">
        <ele>119.33499908447</ele>
        <time>2010-11-17T13:38:23Z</time>
      </trkpt>
      <trkpt lat="45.03441" lon="4.82647">
        <ele>120.48500061035</ele>
        <time>2010-11-17T13:38:31Z</time>
      </trkpt>
      <trkpt lat="45.03472" lon="4.82631">
        <ele>122.44300079346</ele>
        <time>2010-11-17T13:38:38Z</time>
      </trkpt>
      <trkpt lat="45.03489" lon="4.82618">
        <ele>124.47599792481</ele>
        <time>2010-11-17T13:38:43Z</time>
      </trkpt>
      <trkpt lat="45.03497" lon="4.82617">
        <ele>124.60399627685</ele>
        <time>2010-11-17T13:38:46Z</time>
      </trkpt>
      <trkpt lat="45.03508" lon="4.82635">
        <ele>122.94100189209</ele>
        <time>2010-11-17T13:38:50Z</time>
      </trkpt>
      <trkpt lat="45.03519" lon="4.82697">
        <ele>120.53700256348</ele>
        <time>2010-11-17T13:38:58Z</time>
      </trkpt>
      <trkpt lat="45.03522" lon="4.82714">
        <ele>120.40299987793</ele>
        <time>2010-11-17T13:39:01Z</time>
      </trkpt>
      <trkpt lat="45.03537" lon="4.82725">
        <ele>120.12200164795</ele>
        <time>2010-11-17T13:39:06Z</time>
      </trkpt>
      <trkpt lat="45.03556" lon="4.82735">
        <ele>119.33599853516</ele>
        <time>2010-11-17T13:39:11Z</time>
      </trkpt>
      <trkpt lat="45.03564" lon="4.82737">
        <ele>119.02799987793</ele>
        <time>2010-11-17T13:39:16Z</time>
      </trkpt>
      <trkpt lat="45.03578" lon="4.82745">
        <ele>118.81400299072</ele>
        <time>2010-11-17T13:39:22Z</time>
      </trkpt>
      <trkpt lat="45.03596" lon="4.8275">
        <ele>118.35299682617</ele>
        <time>2010-11-17T13:39:29Z</time>
      </trkpt>
      <trkpt lat="45.03613" lon="4.82753">
        <ele>117.87000274658</ele>
        <time>2010-11-17T13:39:35Z</time>
      </trkpt>
      <trkpt lat="45.0362" lon="4.82754">
        <ele>117.83100128174</ele>
        <time>2010-11-17T13:39:38Z</time>
      </trkpt>
      <trkpt lat="45.03631" lon="4.82761">
        <ele>117.75299835205</ele>
        <time>2010-11-17T13:39:42Z</time>
      </trkpt>
      <trkpt lat="45.03643" lon="4.82762">
        <ele>117.43199920654</ele>
        <time>2010-11-17T13:39:45Z</time>
      </trkpt>
      <trkpt lat="45.03646" lon="4.8276">
        <ele>117.52899932861</ele>
        <time>2010-11-17T13:39:46Z</time>
      </trkpt>
      <trkpt lat="45.03662" lon="4.82755">
        <ele>118.07599639893</ele>
        <time>2010-11-17T13:39:50Z</time>
      </trkpt>
      <trkpt lat="45.03671" lon="4.82754">
        <ele>118.297996521</ele>
        <time>2010-11-17T13:39:52Z</time>
      </trkpt>
      <trkpt lat="45.03689" lon="4.82756">
        <ele>117.87599945068</ele>
        <time>2010-11-17T13:39:56Z</time>
      </trkpt>
      <trkpt lat="45.03698" lon="4.82757">
        <ele>117.76899719238</ele>
        <time>2010-11-17T13:39:58Z</time>
      </trkpt>
      <trkpt lat="45.03708" lon="4.82759">
        <ele>117.47599792481</ele>
        <time>2010-11-17T13:40:00Z</time>
      </trkpt>
      <trkpt lat="45.03745" lon="4.82767">
        <ele>117.55699920654</ele>
        <time>2010-11-17T13:40:08Z</time>
      </trkpt>
      <trkpt lat="45.03758" lon="4.82771">
        <ele>118.31199645996</ele>
        <time>2010-11-17T13:40:12Z</time>
      </trkpt>
      <trkpt lat="45.03772" lon="4.82775">
        <ele>118.36399841309</ele>
        <time>2010-11-17T13:40:16Z</time>
      </trkpt>
      <trkpt lat="45.0379" lon="4.8277">
        <ele>119.08899688721</ele>
        <time>2010-11-17T13:40:20Z</time>
      </trkpt>
      <trkpt lat="45.03802" lon="4.82758">
        <ele>119.50499725342</ele>
        <time>2010-11-17T13:40:23Z</time>
      </trkpt>
      <trkpt lat="45.03804" lon="4.82751">
        <ele>119.73100280762</ele>
        <time>2010-11-17T13:40:24Z</time>
      </trkpt>
      <trkpt lat="45.0381" lon="4.82739">
        <ele>120.15000152588</ele>
        <time>2010-11-17T13:40:26Z</time>
      </trkpt>
      <trkpt lat="45.03822" lon="4.82715">
        <ele>121.40699768066</ele>
        <time>2010-11-17T13:40:31Z</time>
      </trkpt>
      <trkpt lat="45.03838" lon="4.82692">
        <ele>122.46399688721</ele>
        <time>2010-11-17T13:40:36Z</time>
      </trkpt>
      <trkpt lat="45.03855" lon="4.82665">
        <ele>123.80999755859</ele>
        <time>2010-11-17T13:40:42Z</time>
      </trkpt>
      <trkpt lat="45.03858" lon="4.82654">
        <ele>124.43099975586</ele>
        <time>2010-11-17T13:40:44Z</time>
      </trkpt>
      <trkpt lat="45.03861" lon="4.82639">
        <ele>124.91000366211</ele>
        <time>2010-11-17T13:40:47Z</time>
      </trkpt>
      <trkpt lat="45.03873" lon="4.8264">
        <ele>125.41600036621</ele>
        <time>2010-11-17T13:40:51Z</time>
      </trkpt>
      <trkpt lat="45.03877" lon="4.82643">
        <ele>124.98999786377</ele>
        <time>2010-11-17T13:40:52Z</time>
      </trkpt>
      <trkpt lat="45.03906" lon="4.8266">
        <ele>123.28700256348</ele>
        <time>2010-11-17T13:40:58Z</time>
      </trkpt>
      <trkpt lat="45.03922" lon="4.82668">
        <ele>122.75499725342</ele>
        <time>2010-11-17T13:41:01Z</time>
      </trkpt>
      <trkpt lat="45.03933" lon="4.82675">
        <ele>122.65399932861</ele>
        <time>2010-11-17T13:41:03Z</time>
      </trkpt>
      <trkpt lat="45.03969" lon="4.8269">
        <ele>122.3929977417</ele>
        <time>2010-11-17T13:41:10Z</time>
      </trkpt>
      <trkpt lat="45.03992" lon="4.82702">
        <ele>121.64199829102</ele>
        <time>2010-11-17T13:41:14Z</time>
      </trkpt>
      <trkpt lat="45.04004" lon="4.8271">
        <ele>121.44599914551</ele>
        <time>2010-11-17T13:41:16Z</time>
      </trkpt>
      <trkpt lat="45.0401" lon="4.82714">
        <ele>121.422996521</ele>
        <time>2010-11-17T13:41:17Z</time>
      </trkpt>
      <trkpt lat="45.0404" lon="4.82732">
        <ele>121.40000152588</ele>
        <time>2010-11-17T13:41:22Z</time>
      </trkpt>
      <trkpt lat="45.04057" lon="4.82742">
        <ele>121.56700134277</ele>
        <time>2010-11-17T13:41:25Z</time>
      </trkpt>
      <trkpt lat="45.04062" lon="4.82745">
        <ele>121.58100128174</ele>
        <time>2010-11-17T13:41:26Z</time>
      </trkpt>
      <trkpt lat="45.04098" lon="4.82764">
        <ele>121.24900054932</ele>
        <time>2010-11-17T13:41:33Z</time>
      </trkpt>
      <trkpt lat="45.04129" lon="4.82775">
        <ele>121.08499908447</ele>
        <time>2010-11-17T13:41:39Z</time>
      </trkpt>
      <trkpt lat="45.0415" lon="4.82782">
        <ele>121.1370010376</ele>
        <time>2010-11-17T13:41:43Z</time>
      </trkpt>
      <trkpt lat="45.04171" lon="4.82775">
        <ele>121.92199707031</ele>
        <time>2010-11-17T13:41:47Z</time>
      </trkpt>
      <trkpt lat="45.04185" lon="4.82757">
        <ele>123.46800231934</ele>
        <time>2010-11-17T13:41:51Z</time>
      </trkpt>
      <trkpt lat="45.04189" lon="4.82755">
        <ele>123.82099914551</ele>
        <time>2010-11-17T13:41:52Z</time>
      </trkpt>
      <trkpt lat="45.04226" lon="4.8275">
        <ele>125.71800231934</ele>
        <time>2010-11-17T13:42:01Z</time>
      </trkpt>
      <trkpt lat="45.0425" lon="4.82745">
        <ele>125.11799621582</ele>
        <time>2010-11-17T13:42:07Z</time>
      </trkpt>
      <trkpt lat="45.04261" lon="4.82747">
        <ele>124.12200164795</ele>
        <time>2010-11-17T13:42:11Z</time>
      </trkpt>
      <trkpt lat="45.04266" lon="4.82751">
        <ele>123.60299682617</ele>
        <time>2010-11-17T13:42:13Z</time>
      </trkpt>
      <trkpt lat="45.04279" lon="4.82739">
        <ele>122.61799621582</ele>
        <time>2010-11-17T13:42:17Z</time>
      </trkpt>
      <trkpt lat="45.04311" lon="4.82722">
        <ele>118.48500061035</ele>
        <time>2010-11-17T13:42:22Z</time>
      </trkpt>
      <trkpt lat="45.04324" lon="4.82732">
        <ele>117.66000366211</ele>
        <time>2010-11-17T13:42:24Z</time>
      </trkpt>
      <trkpt lat="45.0436" lon="4.82772">
        <ele>121.00499725342</ele>
        <time>2010-11-17T13:42:31Z</time>
      </trkpt>
      <trkpt lat="45.04369" lon="4.82782">
        <ele>120.94699859619</ele>
        <time>2010-11-17T13:42:33Z</time>
      </trkpt>
      <trkpt lat="45.04402" lon="4.82818">
        <ele>119.69599914551</ele>
        <time>2010-11-17T13:42:40Z</time>
      </trkpt>
      <trkpt lat="45.04432" lon="4.82846">
        <ele>119.18399810791</ele>
        <time>2010-11-17T13:42:46Z</time>
      </trkpt>
      <trkpt lat="45.04459" lon="4.82868">
        <ele>118.35199737549</ele>
        <time>2010-11-17T13:42:51Z</time>
      </trkpt>
      <trkpt lat="45.04497" lon="4.82879">
        <ele>117.57599639893</ele>
        <time>2010-11-17T13:42:57Z</time>
      </trkpt>
      <trkpt lat="45.04541" lon="4.82885">
        <ele>117.83999633789</ele>
        <time>2010-11-17T13:43:04Z</time>
      </trkpt>
      <trkpt lat="45.0458" lon="4.8289">
        <ele>118.125</ele>
        <time>2010-11-17T13:43:11Z</time>
      </trkpt>
      <trkpt lat="45.04631" lon="4.82897">
        <ele>118.93599700928</ele>
        <time>2010-11-17T13:43:20Z</time>
      </trkpt>
      <trkpt lat="45.04668" lon="4.82902">
        <ele>119.27799987793</ele>
        <time>2010-11-17T13:43:27Z</time>
      </trkpt>
      <trkpt lat="45.04683" lon="4.82906">
        <ele>118.91300201416</ele>
        <time>2010-11-17T13:43:30Z</time>
      </trkpt>
      <trkpt lat="45.04722" lon="4.82913">
        <ele>118.74500274658</ele>
        <time>2010-11-17T13:43:37Z</time>
      </trkpt>
      <trkpt lat="45.04752" lon="4.82918">
        <ele>119.55699920654</ele>
        <time>2010-11-17T13:43:43Z</time>
      </trkpt>
      <trkpt lat="45.04793" lon="4.82929">
        <ele>119.08599853516</ele>
        <time>2010-11-17T13:43:51Z</time>
      </trkpt>
      <trkpt lat="45.04832" lon="4.82937">
        <ele>118.52899932861</ele>
        <time>2010-11-17T13:43:58Z</time>
      </trkpt>
      <trkpt lat="45.04879" lon="4.82949">
        <ele>117.32199859619</ele>
        <time>2010-11-17T13:44:06Z</time>
      </trkpt>
      <trkpt lat="45.04926" lon="4.82962">
        <ele>116.6669998169</ele>
        <time>2010-11-17T13:44:14Z</time>
      </trkpt>
      <trkpt lat="45.04966" lon="4.82972">
        <ele>116.62799835205</ele>
        <time>2010-11-17T13:44:21Z</time>
      </trkpt>
      <trkpt lat="45.04984" lon="4.82978">
        <ele>116.43499755859</ele>
        <time>2010-11-17T13:44:24Z</time>
      </trkpt>
      <trkpt lat="45.0503" lon="4.82991">
        <ele>116.08999633789</ele>
        <time>2010-11-17T13:44:31Z</time>
      </trkpt>
      <trkpt lat="45.05056" lon="4.82998">
        <ele>116.63899993897</ele>
        <time>2010-11-17T13:44:35Z</time>
      </trkpt>
      <trkpt lat="45.0509" lon="4.83009">
        <ele>116.65399932861</ele>
        <time>2010-11-17T13:44:41Z</time>
      </trkpt>
      <trkpt lat="45.05103" lon="4.83013">
        <ele>115.79599761963</ele>
        <time>2010-11-17T13:44:43Z</time>
      </trkpt>
      <trkpt lat="45.05147" lon="4.83028">
        <ele>113.24199676514</ele>
        <time>2010-11-17T13:44:49Z</time>
      </trkpt>
      <trkpt lat="45.05201" lon="4.83047">
        <ele>112.04599761963</ele>
        <time>2010-11-17T13:44:56Z</time>
      </trkpt>
      <trkpt lat="45.05242" lon="4.83061">
        <ele>112.09700012207</ele>
        <time>2010-11-17T13:45:02Z</time>
      </trkpt>
      <trkpt lat="45.05253" lon="4.83066">
        <ele>111.96800231934</ele>
        <time>2010-11-17T13:45:04Z</time>
      </trkpt>
      <trkpt lat="45.05272" lon="4.83073">
        <ele>112.05200195312</ele>
        <time>2010-11-17T13:45:08Z</time>
      </trkpt>
      <trkpt lat="45.0531" lon="4.83094">
        <ele>112.02600097656</ele>
        <time>2010-11-17T13:45:15Z</time>
      </trkpt>
      <trkpt lat="45.05336" lon="4.83107">
        <ele>113.33000183106</ele>
        <time>2010-11-17T13:45:20Z</time>
      </trkpt>
      <trkpt lat="45.05368" lon="4.83122">
        <ele>114.8690032959</ele>
        <time>2010-11-17T13:45:27Z</time>
      </trkpt>
      <trkpt lat="45.05403" lon="4.83139">
        <ele>114.60900115967</ele>
        <time>2010-11-17T13:45:34Z</time>
      </trkpt>
      <trkpt lat="45.05439" lon="4.83155">
        <ele>114.76399993897</ele>
        <time>2010-11-17T13:45:41Z</time>
      </trkpt>
      <trkpt lat="45.0547" lon="4.83164">
        <ele>115.23000335693</ele>
        <time>2010-11-17T13:45:47Z</time>
      </trkpt>
      <trkpt lat="45.05475" lon="4.83166">
        <ele>115.43299865723</ele>
        <time>2010-11-17T13:45:48Z</time>
      </trkpt>
      <trkpt lat="45.05517" lon="4.83185">
        <ele>116.38400268555</ele>
        <time>2010-11-17T13:45:57Z</time>
      </trkpt>
      <trkpt lat="45.05542" lon="4.83198">
        <ele>115.8690032959</ele>
        <time>2010-11-17T13:46:02Z</time>
      </trkpt>
      <trkpt lat="45.05558" lon="4.83205">
        <ele>115.43199920654</ele>
        <time>2010-11-17T13:46:05Z</time>
      </trkpt>
      <trkpt lat="45.05589" lon="4.83212">
        <ele>115.40899658203</ele>
        <time>2010-11-17T13:46:11Z</time>
      </trkpt>
      <trkpt lat="45.05603" lon="4.83209">
        <ele>116.09100341797</ele>
        <time>2010-11-17T13:46:15Z</time>
      </trkpt>
      <trkpt lat="45.05613" lon="4.83209">
        <ele>116.14199829102</ele>
        <time>2010-11-17T13:46:19Z</time>
      </trkpt>
      <trkpt lat="45.05617" lon="4.83211">
        <ele>116.05799865723</ele>
        <time>2010-11-17T13:46:20Z</time>
      </trkpt>
      <trkpt lat="45.05626" lon="4.83218">
        <ele>115.91400146484</ele>
        <time>2010-11-17T13:46:22Z</time>
      </trkpt>
      <trkpt lat="45.0565" lon="4.83226">
        <ele>116.15899658203</ele>
        <time>2010-11-17T13:46:26Z</time>
      </trkpt>
      <trkpt lat="45.05695" lon="4.83249">
        <ele>117.69000244141</ele>
        <time>2010-11-17T13:46:35Z</time>
      </trkpt>
      <trkpt lat="45.05707" lon="4.83256">
        <ele>118.39499664307</ele>
        <time>2010-11-17T13:46:38Z</time>
      </trkpt>
      <trkpt lat="45.05729" lon="4.83267">
        <ele>119.46199798584</ele>
        <time>2010-11-17T13:46:44Z</time>
      </trkpt>
      <trkpt lat="45.05738" lon="4.8327">
        <ele>120.28099822998</ele>
        <time>2010-11-17T13:46:48Z</time>
      </trkpt>
      <trkpt lat="45.05755" lon="4.83275">
        <ele>120.78099822998</ele>
        <time>2010-11-17T13:46:54Z</time>
      </trkpt>
      <trkpt lat="45.05775" lon="4.83283">
        <ele>120.44400024414</ele>
        <time>2010-11-17T13:47:01Z</time>
      </trkpt>
      <trkpt lat="45.05779" lon="4.83285">
        <ele>120.18599700928</ele>
        <time>2010-11-17T13:47:02Z</time>
      </trkpt>
      <trkpt lat="45.05809" lon="4.83306">
        <ele>118.78800201416</ele>
        <time>2010-11-17T13:47:09Z</time>
      </trkpt>
      <trkpt lat="45.05846" lon="4.8333">
        <ele>116.9940032959</ele>
        <time>2010-11-17T13:47:16Z</time>
      </trkpt>
      <trkpt lat="45.05877" lon="4.83345">
        <ele>115.88999938965</ele>
        <time>2010-11-17T13:47:21Z</time>
      </trkpt>
      <trkpt lat="45.05901" lon="4.83356">
        <ele>114.98000335693</ele>
        <time>2010-11-17T13:47:25Z</time>
      </trkpt>
      <trkpt lat="45.05939" lon="4.83373">
        <ele>113.92700195312</ele>
        <time>2010-11-17T13:47:31Z</time>
      </trkpt>
      <trkpt lat="45.05982" lon="4.83387">
        <ele>113.73300170898</ele>
        <time>2010-11-17T13:47:38Z</time>
      </trkpt>
      <trkpt lat="45.06044" lon="4.83404">
        <ele>113.41899871826</ele>
        <time>2010-11-17T13:47:48Z</time>
      </trkpt>
      <trkpt lat="45.06087" lon="4.83413">
        <ele>112.75800323486</ele>
        <time>2010-11-17T13:47:55Z</time>
      </trkpt>
      <trkpt lat="45.06126" lon="4.83417">
        <ele>112.72899627685</ele>
        <time>2010-11-17T13:48:02Z</time>
      </trkpt>
      <trkpt lat="45.06167" lon="4.83418">
        <ele>112.70300292969</ele>
        <time>2010-11-17T13:48:09Z</time>
      </trkpt>
      <trkpt lat="45.06205" lon="4.83417">
        <ele>113.125</ele>
        <time>2010-11-17T13:48:16Z</time>
      </trkpt>
      <trkpt lat="45.0623" lon="4.83417">
        <ele>112.93199920654</ele>
        <time>2010-11-17T13:48:21Z</time>
      </trkpt>
      <trkpt lat="45.06253" lon="4.83416">
        <ele>113.25499725342</ele>
        <time>2010-11-17T13:48:26Z</time>
      </trkpt>
      <trkpt lat="45.0628" lon="4.83416">
        <ele>114.19699859619</ele>
        <time>2010-11-17T13:48:32Z</time>
      </trkpt>
      <trkpt lat="45.06298" lon="4.83414">
        <ele>114.77799987793</ele>
        <time>2010-11-17T13:48:36Z</time>
      </trkpt>
      <trkpt lat="45.06342" lon="4.83405">
        <ele>115.01999664307</ele>
        <time>2010-11-17T13:48:45Z</time>
      </trkpt>
      <trkpt lat="45.06353" lon="4.83403">
        <ele>115.08999633789</ele>
        <time>2010-11-17T13:48:47Z</time>
      </trkpt>
      <trkpt lat="45.06385" lon="4.83386">
        <ele>117.82900238037</ele>
        <time>2010-11-17T13:48:55Z</time>
      </trkpt>
      <trkpt lat="45.06394" lon="4.8338">
        <ele>119.13800048828</ele>
        <time>2010-11-17T13:49:00Z</time>
      </trkpt>
      <trkpt lat="45.06395" lon="4.8338">
        <ele>119.43399810791</ele>
        <time>2010-11-17T13:49:02Z</time>
      </trkpt>
      <trkpt lat="45.06402" lon="4.83388">
        <ele>119.53500366211</ele>
        <time>2010-11-17T13:50:28Z</time>
      </trkpt>
      <trkpt lat="45.06403" lon="4.83387">
        <ele>119.625</ele>
        <time>2010-11-17T13:50:29Z</time>
      </trkpt>
      <trkpt lat="45.06405" lon="4.83386">
        <ele>119.84100341797</ele>
        <time>2010-11-17T13:50:31Z</time>
      </trkpt>
      <trkpt lat="45.06416" lon="4.83372">
        <ele>120.81300354004</ele>
        <time>2010-11-17T13:50:37Z</time>
      </trkpt>
      <trkpt lat="45.06431" lon="4.83363">
        <ele>121.59100341797</ele>
        <time>2010-11-17T13:50:42Z</time>
      </trkpt>
      <trkpt lat="45.06443" lon="4.83368">
        <ele>122.077003479</ele>
        <time>2010-11-17T13:50:47Z</time>
      </trkpt>
      <trkpt lat="45.06447" lon="4.8337">
        <ele>122.03600311279</ele>
        <time>2010-11-17T13:50:49Z</time>
      </trkpt>
      <trkpt lat="45.06449" lon="4.83372">
        <ele>122.05400085449</ele>
        <time>2010-11-17T13:50:50Z</time>
      </trkpt>
      <trkpt lat="45.0646" lon="4.83381">
        <ele>121.54100036621</ele>
        <time>2010-11-17T13:50:55Z</time>
      </trkpt>
      <trkpt lat="45.06467" lon="4.83384">
        <ele>120.82399749756</ele>
        <time>2010-11-17T13:50:57Z</time>
      </trkpt>
      <trkpt lat="45.06473" lon="4.83385">
        <ele>120.2679977417</ele>
        <time>2010-11-17T13:50:58Z</time>
      </trkpt>
      <trkpt lat="45.06483" lon="4.83388">
        <ele>119.27500152588</ele>
        <time>2010-11-17T13:51:00Z</time>
      </trkpt>
      <trkpt lat="45.06503" lon="4.834">
        <ele>117.8870010376</ele>
        <time>2010-11-17T13:51:04Z</time>
      </trkpt>
      <trkpt lat="45.06514" lon="4.8341">
        <ele>118.35800170898</ele>
        <time>2010-11-17T13:51:08Z</time>
      </trkpt>
      <trkpt lat="45.06526" lon="4.83426">
        <ele>117.81099700928</ele>
        <time>2010-11-17T13:51:13Z</time>
      </trkpt>
      <trkpt lat="45.06534" lon="4.83439">
        <ele>116.96800231934</ele>
        <time>2010-11-17T13:51:17Z</time>
      </trkpt>
      <trkpt lat="45.06539" lon="4.83449">
        <ele>116.62899780273</ele>
        <time>2010-11-17T13:51:22Z</time>
      </trkpt>
      <trkpt lat="45.06544" lon="4.8346">
        <ele>115.95099639893</ele>
        <time>2010-11-17T13:51:29Z</time>
      </trkpt>
      <trkpt lat="45.06544" lon="4.8346">
        <ele>115.91899871826</ele>
        <time>2010-11-17T13:51:30Z</time>
      </trkpt>
      <trkpt lat="45.06551" lon="4.83459">
        <ele>115.66899871826</ele>
        <time>2010-11-17T13:52:11Z</time>
      </trkpt>
      <trkpt lat="45.06549" lon="4.83455">
        <ele>115.80300140381</ele>
        <time>2010-11-17T13:52:13Z</time>
      </trkpt>
      <trkpt lat="45.06541" lon="4.83439">
        <ele>116.577003479</ele>
        <time>2010-11-17T13:52:18Z</time>
      </trkpt>
      <trkpt lat="45.06535" lon="4.8343">
        <ele>117.02400207519</ele>
        <time>2010-11-17T13:52:20Z</time>
      </trkpt>
      <trkpt lat="45.06524" lon="4.83405">
        <ele>118.04000091553</ele>
        <time>2010-11-17T13:52:25Z</time>
      </trkpt>
      <trkpt lat="45.06524" lon="4.83399">
        <ele>118.3450012207</ele>
        <time>2010-11-17T13:52:26Z</time>
      </trkpt>
      <trkpt lat="45.06531" lon="4.83373">
        <ele>119.79599761963</ele>
        <time>2010-11-17T13:52:32Z</time>
      </trkpt>
      <trkpt lat="45.06548" lon="4.8336">
        <ele>119.23899841309</ele>
        <time>2010-11-17T13:52:37Z</time>
      </trkpt>
      <trkpt lat="45.06573" lon="4.83343">
        <ele>118.42199707031</ele>
        <time>2010-11-17T13:52:43Z</time>
      </trkpt>
      <trkpt lat="45.06592" lon="4.83328">
        <ele>118.07599639893</ele>
        <time>2010-11-17T13:52:47Z</time>
      </trkpt>
      <trkpt lat="45.06607" lon="4.83307">
        <ele>117.83699798584</ele>
        <time>2010-11-17T13:52:52Z</time>
      </trkpt>
      <trkpt lat="45.06616" lon="4.83274">
        <ele>118.74099731445</ele>
        <time>2010-11-17T13:52:58Z</time>
      </trkpt>
      <trkpt lat="45.06621" lon="4.83257">
        <ele>119.09400177002</ele>
        <time>2010-11-17T13:53:01Z</time>
      </trkpt>
      <trkpt lat="45.06624" lon="4.83247">
        <ele>119.30200195312</ele>
        <time>2010-11-17T13:53:03Z</time>
      </trkpt>
      <trkpt lat="45.06628" lon="4.83236">
        <ele>119.58699798584</ele>
        <time>2010-11-17T13:53:05Z</time>
      </trkpt>
      <trkpt lat="45.0663" lon="4.83231">
        <ele>119.75</ele>
        <time>2010-11-17T13:53:06Z</time>
      </trkpt>
      <trkpt lat="45.06635" lon="4.83221">
        <ele>119.98600006103</ele>
        <time>2010-11-17T13:53:08Z</time>
      </trkpt>
      <trkpt lat="45.06638" lon="4.83216">
        <ele>120.29299926758</ele>
        <time>2010-11-17T13:53:09Z</time>
      </trkpt>
      <trkpt lat="45.0665" lon="4.83201">
        <ele>121.05400085449</ele>
        <time>2010-11-17T13:53:13Z</time>
      </trkpt>
      <trkpt lat="45.06657" lon="4.83193">
        <ele>121.40100097656</ele>
        <time>2010-11-17T13:53:15Z</time>
      </trkpt>
      <trkpt lat="45.06674" lon="4.83163">
        <ele>122.24600219727</ele>
        <time>2010-11-17T13:53:22Z</time>
      </trkpt>
      <trkpt lat="45.06677" lon="4.83159">
        <ele>122.12400054932</ele>
        <time>2010-11-17T13:53:23Z</time>
      </trkpt>
      <trkpt lat="45.06704" lon="4.83155">
        <ele>121.28099822998</ele>
        <time>2010-11-17T13:53:29Z</time>
      </trkpt>
      <trkpt lat="45.06721" lon="4.83147">
        <ele>120.81800079346</ele>
        <time>2010-11-17T13:53:33Z</time>
      </trkpt>
      <trkpt lat="45.06725" lon="4.83143">
        <ele>120.66999816894</ele>
        <time>2010-11-17T13:53:34Z</time>
      </trkpt>
      <trkpt lat="45.06733" lon="4.83127">
        <ele>120.56900024414</ele>
        <time>2010-11-17T13:53:37Z</time>
      </trkpt>
      <trkpt lat="45.06752" lon="4.83094">
        <ele>120.56900024414</ele>
        <time>2010-11-17T13:53:43Z</time>
      </trkpt>
      <trkpt lat="45.0677" lon="4.83078">
        <ele>118.75099945068</ele>
        <time>2010-11-17T13:53:47Z</time>
      </trkpt>
      <trkpt lat="45.0678" lon="4.83072">
        <ele>118.79000091553</ele>
        <time>2010-11-17T13:53:49Z</time>
      </trkpt>
      <trkpt lat="45.068" lon="4.83076">
        <ele>118.39199829102</ele>
        <time>2010-11-17T13:53:53Z</time>
      </trkpt>
      <trkpt lat="45.06807" lon="4.83084">
        <ele>117.75299835205</ele>
        <time>2010-11-17T13:53:56Z</time>
      </trkpt>
      <trkpt lat="45.06816" lon="4.83073">
        <ele>117.03399658203</ele>
        <time>2010-11-17T13:54:01Z</time>
      </trkpt>
      <trkpt lat="45.06821" lon="4.83054">
        <ele>116.18399810791</ele>
        <time>2010-11-17T13:54:05Z</time>
      </trkpt>
      <trkpt lat="45.0684" lon="4.83022">
        <ele>114.80599975586</ele>
        <time>2010-11-17T13:54:11Z</time>
      </trkpt>
      <trkpt lat="45.06852" lon="4.83008">
        <ele>114.3929977417</ele>
        <time>2010-11-17T13:54:14Z</time>
      </trkpt>
      <trkpt lat="45.06863" lon="4.82997">
        <ele>114.54900360107</ele>
        <time>2010-11-17T13:54:18Z</time>
      </trkpt>
      <trkpt lat="45.06876" lon="4.83006">
        <ele>114.48699951172</ele>
        <time>2010-11-17T13:54:22Z</time>
      </trkpt>
      <trkpt lat="45.06888" lon="4.83013">
        <ele>114.55300140381</ele>
        <time>2010-11-17T13:54:26Z</time>
      </trkpt>
      <trkpt lat="45.06899" lon="4.83003">
        <ele>114.52600097656</ele>
        <time>2010-11-17T13:54:30Z</time>
      </trkpt>
      <trkpt lat="45.06903" lon="4.82994">
        <ele>114.51499938965</ele>
        <time>2010-11-17T13:54:32Z</time>
      </trkpt>
      <trkpt lat="45.06915" lon="4.82964">
        <ele>114.45300292969</ele>
        <time>2010-11-17T13:54:39Z</time>
      </trkpt>
      <trkpt lat="45.06919" lon="4.82957">
        <ele>114.47899627685</ele>
        <time>2010-11-17T13:54:41Z</time>
      </trkpt>
      <trkpt lat="45.06932" lon="4.82936">
        <ele>114.53900146484</ele>
        <time>2010-11-17T13:54:47Z</time>
      </trkpt>
      <trkpt lat="45.06944" lon="4.82916">
        <ele>114.30100250244</ele>
        <time>2010-11-17T13:54:52Z</time>
      </trkpt>
      <trkpt lat="45.06961" lon="4.8289">
        <ele>114.37000274658</ele>
        <time>2010-11-17T13:54:58Z</time>
      </trkpt>
      <trkpt lat="45.06988" lon="4.82854">
        <ele>114.29900360107</ele>
        <time>2010-11-17T13:55:06Z</time>
      </trkpt>
      <trkpt lat="45.07017" lon="4.82812">
        <ele>114.42700195312</ele>
        <time>2010-11-17T13:55:14Z</time>
      </trkpt>
      <trkpt lat="45.07047" lon="4.8277">
        <ele>114.88899993897</ele>
        <time>2010-11-17T13:55:22Z</time>
      </trkpt>
      <trkpt lat="45.07068" lon="4.82733">
        <ele>114.8870010376</ele>
        <time>2010-11-17T13:55:28Z</time>
      </trkpt>
      <trkpt lat="45.07085" lon="4.82692">
        <ele>114.75099945068</ele>
        <time>2010-11-17T13:55:34Z</time>
      </trkpt>
      <trkpt lat="45.07105" lon="4.82632">
        <ele>114.47399902344</ele>
        <time>2010-11-17T13:55:42Z</time>
      </trkpt>
      <trkpt lat="45.07134" lon="4.82546">
        <ele>114.16500091553</ele>
        <time>2010-11-17T13:55:53Z</time>
      </trkpt>
      <trkpt lat="45.0716" lon="4.8247">
        <ele>114.78500366211</ele>
        <time>2010-11-17T13:56:03Z</time>
      </trkpt>
      <trkpt lat="45.0718" lon="4.8241">
        <ele>115.11799621582</ele>
        <time>2010-11-17T13:56:11Z</time>
      </trkpt>
      <trkpt lat="45.07205" lon="4.82341">
        <ele>115.74299621582</ele>
        <time>2010-11-17T13:56:20Z</time>
      </trkpt>
      <trkpt lat="45.07225" lon="4.82282">
        <ele>116.85399627685</ele>
        <time>2010-11-17T13:56:28Z</time>
      </trkpt>
      <trkpt lat="45.07243" lon="4.82228">
        <ele>118.31300354004</ele>
        <time>2010-11-17T13:56:36Z</time>
      </trkpt>
      <trkpt lat="45.07258" lon="4.82209">
        <ele>118.17400360107</ele>
        <time>2010-11-17T13:56:40Z</time>
      </trkpt>
      <trkpt lat="45.07263" lon="4.82187">
        <ele>118.09899902344</ele>
        <time>2010-11-17T13:56:43Z</time>
      </trkpt>
      <trkpt lat="45.07266" lon="4.82156">
        <ele>117.97799682617</ele>
        <time>2010-11-17T13:56:47Z</time>
      </trkpt>
      <trkpt lat="45.07288" lon="4.8208">
        <ele>117.83699798584</ele>
        <time>2010-11-17T13:56:57Z</time>
      </trkpt>
      <trkpt lat="45.07312" lon="4.82003">
        <ele>118.00800323486</ele>
        <time>2010-11-17T13:57:07Z</time>
      </trkpt>
      <trkpt lat="45.07334" lon="4.8193">
        <ele>117.72499847412</ele>
        <time>2010-11-17T13:57:16Z</time>
      </trkpt>
      <trkpt lat="45.07356" lon="4.81839">
        <ele>117.79499816894</ele>
        <time>2010-11-17T13:57:27Z</time>
      </trkpt>
      <trkpt lat="45.07372" lon="4.81793">
        <ele>117.91999816894</ele>
        <time>2010-11-17T13:57:33Z</time>
      </trkpt>
      <trkpt lat="45.07396" lon="4.81755">
        <ele>118.36799621582</ele>
        <time>2010-11-17T13:57:39Z</time>
      </trkpt>
      <trkpt lat="45.07426" lon="4.81727">
        <ele>118.68199920654</ele>
        <time>2010-11-17T13:57:45Z</time>
      </trkpt>
      <trkpt lat="45.07492" lon="4.81681">
        <ele>118.98100280762</ele>
        <time>2010-11-17T13:57:57Z</time>
      </trkpt>
      <trkpt lat="45.07559" lon="4.81633">
        <ele>117.2620010376</ele>
        <time>2010-11-17T13:58:09Z</time>
      </trkpt>
      <trkpt lat="45.07597" lon="4.81609">
        <ele>115.83999633789</ele>
        <time>2010-11-17T13:58:15Z</time>
      </trkpt>
      <trkpt lat="45.07627" lon="4.81591">
        <ele>115.69300079346</ele>
        <time>2010-11-17T13:58:20Z</time>
      </trkpt>
      <trkpt lat="45.07651" lon="4.81594">
        <ele>115.38200378418</ele>
        <time>2010-11-17T13:58:24Z</time>
      </trkpt>
      <trkpt lat="45.07661" lon="4.81617">
        <ele>115.25299835205</ele>
        <time>2010-11-17T13:58:27Z</time>
      </trkpt>
      <trkpt lat="45.07667" lon="4.81642">
        <ele>114.65000152588</ele>
        <time>2010-11-17T13:58:30Z</time>
      </trkpt>
      <trkpt lat="45.07669" lon="4.81659">
        <ele>114.3809967041</ele>
        <time>2010-11-17T13:58:32Z</time>
      </trkpt>
      <trkpt lat="45.07669" lon="4.81693">
        <ele>114.20099639893</ele>
        <time>2010-11-17T13:58:36Z</time>
      </trkpt>
      <trkpt lat="45.07661" lon="4.81743">
        <ele>114.06099700928</ele>
        <time>2010-11-17T13:58:42Z</time>
      </trkpt>
      <trkpt lat="45.0766" lon="4.81751">
        <ele>114.04399871826</ele>
        <time>2010-11-17T13:58:43Z</time>
      </trkpt>
      <trkpt lat="45.07656" lon="4.81783">
        <ele>113.87300109863</ele>
        <time>2010-11-17T13:58:47Z</time>
      </trkpt>
      <trkpt lat="45.0766" lon="4.81822">
        <ele>113.8929977417</ele>
        <time>2010-11-17T13:58:52Z</time>
      </trkpt>
      <trkpt lat="45.07669" lon="4.81895">
        <ele>113.81900024414</ele>
        <time>2010-11-17T13:59:01Z</time>
      </trkpt>
      <trkpt lat="45.07677" lon="4.81971">
        <ele>113.45999908447</ele>
        <time>2010-11-17T13:59:10Z</time>
      </trkpt>
      <trkpt lat="45.07684" lon="4.82031">
        <ele>113.62200164795</ele>
        <time>2010-11-17T13:59:17Z</time>
      </trkpt>
      <trkpt lat="45.07698" lon="4.82119">
        <ele>113.79900360107</ele>
        <time>2010-11-17T13:59:27Z</time>
      </trkpt>
      <trkpt lat="45.07711" lon="4.82186">
        <ele>113.98899841309</ele>
        <time>2010-11-17T13:59:35Z</time>
      </trkpt>
      <trkpt lat="45.07712" lon="4.82201">
        <ele>114.04699707031</ele>
        <time>2010-11-17T13:59:37Z</time>
      </trkpt>
      <trkpt lat="45.07723" lon="4.82226">
        <ele>114.02700042725</ele>
        <time>2010-11-17T13:59:41Z</time>
      </trkpt>
      <trkpt lat="45.07741" lon="4.82228">
        <ele>113.78299713135</ele>
        <time>2010-11-17T13:59:44Z</time>
      </trkpt>
      <trkpt lat="45.07779" lon="4.82226">
        <ele>113.68800354004</ele>
        <time>2010-11-17T13:59:50Z</time>
      </trkpt>
      <trkpt lat="45.07835" lon="4.82225">
        <ele>113.57800292969</ele>
        <time>2010-11-17T13:59:59Z</time>
      </trkpt>
      <trkpt lat="45.07911" lon="4.82228">
        <ele>113.50700378418</ele>
        <time>2010-11-17T14:00:11Z</time>
      </trkpt>
      <trkpt lat="45.07952" lon="4.8224">
        <ele>114.63400268555</ele>
        <time>2010-11-17T14:00:18Z</time>
      </trkpt>
      <trkpt lat="45.08001" lon="4.82257">
        <ele>114.08899688721</ele>
        <time>2010-11-17T14:00:26Z</time>
      </trkpt>
      <trkpt lat="45.08066" lon="4.82284">
        <ele>114.71299743652</ele>
        <time>2010-11-17T14:00:37Z</time>
      </trkpt>
      <trkpt lat="45.08104" lon="4.82301">
        <ele>114.93499755859</ele>
        <time>2010-11-17T14:00:44Z</time>
      </trkpt>
      <trkpt lat="45.08154" lon="4.82319">
        <ele>113.98000335693</ele>
        <time>2010-11-17T14:00:52Z</time>
      </trkpt>
      <trkpt lat="45.0821" lon="4.82335">
        <ele>114.17800140381</ele>
        <time>2010-11-17T14:01:01Z</time>
      </trkpt>
      <trkpt lat="45.08267" lon="4.8235">
        <ele>114.51999664307</ele>
        <time>2010-11-17T14:01:10Z</time>
      </trkpt>
      <trkpt lat="45.08306" lon="4.82359">
        <ele>114.58399963379</ele>
        <time>2010-11-17T14:01:16Z</time>
      </trkpt>
      <trkpt lat="45.08319" lon="4.82362">
        <ele>114.43099975586</ele>
        <time>2010-11-17T14:01:18Z</time>
      </trkpt>
      <trkpt lat="45.08345" lon="4.82368">
        <ele>114.38999938965</ele>
        <time>2010-11-17T14:01:22Z</time>
      </trkpt>
      <trkpt lat="45.08352" lon="4.82369">
        <ele>114.3629989624</ele>
        <time>2010-11-17T14:01:23Z</time>
      </trkpt>
      <trkpt lat="45.08424" lon="4.82389">
        <ele>114.08699798584</ele>
        <time>2010-11-17T14:01:34Z</time>
      </trkpt>
      <trkpt lat="45.08467" lon="4.82402">
        <ele>114.68699645996</ele>
        <time>2010-11-17T14:01:41Z</time>
      </trkpt>
      <trkpt lat="45.0847" lon="4.82419">
        <ele>114.31500244141</ele>
        <time>2010-11-17T14:01:45Z</time>
      </trkpt>
      <trkpt lat="45.08468" lon="4.82464">
        <ele>114.33999633789</ele>
        <time>2010-11-17T14:01:52Z</time>
      </trkpt>
      <trkpt lat="45.08467" lon="4.82523">
        <ele>113.7620010376</ele>
        <time>2010-11-17T14:02:00Z</time>
      </trkpt>
      <trkpt lat="45.08466" lon="4.82598">
        <ele>113.26399993897</ele>
        <time>2010-11-17T14:02:09Z</time>
      </trkpt>
      <trkpt lat="45.08464" lon="4.82657">
        <ele>113.83200073242</ele>
        <time>2010-11-17T14:02:16Z</time>
      </trkpt>
      <trkpt lat="45.08462" lon="4.82753">
        <ele>114.34700012207</ele>
        <time>2010-11-17T14:02:27Z</time>
      </trkpt>
      <trkpt lat="45.0846" lon="4.82822">
        <ele>114.61799621582</ele>
        <time>2010-11-17T14:02:35Z</time>
      </trkpt>
      <trkpt lat="45.0846" lon="4.82829">
        <ele>114.68499755859</ele>
        <time>2010-11-17T14:02:36Z</time>
      </trkpt>
      <trkpt lat="45.08458" lon="4.8285">
        <ele>114.7679977417</ele>
        <time>2010-11-17T14:02:39Z</time>
      </trkpt>
      <trkpt lat="45.08467" lon="4.82875">
        <ele>114.97799682617</ele>
        <time>2010-11-17T14:02:43Z</time>
      </trkpt>
      <trkpt lat="45.08482" lon="4.82881">
        <ele>115.23400115967</ele>
        <time>2010-11-17T14:02:46Z</time>
      </trkpt>
      <trkpt lat="45.08487" lon="4.82882">
        <ele>115.34999847412</ele>
        <time>2010-11-17T14:02:47Z</time>
      </trkpt>
      <trkpt lat="45.08502" lon="4.82886">
        <ele>115.42700195312</ele>
        <time>2010-11-17T14:02:50Z</time>
      </trkpt>
      <trkpt lat="45.08536" lon="4.82893">
        <ele>115.42600250244</ele>
        <time>2010-11-17T14:02:56Z</time>
      </trkpt>
      <trkpt lat="45.08542" lon="4.82895">
        <ele>115.45099639893</ele>
        <time>2010-11-17T14:02:57Z</time>
      </trkpt>
      <trkpt lat="45.08582" lon="4.82899">
        <ele>115.00299835205</ele>
        <time>2010-11-17T14:03:03Z</time>
      </trkpt>
      <trkpt lat="45.08621" lon="4.82908">
        <ele>114.84600067139</ele>
        <time>2010-11-17T14:03:09Z</time>
      </trkpt>
      <trkpt lat="45.08648" lon="4.82904">
        <ele>114.44100189209</ele>
        <time>2010-11-17T14:03:13Z</time>
      </trkpt>
      <trkpt lat="45.08667" lon="4.82893">
        <ele>114.60500335693</ele>
        <time>2010-11-17T14:03:16Z</time>
      </trkpt>
      <trkpt lat="45.08698" lon="4.82861">
        <ele>114.51899719238</ele>
        <time>2010-11-17T14:03:22Z</time>
      </trkpt>
      <trkpt lat="45.08741" lon="4.82831">
        <ele>114.05599975586</ele>
        <time>2010-11-17T14:03:29Z</time>
      </trkpt>
      <trkpt lat="45.08791" lon="4.82821">
        <ele>114.43099975586</ele>
        <time>2010-11-17T14:03:37Z</time>
      </trkpt>
      <trkpt lat="45.08828" lon="4.82814">
        <ele>113.81800079346</ele>
        <time>2010-11-17T14:03:43Z</time>
      </trkpt>
      <trkpt lat="45.08879" lon="4.82801">
        <ele>114.2679977417</ele>
        <time>2010-11-17T14:03:51Z</time>
      </trkpt>
      <trkpt lat="45.08914" lon="4.82794">
        <ele>114.44100189209</ele>
        <time>2010-11-17T14:03:57Z</time>
      </trkpt>
      <trkpt lat="45.0892" lon="4.82794">
        <ele>114.47299957275</ele>
        <time>2010-11-17T14:03:58Z</time>
      </trkpt>
      <trkpt lat="45.08932" lon="4.82776">
        <ele>114.625</ele>
        <time>2010-11-17T14:04:02Z</time>
      </trkpt>
      <trkpt lat="45.08939" lon="4.82711">
        <ele>114.58499908447</ele>
        <time>2010-11-17T14:04:10Z</time>
      </trkpt>
      <trkpt lat="45.08945" lon="4.82643">
        <ele>115.24700164795</ele>
        <time>2010-11-17T14:04:18Z</time>
      </trkpt>
      <trkpt lat="45.0895" lon="4.82583">
        <ele>114.36399841309</ele>
        <time>2010-11-17T14:04:25Z</time>
      </trkpt>
      <trkpt lat="45.08951" lon="4.8252">
        <ele>114.31700134277</ele>
        <time>2010-11-17T14:04:32Z</time>
      </trkpt>
      <trkpt lat="45.08952" lon="4.82431">
        <ele>114.22699737549</ele>
        <time>2010-11-17T14:04:42Z</time>
      </trkpt>
      <trkpt lat="45.08952" lon="4.82372">
        <ele>114.20099639893</ele>
        <time>2010-11-17T14:04:49Z</time>
      </trkpt>
      <trkpt lat="45.08964" lon="4.82353">
        <ele>114.75</ele>
        <time>2010-11-17T14:04:53Z</time>
      </trkpt>
      <trkpt lat="45.08974" lon="4.82353">
        <ele>114.74700164795</ele>
        <time>2010-11-17T14:04:55Z</time>
      </trkpt>
      <trkpt lat="45.09032" lon="4.82349">
        <ele>114.72499847412</ele>
        <time>2010-11-17T14:05:05Z</time>
      </trkpt>
      <trkpt lat="45.09063" lon="4.82346">
        <ele>114.81099700928</ele>
        <time>2010-11-17T14:05:10Z</time>
      </trkpt>
      <trkpt lat="45.09112" lon="4.8234">
        <ele>114.92199707031</ele>
        <time>2010-11-17T14:05:18Z</time>
      </trkpt>
      <trkpt lat="45.09151" lon="4.82336">
        <ele>114.90000152588</ele>
        <time>2010-11-17T14:05:24Z</time>
      </trkpt>
      <trkpt lat="45.09208" lon="4.82335">
        <ele>115.5059967041</ele>
        <time>2010-11-17T14:05:33Z</time>
      </trkpt>
      <trkpt lat="45.09233" lon="4.82334">
        <ele>115.52300262451</ele>
        <time>2010-11-17T14:05:37Z</time>
      </trkpt>
      <trkpt lat="45.09283" lon="4.82333">
        <ele>115.88999938965</ele>
        <time>2010-11-17T14:05:45Z</time>
      </trkpt>
      <trkpt lat="45.09328" lon="4.82332">
        <ele>116.33799743652</ele>
        <time>2010-11-17T14:05:52Z</time>
      </trkpt>
      <trkpt lat="45.09378" lon="4.82331">
        <ele>116.78600311279</ele>
        <time>2010-11-17T14:06:00Z</time>
      </trkpt>
      <trkpt lat="45.09416" lon="4.82331">
        <ele>116.84100341797</ele>
        <time>2010-11-17T14:06:06Z</time>
      </trkpt>
      <trkpt lat="45.09477" lon="4.82316">
        <ele>116.4700012207</ele>
        <time>2010-11-17T14:06:15Z</time>
      </trkpt>
      <trkpt lat="45.09497" lon="4.82311">
        <ele>116.37999725342</ele>
        <time>2010-11-17T14:06:18Z</time>
      </trkpt>
      <trkpt lat="45.09544" lon="4.82306">
        <ele>116.50199890137</ele>
        <time>2010-11-17T14:06:25Z</time>
      </trkpt>
      <trkpt lat="45.09574" lon="4.82301">
        <ele>116.99199676514</ele>
        <time>2010-11-17T14:06:30Z</time>
      </trkpt>
      <trkpt lat="45.09605" lon="4.82288">
        <ele>115.625</ele>
        <time>2010-11-17T14:06:35Z</time>
      </trkpt>
      <trkpt lat="45.0961" lon="4.82284">
        <ele>115.62100219727</ele>
        <time>2010-11-17T14:06:36Z</time>
      </trkpt>
      <trkpt lat="45.09645" lon="4.82269">
        <ele>116.70999908447</ele>
        <time>2010-11-17T14:06:42Z</time>
      </trkpt>
      <trkpt lat="45.09695" lon="4.82252">
        <ele>116.39499664307</ele>
        <time>2010-11-17T14:06:50Z</time>
      </trkpt>
      <trkpt lat="45.09755" lon="4.82237">
        <ele>116.14600372315</ele>
        <time>2010-11-17T14:06:59Z</time>
      </trkpt>
      <trkpt lat="45.09822" lon="4.82228">
        <ele>116.19300079346</ele>
        <time>2010-11-17T14:07:09Z</time>
      </trkpt>
      <trkpt lat="45.09842" lon="4.82227">
        <ele>116.31800079346</ele>
        <time>2010-11-17T14:07:12Z</time>
      </trkpt>
      <trkpt lat="45.09895" lon="4.82223">
        <ele>116.49199676514</ele>
        <time>2010-11-17T14:07:20Z</time>
      </trkpt>
      <trkpt lat="45.09961" lon="4.82223">
        <ele>116.52799987793</ele>
        <time>2010-11-17T14:07:30Z</time>
      </trkpt>
      <trkpt lat="45.10001" lon="4.82235">
        <ele>116.46900177002</ele>
        <time>2010-11-17T14:07:36Z</time>
      </trkpt>
      <trkpt lat="45.10053" lon="4.82247">
        <ele>116.44100189209</ele>
        <time>2010-11-17T14:07:44Z</time>
      </trkpt>
      <trkpt lat="45.10093" lon="4.82246">
        <ele>116.6190032959</ele>
        <time>2010-11-17T14:07:50Z</time>
      </trkpt>
      <trkpt lat="45.10138" lon="4.82226">
        <ele>116.82599639893</ele>
        <time>2010-11-17T14:07:57Z</time>
      </trkpt>
      <trkpt lat="45.10167" lon="4.82199">
        <ele>116.91500091553</ele>
        <time>2010-11-17T14:08:02Z</time>
      </trkpt>
      <trkpt lat="45.10193" lon="4.8217">
        <ele>117.27400207519</ele>
        <time>2010-11-17T14:08:07Z</time>
      </trkpt>
      <trkpt lat="45.10218" lon="4.82159">
        <ele>116.43399810791</ele>
        <time>2010-11-17T14:08:11Z</time>
      </trkpt>
      <trkpt lat="45.10252" lon="4.82158">
        <ele>116.46800231934</ele>
        <time>2010-11-17T14:08:16Z</time>
      </trkpt>
      <trkpt lat="45.10295" lon="4.82161">
        <ele>116.6070022583</ele>
        <time>2010-11-17T14:08:23Z</time>
      </trkpt>
      <trkpt lat="45.10308" lon="4.82157">
        <ele>116.25800323486</ele>
        <time>2010-11-17T14:08:25Z</time>
      </trkpt>
      <trkpt lat="45.10338" lon="4.82136">
        <ele>115.8690032959</ele>
        <time>2010-11-17T14:08:30Z</time>
      </trkpt>
      <trkpt lat="45.10376" lon="4.82093">
        <ele>115.91300201416</ele>
        <time>2010-11-17T14:08:37Z</time>
      </trkpt>
      <trkpt lat="45.10418" lon="4.82043">
        <ele>116.37000274658</ele>
        <time>2010-11-17T14:08:45Z</time>
      </trkpt>
      <trkpt lat="45.10456" lon="4.82006">
        <ele>116.59600067139</ele>
        <time>2010-11-17T14:08:52Z</time>
      </trkpt>
      <trkpt lat="45.10503" lon="4.81967">
        <ele>116.28099822998</ele>
        <time>2010-11-17T14:09:00Z</time>
      </trkpt>
      <trkpt lat="45.10558" lon="4.81912">
        <ele>116.18599700928</ele>
        <time>2010-11-17T14:09:10Z</time>
      </trkpt>
      <trkpt lat="45.10594" lon="4.81867">
        <ele>116.36499786377</ele>
        <time>2010-11-17T14:09:17Z</time>
      </trkpt>
      <trkpt lat="45.1063" lon="4.81824">
        <ele>116.6429977417</ele>
        <time>2010-11-17T14:09:24Z</time>
      </trkpt>
      <trkpt lat="45.10675" lon="4.81782">
        <ele>117.11199951172</ele>
        <time>2010-11-17T14:09:32Z</time>
      </trkpt>
      <trkpt lat="45.10713" lon="4.81746">
        <ele>117.14199829102</ele>
        <time>2010-11-17T14:09:39Z</time>
      </trkpt>
      <trkpt lat="45.10755" lon="4.817">
        <ele>117.2200012207</ele>
        <time>2010-11-17T14:09:47Z</time>
      </trkpt>
      <trkpt lat="45.1079" lon="4.81655">
        <ele>116.94300079346</ele>
        <time>2010-11-17T14:09:54Z</time>
      </trkpt>
      <trkpt lat="45.10818" lon="4.81601">
        <ele>117.37300109863</ele>
        <time>2010-11-17T14:10:01Z</time>
      </trkpt>
      <trkpt lat="45.10845" lon="4.81548">
        <ele>117.42700195312</ele>
        <time>2010-11-17T14:10:08Z</time>
      </trkpt>
      <trkpt lat="45.10881" lon="4.81479">
        <ele>117.46800231934</ele>
        <time>2010-11-17T14:10:17Z</time>
      </trkpt>
      <trkpt lat="45.10912" lon="4.81417">
        <ele>117.64600372315</ele>
        <time>2010-11-17T14:10:25Z</time>
      </trkpt>
      <trkpt lat="45.10949" lon="4.81339">
        <ele>117.56900024414</ele>
        <time>2010-11-17T14:10:35Z</time>
      </trkpt>
      <trkpt lat="45.10968" lon="4.81311">
        <ele>117.75399780273</ele>
        <time>2010-11-17T14:10:39Z</time>
      </trkpt>
      <trkpt lat="45.11014" lon="4.81269">
        <ele>117.76699829102</ele>
        <time>2010-11-17T14:10:47Z</time>
      </trkpt>
      <trkpt lat="45.11039" lon="4.81253">
        <ele>117.68499755859</ele>
        <time>2010-11-17T14:10:51Z</time>
      </trkpt>
      <trkpt lat="45.11092" lon="4.81239">
        <ele>117.69699859619</ele>
        <time>2010-11-17T14:10:59Z</time>
      </trkpt>
      <trkpt lat="45.11145" lon="4.81229">
        <ele>117.59799957275</ele>
        <time>2010-11-17T14:11:07Z</time>
      </trkpt>
      <trkpt lat="45.11151" lon="4.81227">
        <ele>117.63400268555</ele>
        <time>2010-11-17T14:11:08Z</time>
      </trkpt>
      <trkpt lat="45.11173" lon="4.81212">
        <ele>117.80400085449</ele>
        <time>2010-11-17T14:11:12Z</time>
      </trkpt>
      <trkpt lat="45.11177" lon="4.81205">
        <ele>117.93199920654</ele>
        <time>2010-11-17T14:11:13Z</time>
      </trkpt>
      <trkpt lat="45.11211" lon="4.81138">
        <ele>117.86799621582</ele>
        <time>2010-11-17T14:11:22Z</time>
      </trkpt>
      <trkpt lat="45.11247" lon="4.81096">
        <ele>118.06700134277</ele>
        <time>2010-11-17T14:11:29Z</time>
      </trkpt>
      <trkpt lat="45.11283" lon="4.81072">
        <ele>117.4879989624</ele>
        <time>2010-11-17T14:11:35Z</time>
      </trkpt>
      <trkpt lat="45.11325" lon="4.81051">
        <ele>117.40799713135</ele>
        <time>2010-11-17T14:11:42Z</time>
      </trkpt>
      <trkpt lat="45.11343" lon="4.81043">
        <ele>117.38500213623</ele>
        <time>2010-11-17T14:11:45Z</time>
      </trkpt>
      <trkpt lat="45.11362" lon="4.81022">
        <ele>117.2320022583</ele>
        <time>2010-11-17T14:11:49Z</time>
      </trkpt>
      <trkpt lat="45.11396" lon="4.80981">
        <ele>117.46700286865</ele>
        <time>2010-11-17T14:11:56Z</time>
      </trkpt>
      <trkpt lat="45.1144" lon="4.80943">
        <ele>117.48899841309</ele>
        <time>2010-11-17T14:12:04Z</time>
      </trkpt>
      <trkpt lat="45.11502" lon="4.80888">
        <ele>117.44599914551</ele>
        <time>2010-11-17T14:12:15Z</time>
      </trkpt>
      <trkpt lat="45.11561" lon="4.8084">
        <ele>117.20899963379</ele>
        <time>2010-11-17T14:12:25Z</time>
      </trkpt>
      <trkpt lat="45.11612" lon="4.8079">
        <ele>117.68800354004</ele>
        <time>2010-11-17T14:12:34Z</time>
      </trkpt>
      <trkpt lat="45.11666" lon="4.80749">
        <ele>117.41200256348</ele>
        <time>2010-11-17T14:12:43Z</time>
      </trkpt>
      <trkpt lat="45.11727" lon="4.80703">
        <ele>117.48100280762</ele>
        <time>2010-11-17T14:12:53Z</time>
      </trkpt>
      <trkpt lat="45.11781" lon="4.80664">
        <ele>117.28600311279</ele>
        <time>2010-11-17T14:13:02Z</time>
      </trkpt>
      <trkpt lat="45.11829" lon="4.80631">
        <ele>117.29699707031</ele>
        <time>2010-11-17T14:13:10Z</time>
      </trkpt>
      <trkpt lat="45.11873" lon="4.80591">
        <ele>117.41300201416</ele>
        <time>2010-11-17T14:13:18Z</time>
      </trkpt>
      <trkpt lat="45.11923" lon="4.80543">
        <ele>116.95899963379</ele>
        <time>2010-11-17T14:13:27Z</time>
      </trkpt>
      <trkpt lat="45.11963" lon="4.80494">
        <ele>117.24500274658</ele>
        <time>2010-11-17T14:13:35Z</time>
      </trkpt>
      <trkpt lat="45.11993" lon="4.80459">
        <ele>117.18299865723</ele>
        <time>2010-11-17T14:13:41Z</time>
      </trkpt>
      <trkpt lat="45.12032" lon="4.80396">
        <ele>117.51000213623</ele>
        <time>2010-11-17T14:13:50Z</time>
      </trkpt>
      <trkpt lat="45.12042" lon="4.80383">
        <ele>117.20700073242</ele>
        <time>2010-11-17T14:13:52Z</time>
      </trkpt>
      <trkpt lat="45.12058" lon="4.80341">
        <ele>117.25700378418</ele>
        <time>2010-11-17T14:13:57Z</time>
      </trkpt>
      <trkpt lat="45.12068" lon="4.80269">
        <ele>118.23600006103</ele>
        <time>2010-11-17T14:14:05Z</time>
      </trkpt>
      <trkpt lat="45.12082" lon="4.80204">
        <ele>120.19100189209</ele>
        <time>2010-11-17T14:14:13Z</time>
      </trkpt>
      <trkpt lat="45.12091" lon="4.80165">
        <ele>122.05599975586</ele>
        <time>2010-11-17T14:14:19Z</time>
      </trkpt>
      <trkpt lat="45.12093" lon="4.80146">
        <ele>122.57800292969</ele>
        <time>2010-11-17T14:14:23Z</time>
      </trkpt>
      <trkpt lat="45.12095" lon="4.80126">
        <ele>122.87699890137</ele>
        <time>2010-11-17T14:14:29Z</time>
      </trkpt>
      <trkpt lat="45.12098" lon="4.80113">
        <ele>123.29499816894</ele>
        <time>2010-11-17T14:14:34Z</time>
      </trkpt>
      <trkpt lat="45.12103" lon="4.80107">
        <ele>123.3870010376</ele>
        <time>2010-11-17T14:14:40Z</time>
      </trkpt>
      <trkpt lat="45.12111" lon="4.80101">
        <ele>123.73000335693</ele>
        <time>2010-11-17T14:14:46Z</time>
      </trkpt>
      <trkpt lat="45.12126" lon="4.80096">
        <ele>123.74500274658</ele>
        <time>2010-11-17T14:14:51Z</time>
      </trkpt>
      <trkpt lat="45.12152" lon="4.8009">
        <ele>123.96399688721</ele>
        <time>2010-11-17T14:14:57Z</time>
      </trkpt>
      <trkpt lat="45.12192" lon="4.80084">
        <ele>123.70700073242</ele>
        <time>2010-11-17T14:15:04Z</time>
      </trkpt>
      <trkpt lat="45.12239" lon="4.80076">
        <ele>123.36000061035</ele>
        <time>2010-11-17T14:15:11Z</time>
      </trkpt>
      <trkpt lat="45.12304" lon="4.80066">
        <ele>123.57499694824</ele>
        <time>2010-11-17T14:15:20Z</time>
      </trkpt>
      <trkpt lat="45.12374" lon="4.80061">
        <ele>123.31999969482</ele>
        <time>2010-11-17T14:15:29Z</time>
      </trkpt>
      <trkpt lat="45.12421" lon="4.80071">
        <ele>123.2440032959</ele>
        <time>2010-11-17T14:15:35Z</time>
      </trkpt>
      <trkpt lat="45.12481" lon="4.80088">
        <ele>123.22499847412</ele>
        <time>2010-11-17T14:15:43Z</time>
      </trkpt>
      <trkpt lat="45.12549" lon="4.801">
        <ele>123.80300140381</ele>
        <time>2010-11-17T14:15:52Z</time>
      </trkpt>
      <trkpt lat="45.12614" lon="4.80112">
        <ele>126.03199768066</ele>
        <time>2010-11-17T14:16:01Z</time>
      </trkpt>
      <trkpt lat="45.12683" lon="4.80124">
        <ele>127.98899841309</ele>
        <time>2010-11-17T14:16:11Z</time>
      </trkpt>
      <trkpt lat="45.1275" lon="4.80139">
        <ele>126.51499938965</ele>
        <time>2010-11-17T14:16:20Z</time>
      </trkpt>
      <trkpt lat="45.12803" lon="4.8014">
        <ele>126.21800231934</ele>
        <time>2010-11-17T14:16:27Z</time>
      </trkpt>
      <trkpt lat="45.12854" lon="4.80139">
        <ele>126.83699798584</ele>
        <time>2010-11-17T14:16:34Z</time>
      </trkpt>
      <trkpt lat="45.12897" lon="4.80151">
        <ele>127.15799713135</ele>
        <time>2010-11-17T14:16:40Z</time>
      </trkpt>
      <trkpt lat="45.12943" lon="4.80164">
        <ele>127.29299926758</ele>
        <time>2010-11-17T14:16:46Z</time>
      </trkpt>
      <trkpt lat="45.13004" lon="4.80183">
        <ele>126.64399719238</ele>
        <time>2010-11-17T14:16:54Z</time>
      </trkpt>
      <trkpt lat="45.13062" lon="4.802">
        <ele>125.61599731445</ele>
        <time>2010-11-17T14:17:01Z</time>
      </trkpt>
      <trkpt lat="45.13131" lon="4.80217">
        <ele>124.46900177002</ele>
        <time>2010-11-17T14:17:09Z</time>
      </trkpt>
      <trkpt lat="45.13192" lon="4.80228">
        <ele>124.54599761963</ele>
        <time>2010-11-17T14:17:16Z</time>
      </trkpt>
      <trkpt lat="45.1328" lon="4.80231">
        <ele>124.72699737549</ele>
        <time>2010-11-17T14:17:26Z</time>
      </trkpt>
      <trkpt lat="45.13338" lon="4.80234">
        <ele>125.20999908447</ele>
        <time>2010-11-17T14:17:33Z</time>
      </trkpt>
      <trkpt lat="45.13406" lon="4.8024">
        <ele>124.72799682617</ele>
        <time>2010-11-17T14:17:41Z</time>
      </trkpt>
      <trkpt lat="45.13472" lon="4.8026">
        <ele>124.20099639893</ele>
        <time>2010-11-17T14:17:49Z</time>
      </trkpt>
      <trkpt lat="45.13542" lon="4.80301">
        <ele>124.452003479</ele>
        <time>2010-11-17T14:17:58Z</time>
      </trkpt>
      <trkpt lat="45.13581" lon="4.80329">
        <ele>125.90299987793</ele>
        <time>2010-11-17T14:18:04Z</time>
      </trkpt>
      <trkpt lat="45.1362" lon="4.80366">
        <ele>125.08000183106</ele>
        <time>2010-11-17T14:18:10Z</time>
      </trkpt>
      <trkpt lat="45.13668" lon="4.80424">
        <ele>122.15299987793</ele>
        <time>2010-11-17T14:18:17Z</time>
      </trkpt>
      <trkpt lat="45.13709" lon="4.80491">
        <ele>121.87699890137</ele>
        <time>2010-11-17T14:18:24Z</time>
      </trkpt>
      <trkpt lat="45.13737" lon="4.80539">
        <ele>121.3870010376</ele>
        <time>2010-11-17T14:18:29Z</time>
      </trkpt>
      <trkpt lat="45.13781" lon="4.80612">
        <ele>121.10199737549</ele>
        <time>2010-11-17T14:18:37Z</time>
      </trkpt>
      <trkpt lat="45.13808" lon="4.80637">
        <ele>121.76999664307</ele>
        <time>2010-11-17T14:18:41Z</time>
      </trkpt>
      <trkpt lat="45.13884" lon="4.80675">
        <ele>123.422996521</ele>
        <time>2010-11-17T14:18:51Z</time>
      </trkpt>
      <trkpt lat="45.13919" lon="4.80691">
        <ele>124.0059967041</ele>
        <time>2010-11-17T14:18:56Z</time>
      </trkpt>
      <trkpt lat="45.13938" lon="4.80703">
        <ele>124.38300323486</ele>
        <time>2010-11-17T14:18:59Z</time>
      </trkpt>
      <trkpt lat="45.13953" lon="4.80718">
        <ele>124.87000274658</ele>
        <time>2010-11-17T14:19:02Z</time>
      </trkpt>
      <trkpt lat="45.1396" lon="4.80738">
        <ele>124.98899841309</ele>
        <time>2010-11-17T14:19:05Z</time>
      </trkpt>
      <trkpt lat="45.13955" lon="4.80754">
        <ele>124.55200195312</ele>
        <time>2010-11-17T14:19:07Z</time>
      </trkpt>
      <trkpt lat="45.13928" lon="4.80805">
        <ele>123.20300292969</ele>
        <time>2010-11-17T14:19:14Z</time>
      </trkpt>
      <trkpt lat="45.13917" lon="4.80826">
        <ele>123.15699768066</ele>
        <time>2010-11-17T14:19:18Z</time>
      </trkpt>
      <trkpt lat="45.13911" lon="4.80835">
        <ele>123.04399871826</ele>
        <time>2010-11-17T14:19:20Z</time>
      </trkpt>
      <trkpt lat="45.13889" lon="4.80851">
        <ele>122.99700164795</ele>
        <time>2010-11-17T14:19:25Z</time>
      </trkpt>
      <trkpt lat="45.13859" lon="4.80833">
        <ele>123.04699707031</ele>
        <time>2010-11-17T14:19:31Z</time>
      </trkpt>
      <trkpt lat="45.13834" lon="4.80776">
        <ele>122.22100067139</ele>
        <time>2010-11-17T14:19:39Z</time>
      </trkpt>
      <trkpt lat="45.13806" lon="4.80704">
        <ele>122.31800079346</ele>
        <time>2010-11-17T14:19:48Z</time>
      </trkpt>
      <trkpt lat="45.13781" lon="4.80675">
        <ele>122.12699890137</ele>
        <time>2010-11-17T14:19:53Z</time>
      </trkpt>
      <trkpt lat="45.13756" lon="4.80672">
        <ele>123.02400207519</ele>
        <time>2010-11-17T14:19:57Z</time>
      </trkpt>
      <trkpt lat="45.13744" lon="4.80677">
        <ele>123.35199737549</ele>
        <time>2010-11-17T14:19:59Z</time>
      </trkpt>
      <trkpt lat="45.13702" lon="4.80711">
        <ele>125.86199951172</ele>
        <time>2010-11-17T14:20:08Z</time>
      </trkpt>
      <trkpt lat="45.13684" lon="4.80726">
        <ele>127.11399841309</ele>
        <time>2010-11-17T14:20:12Z</time>
      </trkpt>
      <trkpt lat="45.13649" lon="4.80754">
        <ele>128.21000671387</ele>
        <time>2010-11-17T14:20:20Z</time>
      </trkpt>
      <trkpt lat="45.13621" lon="4.80777">
        <ele>128.47599792481</ele>
        <time>2010-11-17T14:20:26Z</time>
      </trkpt>
      <trkpt lat="45.13592" lon="4.80801">
        <ele>128.5299987793</ele>
        <time>2010-11-17T14:20:32Z</time>
      </trkpt>
      <trkpt lat="45.13582" lon="4.80809">
        <ele>128.68499755859</ele>
        <time>2010-11-17T14:20:34Z</time>
      </trkpt>
      <trkpt lat="45.13567" lon="4.80821">
        <ele>128.48100280762</ele>
        <time>2010-11-17T14:20:37Z</time>
      </trkpt>
      <trkpt lat="45.13561" lon="4.80826">
        <ele>128.47399902344</ele>
        <time>2010-11-17T14:20:38Z</time>
      </trkpt>
      <trkpt lat="45.13514" lon="4.80864">
        <ele>128.43800354004</ele>
        <time>2010-11-17T14:20:47Z</time>
      </trkpt>
      <trkpt lat="45.13473" lon="4.80897">
        <ele>127.71700286865</ele>
        <time>2010-11-17T14:20:55Z</time>
      </trkpt>
      <trkpt lat="45.13462" lon="4.80906">
        <ele>127.01499938965</ele>
        <time>2010-11-17T14:20:57Z</time>
      </trkpt>
      <trkpt lat="45.13438" lon="4.80926">
        <ele>125.23500061035</ele>
        <time>2010-11-17T14:21:01Z</time>
      </trkpt>
      <trkpt lat="45.1342" lon="4.8094">
        <ele>124.49600219727</ele>
        <time>2010-11-17T14:21:04Z</time>
      </trkpt>
      <trkpt lat="45.13407" lon="4.80946">
        <ele>124.34999847412</ele>
        <time>2010-11-17T14:21:06Z</time>
      </trkpt>
      <trkpt lat="45.13387" lon="4.80944">
        <ele>124.84400177002</ele>
        <time>2010-11-17T14:21:09Z</time>
      </trkpt>
      <trkpt lat="45.13338" lon="4.80916">
        <ele>124.58699798584</ele>
        <time>2010-11-17T14:21:17Z</time>
      </trkpt>
      <trkpt lat="45.1329" lon="4.80889">
        <ele>124.72899627685</ele>
        <time>2010-11-17T14:21:25Z</time>
      </trkpt>
      <trkpt lat="45.13221" lon="4.8085">
        <ele>124.66500091553</ele>
        <time>2010-11-17T14:21:36Z</time>
      </trkpt>
      <trkpt lat="45.13154" lon="4.80812">
        <ele>124.16500091553</ele>
        <time>2010-11-17T14:21:46Z</time>
      </trkpt>
      <trkpt lat="45.1312" lon="4.80794">
        <ele>123.75800323486</ele>
        <time>2010-11-17T14:21:51Z</time>
      </trkpt>
      <trkpt lat="45.13099" lon="4.80785">
        <ele>123.80400085449</ele>
        <time>2010-11-17T14:21:54Z</time>
      </trkpt>
      <trkpt lat="45.13026" lon="4.80755">
        <ele>123.87599945068</ele>
        <time>2010-11-17T14:22:05Z</time>
      </trkpt>
      <trkpt lat="45.12949" lon="4.80729">
        <ele>123.88500213623</ele>
        <time>2010-11-17T14:22:16Z</time>
      </trkpt>
      <trkpt lat="45.12877" lon="4.80712">
        <ele>124.40000152588</ele>
        <time>2010-11-17T14:22:26Z</time>
      </trkpt>
      <trkpt lat="45.1279" lon="4.80698">
        <ele>123.952003479</ele>
        <time>2010-11-17T14:22:38Z</time>
      </trkpt>
      <trkpt lat="45.12708" lon="4.80693">
        <ele>124.20099639893</ele>
        <time>2010-11-17T14:22:49Z</time>
      </trkpt>
      <trkpt lat="45.12668" lon="4.80693">
        <ele>124.202003479</ele>
        <time>2010-11-17T14:22:54Z</time>
      </trkpt>
      <trkpt lat="45.12613" lon="4.80696">
        <ele>124.14099884033</ele>
        <time>2010-11-17T14:23:01Z</time>
      </trkpt>
      <trkpt lat="45.12597" lon="4.80698">
        <ele>124.13800048828</ele>
        <time>2010-11-17T14:23:03Z</time>
      </trkpt>
      <trkpt lat="45.12581" lon="4.807">
        <ele>123.87999725342</ele>
        <time>2010-11-17T14:23:05Z</time>
      </trkpt>
      <trkpt lat="45.12557" lon="4.80703">
        <ele>123.9580001831</ele>
        <time>2010-11-17T14:23:08Z</time>
      </trkpt>
      <trkpt lat="45.12533" lon="4.80706">
        <ele>124.07800292969</ele>
        <time>2010-11-17T14:23:11Z</time>
      </trkpt>
      <trkpt lat="45.12525" lon="4.80708">
        <ele>124.05100250244</ele>
        <time>2010-11-17T14:23:12Z</time>
      </trkpt>
      <trkpt lat="45.12486" lon="4.80716">
        <ele>124.13200378418</ele>
        <time>2010-11-17T14:23:17Z</time>
      </trkpt>
      <trkpt lat="45.12478" lon="4.80718">
        <ele>124.08100128174</ele>
        <time>2010-11-17T14:23:18Z</time>
      </trkpt>
      <trkpt lat="45.12416" lon="4.80734">
        <ele>124.35099792481</ele>
        <time>2010-11-17T14:23:26Z</time>
      </trkpt>
      <trkpt lat="45.12408" lon="4.80737">
        <ele>124.41100311279</ele>
        <time>2010-11-17T14:23:27Z</time>
      </trkpt>
      <trkpt lat="45.12401" lon="4.80739">
        <ele>124.4169998169</ele>
        <time>2010-11-17T14:23:28Z</time>
      </trkpt>
      <trkpt lat="45.12337" lon="4.8076">
        <ele>124.5299987793</ele>
        <time>2010-11-17T14:23:37Z</time>
      </trkpt>
      <trkpt lat="45.12283" lon="4.80783">
        <ele>124.08499908447</ele>
        <time>2010-11-17T14:23:45Z</time>
      </trkpt>
      <trkpt lat="45.12233" lon="4.80807">
        <ele>124.87799835205</ele>
        <time>2010-11-17T14:23:52Z</time>
      </trkpt>
      <trkpt lat="45.12159" lon="4.8085">
        <ele>125.26000213623</ele>
        <time>2010-11-17T14:24:02Z</time>
      </trkpt>
      <trkpt lat="45.12101" lon="4.80888">
        <ele>125.27200317383</ele>
        <time>2010-11-17T14:24:10Z</time>
      </trkpt>
      <trkpt lat="45.1206" lon="4.80918">
        <ele>125.0059967041</ele>
        <time>2010-11-17T14:24:16Z</time>
      </trkpt>
      <trkpt lat="45.12" lon="4.80967">
        <ele>124.89399719238</ele>
        <time>2010-11-17T14:24:25Z</time>
      </trkpt>
      <trkpt lat="45.11933" lon="4.81027">
        <ele>124.93599700928</ele>
        <time>2010-11-17T14:24:35Z</time>
      </trkpt>
      <trkpt lat="45.1186" lon="4.81094">
        <ele>125.05100250244</ele>
        <time>2010-11-17T14:24:46Z</time>
      </trkpt>
      <trkpt lat="45.11787" lon="4.8116">
        <ele>125.55699920654</ele>
        <time>2010-11-17T14:24:57Z</time>
      </trkpt>
      <trkpt lat="45.11715" lon="4.81228">
        <ele>125.74500274658</ele>
        <time>2010-11-17T14:25:08Z</time>
      </trkpt>
      <trkpt lat="45.11661" lon="4.81276">
        <ele>125.55000305176</ele>
        <time>2010-11-17T14:25:16Z</time>
      </trkpt>
      <trkpt lat="45.11601" lon="4.81332">
        <ele>125.12100219727</ele>
        <time>2010-11-17T14:25:25Z</time>
      </trkpt>
      <trkpt lat="45.11539" lon="4.81388">
        <ele>124.98999786377</ele>
        <time>2010-11-17T14:25:34Z</time>
      </trkpt>
      <trkpt lat="45.11457" lon="4.81463">
        <ele>124.50700378418</ele>
        <time>2010-11-17T14:25:46Z</time>
      </trkpt>
      <trkpt lat="45.11397" lon="4.8152">
        <ele>124.47699737549</ele>
        <time>2010-11-17T14:25:55Z</time>
      </trkpt>
      <trkpt lat="45.11318" lon="4.81598">
        <ele>123.87699890137</ele>
        <time>2010-11-17T14:26:07Z</time>
      </trkpt>
      <trkpt lat="45.11246" lon="4.81669">
        <ele>124.2799987793</ele>
        <time>2010-11-17T14:26:18Z</time>
      </trkpt>
      <trkpt lat="45.11188" lon="4.81727">
        <ele>123.93499755859</ele>
        <time>2010-11-17T14:26:27Z</time>
      </trkpt>
      <trkpt lat="45.11117" lon="4.81798">
        <ele>123.95899963379</ele>
        <time>2010-11-17T14:26:38Z</time>
      </trkpt>
      <trkpt lat="45.1108" lon="4.8184">
        <ele>124.43299865723</ele>
        <time>2010-11-17T14:26:44Z</time>
      </trkpt>
      <trkpt lat="45.1106" lon="4.81887">
        <ele>124.31199645996</ele>
        <time>2010-11-17T14:26:49Z</time>
      </trkpt>
      <trkpt lat="45.11053" lon="4.81919">
        <ele>124.14800262451</ele>
        <time>2010-11-17T14:26:52Z</time>
      </trkpt>
      <trkpt lat="45.11034" lon="4.81952">
        <ele>123.3809967041</ele>
        <time>2010-11-17T14:26:56Z</time>
      </trkpt>
      <trkpt lat="45.10947" lon="4.82027">
        <ele>123.74099731445</ele>
        <time>2010-11-17T14:27:10Z</time>
      </trkpt>
      <trkpt lat="45.10913" lon="4.82057">
        <ele>123.6669998169</ele>
        <time>2010-11-17T14:27:16Z</time>
      </trkpt>
      <trkpt lat="45.10898" lon="4.82086">
        <ele>124.59300231934</ele>
        <time>2010-11-17T14:27:20Z</time>
      </trkpt>
      <trkpt lat="45.10903" lon="4.82112">
        <ele>124.84300231934</ele>
        <time>2010-11-17T14:27:23Z</time>
      </trkpt>
      <trkpt lat="45.10907" lon="4.82119">
        <ele>124.92199707031</ele>
        <time>2010-11-17T14:27:24Z</time>
      </trkpt>
      <trkpt lat="45.10953" lon="4.82207">
        <ele>125.51699829102</ele>
        <time>2010-11-17T14:27:36Z</time>
      </trkpt>
      <trkpt lat="45.10978" lon="4.82256">
        <ele>125.43399810791</ele>
        <time>2010-11-17T14:27:43Z</time>
      </trkpt>
      <trkpt lat="45.11002" lon="4.82304">
        <ele>125.1549987793</ele>
        <time>2010-11-17T14:27:50Z</time>
      </trkpt>
      <trkpt lat="45.11026" lon="4.82352">
        <ele>125.47299957275</ele>
        <time>2010-11-17T14:27:57Z</time>
      </trkpt>
      <trkpt lat="45.11046" lon="4.82391">
        <ele>125.77100372315</ele>
        <time>2010-11-17T14:28:03Z</time>
      </trkpt>
      <trkpt lat="45.11073" lon="4.82441">
        <ele>125.39700317383</ele>
        <time>2010-11-17T14:28:11Z</time>
      </trkpt>
      <trkpt lat="45.11081" lon="4.82459">
        <ele>125.6429977417</ele>
        <time>2010-11-17T14:28:14Z</time>
      </trkpt>
      <trkpt lat="45.11092" lon="4.82489">
        <ele>125.58399963379</ele>
        <time>2010-11-17T14:28:19Z</time>
      </trkpt>
      <trkpt lat="45.1109" lon="4.82508">
        <ele>125.40000152588</ele>
        <time>2010-11-17T14:28:22Z</time>
      </trkpt>
      <trkpt lat="45.11076" lon="4.82513">
        <ele>124.8690032959</ele>
        <time>2010-11-17T14:28:25Z</time>
      </trkpt>
      <trkpt lat="45.11071" lon="4.82512">
        <ele>124.71499633789</ele>
        <time>2010-11-17T14:28:26Z</time>
      </trkpt>
      <trkpt lat="45.11041" lon="4.82494">
        <ele>122.88300323486</ele>
        <time>2010-11-17T14:28:32Z</time>
      </trkpt>
      <trkpt lat="45.11032" lon="4.82484">
        <ele>122.86599731445</ele>
        <time>2010-11-17T14:28:34Z</time>
      </trkpt>
      <trkpt lat="45.1101" lon="4.82475">
        <ele>122.88800048828</ele>
        <time>2010-11-17T14:28:38Z</time>
      </trkpt>
      <trkpt lat="45.10972" lon="4.82479">
        <ele>121.54900360107</ele>
        <time>2010-11-17T14:28:44Z</time>
      </trkpt>
      <trkpt lat="45.10951" lon="4.82482">
        <ele>120.58799743652</ele>
        <time>2010-11-17T14:28:47Z</time>
      </trkpt>
      <trkpt lat="45.10936" lon="4.82484">
        <ele>120.01599884033</ele>
        <time>2010-11-17T14:28:49Z</time>
      </trkpt>
      <trkpt lat="45.10899" lon="4.82488">
        <ele>118.65899658203</ele>
        <time>2010-11-17T14:28:54Z</time>
      </trkpt>
      <trkpt lat="45.10876" lon="4.8251">
        <ele>118.56400299072</ele>
        <time>2010-11-17T14:28:58Z</time>
      </trkpt>
      <trkpt lat="45.10845" lon="4.82553">
        <ele>119.26999664307</ele>
        <time>2010-11-17T14:29:05Z</time>
      </trkpt>
      <trkpt lat="45.10808" lon="4.82604">
        <ele>118.58000183106</ele>
        <time>2010-11-17T14:29:13Z</time>
      </trkpt>
      <trkpt lat="45.10776" lon="4.82642">
        <ele>118.24299621582</ele>
        <time>2010-11-17T14:29:20Z</time>
      </trkpt>
      <trkpt lat="45.1076" lon="4.82657">
        <ele>118.21700286865</ele>
        <time>2010-11-17T14:29:23Z</time>
      </trkpt>
      <trkpt lat="45.10722" lon="4.82687">
        <ele>118.52400207519</ele>
        <time>2010-11-17T14:29:30Z</time>
      </trkpt>
      <trkpt lat="45.10686" lon="4.82713">
        <ele>118.66500091553</ele>
        <time>2010-11-17T14:29:37Z</time>
      </trkpt>
      <trkpt lat="45.10647" lon="4.8274">
        <ele>118.625</ele>
        <time>2010-11-17T14:29:45Z</time>
      </trkpt>
      <trkpt lat="45.10614" lon="4.82763">
        <ele>118.87300109863</ele>
        <time>2010-11-17T14:29:52Z</time>
      </trkpt>
      <trkpt lat="45.10585" lon="4.82784">
        <ele>119.16000366211</ele>
        <time>2010-11-17T14:29:59Z</time>
      </trkpt>
      <trkpt lat="45.10561" lon="4.82802">
        <ele>118.25700378418</ele>
        <time>2010-11-17T14:30:05Z</time>
      </trkpt>
      <trkpt lat="45.10553" lon="4.82819">
        <ele>118.04599761963</ele>
        <time>2010-11-17T14:30:09Z</time>
      </trkpt>
      <trkpt lat="45.1056" lon="4.82827">
        <ele>118.97299957275</ele>
        <time>2010-11-17T14:30:12Z</time>
      </trkpt>
      <trkpt lat="45.10575" lon="4.82841">
        <ele>119.05100250244</ele>
        <time>2010-11-17T14:30:17Z</time>
      </trkpt>
      <trkpt lat="45.1058" lon="4.82869">
        <ele>119.577003479</ele>
        <time>2010-11-17T14:30:22Z</time>
      </trkpt>
      <trkpt lat="45.10579" lon="4.82874">
        <ele>119.73000335693</ele>
        <time>2010-11-17T14:30:23Z</time>
      </trkpt>
      <trkpt lat="45.10574" lon="4.82897">
        <ele>120.50700378418</ele>
        <time>2010-11-17T14:30:28Z</time>
      </trkpt>
      <trkpt lat="45.10571" lon="4.82913">
        <ele>121.29399871826</ele>
        <time>2010-11-17T14:30:33Z</time>
      </trkpt>
      <trkpt lat="45.10568" lon="4.82924">
        <ele>121.90399932861</ele>
        <time>2010-11-17T14:30:39Z</time>
      </trkpt>
      <trkpt lat="45.10568" lon="4.82924">
        <ele>122.04599761963</ele>
        <time>2010-11-17T14:30:40Z</time>
      </trkpt>
      <trkpt lat="45.10568" lon="4.82934">
        <ele>122.077003479</ele>
        <time>2010-11-17T14:30:45Z</time>
      </trkpt>
      <trkpt lat="45.10578" lon="4.82949">
        <ele>121.99900054932</ele>
        <time>2010-11-17T14:30:49Z</time>
      </trkpt>
      <trkpt lat="45.10596" lon="4.82982">
        <ele>121.5950012207</ele>
        <time>2010-11-17T14:30:55Z</time>
      </trkpt>
      <trkpt lat="45.10604" lon="4.83001">
        <ele>121.80699920654</ele>
        <time>2010-11-17T14:30:58Z</time>
      </trkpt>
      <trkpt lat="45.10616" lon="4.83053">
        <ele>121.63800048828</ele>
        <time>2010-11-17T14:31:05Z</time>
      </trkpt>
      <trkpt lat="45.10621" lon="4.83075">
        <ele>121.87100219727</ele>
        <time>2010-11-17T14:31:08Z</time>
      </trkpt>
      <trkpt lat="45.10629" lon="4.83095">
        <ele>122.03700256348</ele>
        <time>2010-11-17T14:31:11Z</time>
      </trkpt>
      <trkpt lat="45.10636" lon="4.8312">
        <ele>121.97100067139</ele>
        <time>2010-11-17T14:31:15Z</time>
      </trkpt>
      <trkpt lat="45.10629" lon="4.83135">
        <ele>122.68299865723</ele>
        <time>2010-11-17T14:31:18Z</time>
      </trkpt>
      <trkpt lat="45.10626" lon="4.83139">
        <ele>123.02500152588</ele>
        <time>2010-11-17T14:31:19Z</time>
      </trkpt>
      <trkpt lat="45.10607" lon="4.8316">
        <ele>124.36199951172</ele>
        <time>2010-11-17T14:31:25Z</time>
      </trkpt>
      <trkpt lat="45.1059" lon="4.83181">
        <ele>124.952003479</ele>
        <time>2010-11-17T14:31:30Z</time>
      </trkpt>
      <trkpt lat="45.10564" lon="4.83211">
        <ele>125.30300140381</ele>
        <time>2010-11-17T14:31:37Z</time>
      </trkpt>
      <trkpt lat="45.10556" lon="4.83219">
        <ele>125.33599853516</ele>
        <time>2010-11-17T14:31:39Z</time>
      </trkpt>
      <trkpt lat="45.10526" lon="4.8325">
        <ele>125.43099975586</ele>
        <time>2010-11-17T14:31:46Z</time>
      </trkpt>
      <trkpt lat="45.10485" lon="4.83288">
        <ele>125.90100097656</ele>
        <time>2010-11-17T14:31:55Z</time>
      </trkpt>
      <trkpt lat="45.10456" lon="4.83311">
        <ele>126.44000244141</ele>
        <time>2010-11-17T14:32:01Z</time>
      </trkpt>
      <trkpt lat="45.10417" lon="4.83323">
        <ele>125.91999816894</ele>
        <time>2010-11-17T14:32:08Z</time>
      </trkpt>
      <trkpt lat="45.10376" lon="4.83342">
        <ele>124.65399932861</ele>
        <time>2010-11-17T14:32:15Z</time>
      </trkpt>
      <trkpt lat="45.10326" lon="4.83358">
        <ele>123.76000213623</ele>
        <time>2010-11-17T14:32:23Z</time>
      </trkpt>
      <trkpt lat="45.10281" lon="4.83364">
        <ele>122.86100006103</ele>
        <time>2010-11-17T14:32:30Z</time>
      </trkpt>
      <trkpt lat="45.10236" lon="4.83371">
        <ele>122.33799743652</ele>
        <time>2010-11-17T14:32:37Z</time>
      </trkpt>
      <trkpt lat="45.10198" lon="4.83378">
        <ele>121.83100128174</ele>
        <time>2010-11-17T14:32:43Z</time>
      </trkpt>
      <trkpt lat="45.1015" lon="4.83394">
        <ele>121.71099853516</ele>
        <time>2010-11-17T14:32:51Z</time>
      </trkpt>
      <trkpt lat="45.1011" lon="4.83409">
        <ele>121.37300109863</ele>
        <time>2010-11-17T14:32:58Z</time>
      </trkpt>
      <trkpt lat="45.10057" lon="4.83434">
        <ele>120.44200134277</ele>
        <time>2010-11-17T14:33:07Z</time>
      </trkpt>
      <trkpt lat="45.10033" lon="4.83443">
        <ele>120.20600128174</ele>
        <time>2010-11-17T14:33:11Z</time>
      </trkpt>
      <trkpt lat="45.0999" lon="4.83457">
        <ele>119.05599975586</ele>
        <time>2010-11-17T14:33:18Z</time>
      </trkpt>
      <trkpt lat="45.09949" lon="4.83466">
        <ele>119.44100189209</ele>
        <time>2010-11-17T14:33:25Z</time>
      </trkpt>
      <trkpt lat="45.09903" lon="4.83471">
        <ele>120.45600128174</ele>
        <time>2010-11-17T14:33:33Z</time>
      </trkpt>
      <trkpt lat="45.09865" lon="4.83486">
        <ele>120.125</ele>
        <time>2010-11-17T14:33:39Z</time>
      </trkpt>
      <trkpt lat="45.09831" lon="4.83505">
        <ele>120.36499786377</ele>
        <time>2010-11-17T14:33:45Z</time>
      </trkpt>
      <trkpt lat="45.09783" lon="4.83531">
        <ele>120.68800354004</ele>
        <time>2010-11-17T14:33:54Z</time>
      </trkpt>
      <trkpt lat="45.09744" lon="4.83563">
        <ele>121.80200195312</ele>
        <time>2010-11-17T14:34:02Z</time>
      </trkpt>
      <trkpt lat="45.09729" lon="4.83572">
        <ele>121.96800231934</ele>
        <time>2010-11-17T14:34:05Z</time>
      </trkpt>
      <trkpt lat="45.09703" lon="4.83581">
        <ele>121.86000061035</ele>
        <time>2010-11-17T14:34:10Z</time>
      </trkpt>
      <trkpt lat="45.09668" lon="4.83589">
        <ele>121.32800292969</ele>
        <time>2010-11-17T14:34:17Z</time>
      </trkpt>
      <trkpt lat="45.09624" lon="4.83594">
        <ele>121.5950012207</ele>
        <time>2010-11-17T14:34:25Z</time>
      </trkpt>
      <trkpt lat="45.09587" lon="4.83598">
        <ele>122.18499755859</ele>
        <time>2010-11-17T14:34:32Z</time>
      </trkpt>
      <trkpt lat="45.09573" lon="4.83598">
        <ele>122.17500305176</ele>
        <time>2010-11-17T14:34:35Z</time>
      </trkpt>
      <trkpt lat="45.0956" lon="4.83598">
        <ele>122.297996521</ele>
        <time>2010-11-17T14:34:38Z</time>
      </trkpt>
      <trkpt lat="45.09546" lon="4.83599">
        <ele>122.66300201416</ele>
        <time>2010-11-17T14:34:41Z</time>
      </trkpt>
      <trkpt lat="45.09532" lon="4.83596">
        <ele>122.87400054932</ele>
        <time>2010-11-17T14:34:44Z</time>
      </trkpt>
      <trkpt lat="45.09518" lon="4.83595">
        <ele>123.31099700928</ele>
        <time>2010-11-17T14:34:47Z</time>
      </trkpt>
      <trkpt lat="45.09509" lon="4.83594">
        <ele>123.43900299072</ele>
        <time>2010-11-17T14:34:49Z</time>
      </trkpt>
      <trkpt lat="45.0949" lon="4.83589">
        <ele>124.18800354004</ele>
        <time>2010-11-17T14:34:54Z</time>
      </trkpt>
      <trkpt lat="45.09488" lon="4.83587">
        <ele>124.42500305176</ele>
        <time>2010-11-17T14:34:55Z</time>
      </trkpt>
      <trkpt lat="45.09481" lon="4.83588">
        <ele>124.36499786377</ele>
        <time>2010-11-17T14:34:58Z</time>
      </trkpt>
      <trkpt lat="45.09476" lon="4.83603">
        <ele>123.86599731445</ele>
        <time>2010-11-17T14:35:02Z</time>
      </trkpt>
      <trkpt lat="45.09473" lon="4.83629">
        <ele>122.7320022583</ele>
        <time>2010-11-17T14:35:06Z</time>
      </trkpt>
      <trkpt lat="45.0947" lon="4.83681">
        <ele>123.71800231934</ele>
        <time>2010-11-17T14:35:13Z</time>
      </trkpt>
      <trkpt lat="45.0947" lon="4.83707">
        <ele>124.72799682617</ele>
        <time>2010-11-17T14:35:17Z</time>
      </trkpt>
      <trkpt lat="45.09469" lon="4.8372">
        <ele>125.13999938965</ele>
        <time>2010-11-17T14:35:19Z</time>
      </trkpt>
      <trkpt lat="45.09468" lon="4.83776">
        <ele>126.08799743652</ele>
        <time>2010-11-17T14:35:27Z</time>
      </trkpt>
      <trkpt lat="45.09461" lon="4.8384">
        <ele>127.33599853516</ele>
        <time>2010-11-17T14:35:36Z</time>
      </trkpt>
      <trkpt lat="45.09458" lon="4.8387">
        <ele>127.64600372315</ele>
        <time>2010-11-17T14:35:40Z</time>
      </trkpt>
      <trkpt lat="45.09452" lon="4.83932">
        <ele>128.16600036621</ele>
        <time>2010-11-17T14:35:48Z</time>
      </trkpt>
      <trkpt lat="45.09446" lon="4.84001">
        <ele>129.00100708008</ele>
        <time>2010-11-17T14:35:57Z</time>
      </trkpt>
      <trkpt lat="45.09446" lon="4.84008">
        <ele>129.05700683594</ele>
        <time>2010-11-17T14:35:58Z</time>
      </trkpt>
      <trkpt lat="45.09437" lon="4.84036">
        <ele>129.95799255371</ele>
        <time>2010-11-17T14:36:02Z</time>
      </trkpt>
      <trkpt lat="45.09422" lon="4.84066">
        <ele>130.65699768066</ele>
        <time>2010-11-17T14:36:07Z</time>
      </trkpt>
      <trkpt lat="45.0941" lon="4.84091">
        <ele>131.21499633789</ele>
        <time>2010-11-17T14:36:11Z</time>
      </trkpt>
      <trkpt lat="45.09407" lon="4.84097">
        <ele>131.3450012207</ele>
        <time>2010-11-17T14:36:12Z</time>
      </trkpt>
      <trkpt lat="45.09375" lon="4.84163">
        <ele>132.10899353027</ele>
        <time>2010-11-17T14:36:22Z</time>
      </trkpt>
      <trkpt lat="45.09343" lon="4.8422">
        <ele>133.15899658203</ele>
        <time>2010-11-17T14:36:31Z</time>
      </trkpt>
      <trkpt lat="45.09327" lon="4.84242">
        <ele>133.54100036621</ele>
        <time>2010-11-17T14:36:35Z</time>
      </trkpt>
      <trkpt lat="45.09316" lon="4.8426">
        <ele>133.46600341797</ele>
        <time>2010-11-17T14:36:38Z</time>
      </trkpt>
      <trkpt lat="45.09301" lon="4.84282">
        <ele>134.11000061035</ele>
        <time>2010-11-17T14:36:42Z</time>
      </trkpt>
      <trkpt lat="45.09256" lon="4.8434">
        <ele>135.72200012207</ele>
        <time>2010-11-17T14:36:53Z</time>
      </trkpt>
      <trkpt lat="45.09222" lon="4.84382">
        <ele>137.47900390625</ele>
        <time>2010-11-17T14:37:02Z</time>
      </trkpt>
      <trkpt lat="45.09195" lon="4.84417">
        <ele>138.75799560547</ele>
        <time>2010-11-17T14:37:09Z</time>
      </trkpt>
      <trkpt lat="45.09166" lon="4.84444">
        <ele>139.89900207519</ele>
        <time>2010-11-17T14:37:16Z</time>
      </trkpt>
      <trkpt lat="45.09145" lon="4.84473">
        <ele>140.42500305176</ele>
        <time>2010-11-17T14:37:22Z</time>
      </trkpt>
      <trkpt lat="45.09137" lon="4.8449">
        <ele>140.7859954834</ele>
        <time>2010-11-17T14:37:25Z</time>
      </trkpt>
      <trkpt lat="45.09109" lon="4.84529">
        <ele>141.60200500488</ele>
        <time>2010-11-17T14:37:33Z</time>
      </trkpt>
      <trkpt lat="45.09083" lon="4.84562">
        <ele>142.48899841309</ele>
        <time>2010-11-17T14:37:40Z</time>
      </trkpt>
      <trkpt lat="45.09065" lon="4.84584">
        <ele>143.39199829102</ele>
        <time>2010-11-17T14:37:45Z</time>
      </trkpt>
      <trkpt lat="45.09037" lon="4.84619">
        <ele>144.68699645996</ele>
        <time>2010-11-17T14:37:53Z</time>
      </trkpt>
      <trkpt lat="45.09031" lon="4.8465">
        <ele>145.09599304199</ele>
        <time>2010-11-17T14:37:58Z</time>
      </trkpt>
      <trkpt lat="45.09032" lon="4.84657">
        <ele>145.19299316406</ele>
        <time>2010-11-17T14:37:59Z</time>
      </trkpt>
      <trkpt lat="45.09032" lon="4.84696">
        <ele>145.27200317383</ele>
        <time>2010-11-17T14:38:05Z</time>
      </trkpt>
      <trkpt lat="45.09023" lon="4.84727">
        <ele>144.99699401856</ele>
        <time>2010-11-17T14:38:09Z</time>
      </trkpt>
      <trkpt lat="45.09001" lon="4.84757">
        <ele>145.85699462891</ele>
        <time>2010-11-17T14:38:14Z</time>
      </trkpt>
      <trkpt lat="45.08991" lon="4.84764">
        <ele>146.08799743652</ele>
        <time>2010-11-17T14:38:16Z</time>
      </trkpt>
      <trkpt lat="45.08976" lon="4.84789">
        <ele>146.19999694824</ele>
        <time>2010-11-17T14:38:20Z</time>
      </trkpt>
      <trkpt lat="45.08984" lon="4.84812">
        <ele>146.48699951172</ele>
        <time>2010-11-17T14:38:23Z</time>
      </trkpt>
      <trkpt lat="45.08992" lon="4.84825">
        <ele>146.72700500488</ele>
        <time>2010-11-17T14:38:25Z</time>
      </trkpt>
      <trkpt lat="45.09026" lon="4.84866">
        <ele>147.95500183106</ele>
        <time>2010-11-17T14:38:33Z</time>
      </trkpt>
      <trkpt lat="45.0903" lon="4.8487">
        <ele>148.14999389648</ele>
        <time>2010-11-17T14:38:34Z</time>
      </trkpt>
      <trkpt lat="45.09071" lon="4.84889">
        <ele>148.90400695801</ele>
        <time>2010-11-17T14:38:42Z</time>
      </trkpt>
      <trkpt lat="45.09092" lon="4.84896">
        <ele>149.85000610352</ele>
        <time>2010-11-17T14:38:46Z</time>
      </trkpt>
      <trkpt lat="45.09111" lon="4.84916">
        <ele>150.69799804688</ele>
        <time>2010-11-17T14:38:51Z</time>
      </trkpt>
      <trkpt lat="45.09134" lon="4.8497">
        <ele>152.34399414062</ele>
        <time>2010-11-17T14:39:00Z</time>
      </trkpt>
      <trkpt lat="45.09144" lon="4.84995">
        <ele>152.9640045166</ele>
        <time>2010-11-17T14:39:04Z</time>
      </trkpt>
      <trkpt lat="45.09169" lon="4.85054">
        <ele>154.36199951172</ele>
        <time>2010-11-17T14:39:14Z</time>
      </trkpt>
      <trkpt lat="45.09187" lon="4.85098">
        <ele>155.70799255371</ele>
        <time>2010-11-17T14:39:22Z</time>
      </trkpt>
      <trkpt lat="45.09201" lon="4.85132">
        <ele>156.69799804688</ele>
        <time>2010-11-17T14:39:28Z</time>
      </trkpt>
      <trkpt lat="45.09221" lon="4.85183">
        <ele>157.9880065918</ele>
        <time>2010-11-17T14:39:37Z</time>
      </trkpt>
      <trkpt lat="45.09226" lon="4.85207">
        <ele>159.33099365234</ele>
        <time>2010-11-17T14:39:41Z</time>
      </trkpt>
      <trkpt lat="45.09224" lon="4.85233">
        <ele>160.35099792481</ele>
        <time>2010-11-17T14:39:45Z</time>
      </trkpt>
      <trkpt lat="45.09216" lon="4.85284">
        <ele>161.87399291992</ele>
        <time>2010-11-17T14:39:53Z</time>
      </trkpt>
      <trkpt lat="45.09219" lon="4.85311">
        <ele>162.78700256348</ele>
        <time>2010-11-17T14:39:57Z</time>
      </trkpt>
      <trkpt lat="45.09221" lon="4.85323">
        <ele>163.04100036621</ele>
        <time>2010-11-17T14:39:59Z</time>
      </trkpt>
      <trkpt lat="45.09238" lon="4.85361">
        <ele>164.56100463867</ele>
        <time>2010-11-17T14:40:06Z</time>
      </trkpt>
      <trkpt lat="45.09269" lon="4.85413">
        <ele>166.56599426269</ele>
        <time>2010-11-17T14:40:17Z</time>
      </trkpt>
      <trkpt lat="45.0929" lon="4.8545">
        <ele>167.90899658203</ele>
        <time>2010-11-17T14:40:25Z</time>
      </trkpt>
      <trkpt lat="45.09307" lon="4.85498">
        <ele>170.05200195312</ele>
        <time>2010-11-17T14:40:34Z</time>
      </trkpt>
      <trkpt lat="45.09316" lon="4.85556">
        <ele>172.11500549316</ele>
        <time>2010-11-17T14:40:44Z</time>
      </trkpt>
      <trkpt lat="45.09321" lon="4.85586">
        <ele>173.34899902344</ele>
        <time>2010-11-17T14:40:49Z</time>
      </trkpt>
      <trkpt lat="45.0933" lon="4.85647">
        <ele>174.86399841309</ele>
        <time>2010-11-17T14:40:59Z</time>
      </trkpt>
      <trkpt lat="45.09336" lon="4.85697">
        <ele>176.98399353027</ele>
        <time>2010-11-17T14:41:07Z</time>
      </trkpt>
      <trkpt lat="45.09353" lon="4.85757">
        <ele>178.24499511719</ele>
        <time>2010-11-17T14:41:17Z</time>
      </trkpt>
      <trkpt lat="45.09372" lon="4.85807">
        <ele>179.17999267578</ele>
        <time>2010-11-17T14:41:25Z</time>
      </trkpt>
      <trkpt lat="45.09399" lon="4.8587">
        <ele>180.01800537109</ele>
        <time>2010-11-17T14:41:35Z</time>
      </trkpt>
      <trkpt lat="45.09425" lon="4.85913">
        <ele>180.08200073242</ele>
        <time>2010-11-17T14:41:42Z</time>
      </trkpt>
      <trkpt lat="45.09448" lon="4.85949">
        <ele>179.8630065918</ele>
        <time>2010-11-17T14:41:48Z</time>
      </trkpt>
      <trkpt lat="45.0948" lon="4.85997">
        <ele>180.94900512695</ele>
        <time>2010-11-17T14:41:56Z</time>
      </trkpt>
      <trkpt lat="45.09494" lon="4.86015">
        <ele>181.20199584961</ele>
        <time>2010-11-17T14:41:59Z</time>
      </trkpt>
      <trkpt lat="45.09499" lon="4.8602">
        <ele>181.22599792481</ele>
        <time>2010-11-17T14:42:00Z</time>
      </trkpt>
      <trkpt lat="45.09539" lon="4.86054">
        <ele>181.42399597168</ele>
        <time>2010-11-17T14:42:07Z</time>
      </trkpt>
      <trkpt lat="45.09592" lon="4.86097">
        <ele>181.88499450684</ele>
        <time>2010-11-17T14:42:16Z</time>
      </trkpt>
      <trkpt lat="45.09614" lon="4.86114">
        <ele>181.68299865723</ele>
        <time>2010-11-17T14:42:20Z</time>
      </trkpt>
      <trkpt lat="45.09645" lon="4.86139">
        <ele>182.62100219727</ele>
        <time>2010-11-17T14:42:26Z</time>
      </trkpt>
      <trkpt lat="45.09663" lon="4.86145">
        <ele>182.89199829102</ele>
        <time>2010-11-17T14:42:29Z</time>
      </trkpt>
      <trkpt lat="45.09682" lon="4.86146">
        <ele>183.44099426269</ele>
        <time>2010-11-17T14:42:32Z</time>
      </trkpt>
      <trkpt lat="45.09718" lon="4.86136">
        <ele>185.03799438477</ele>
        <time>2010-11-17T14:42:39Z</time>
      </trkpt>
      <trkpt lat="45.09736" lon="4.86129">
        <ele>185.96899414062</ele>
        <time>2010-11-17T14:42:43Z</time>
      </trkpt>
      <trkpt lat="45.09771" lon="4.86114">
        <ele>187.70500183106</ele>
        <time>2010-11-17T14:42:51Z</time>
      </trkpt>
      <trkpt lat="45.09803" lon="4.86095">
        <ele>189.7140045166</ele>
        <time>2010-11-17T14:42:59Z</time>
      </trkpt>
      <trkpt lat="45.09808" lon="4.86093">
        <ele>189.98399353027</ele>
        <time>2010-11-17T14:43:00Z</time>
      </trkpt>
      <trkpt lat="45.09824" lon="4.86095">
        <ele>190.79499816894</ele>
        <time>2010-11-17T14:43:04Z</time>
      </trkpt>
      <trkpt lat="45.09829" lon="4.86112">
        <ele>191.4880065918</ele>
        <time>2010-11-17T14:43:07Z</time>
      </trkpt>
      <trkpt lat="45.09824" lon="4.8613">
        <ele>191.89300537109</ele>
        <time>2010-11-17T14:43:10Z</time>
      </trkpt>
      <trkpt lat="45.09809" lon="4.86158">
        <ele>193.23300170898</ele>
        <time>2010-11-17T14:43:15Z</time>
      </trkpt>
      <trkpt lat="45.09794" lon="4.86187">
        <ele>194.92100524902</ele>
        <time>2010-11-17T14:43:20Z</time>
      </trkpt>
      <trkpt lat="45.09776" lon="4.86218">
        <ele>196.24000549316</ele>
        <time>2010-11-17T14:43:26Z</time>
      </trkpt>
      <trkpt lat="45.09753" lon="4.86256">
        <ele>198.11000061035</ele>
        <time>2010-11-17T14:43:32Z</time>
      </trkpt>
      <trkpt lat="45.09747" lon="4.8627">
        <ele>199.02699279785</ele>
        <time>2010-11-17T14:43:34Z</time>
      </trkpt>
      <trkpt lat="45.09733" lon="4.86299">
        <ele>200.56700134277</ele>
        <time>2010-11-17T14:43:39Z</time>
      </trkpt>
      <trkpt lat="45.09722" lon="4.8633">
        <ele>202.72200012207</ele>
        <time>2010-11-17T14:43:45Z</time>
      </trkpt>
      <trkpt lat="45.09721" lon="4.86335">
        <ele>202.91799926758</ele>
        <time>2010-11-17T14:43:46Z</time>
      </trkpt>
      <trkpt lat="45.0972" lon="4.86339">
        <ele>203.13299560547</ele>
        <time>2010-11-17T14:43:47Z</time>
      </trkpt>
      <trkpt lat="45.0972" lon="4.86343">
        <ele>203.33200073242</ele>
        <time>2010-11-17T14:43:48Z</time>
      </trkpt>
      <trkpt lat="45.09719" lon="4.8635">
        <ele>203.46000671387</ele>
        <time>2010-11-17T14:43:50Z</time>
      </trkpt>
      <trkpt lat="45.0972" lon="4.86355">
        <ele>203.47500610352</ele>
        <time>2010-11-17T14:43:51Z</time>
      </trkpt>
      <trkpt lat="45.09721" lon="4.86389">
        <ele>203.90699768066</ele>
        <time>2010-11-17T14:43:58Z</time>
      </trkpt>
      <trkpt lat="45.0972" lon="4.86417">
        <ele>205.31300354004</ele>
        <time>2010-11-17T14:44:04Z</time>
      </trkpt>
      <trkpt lat="45.09715" lon="4.86446">
        <ele>206.34399414062</ele>
        <time>2010-11-17T14:44:10Z</time>
      </trkpt>
      <trkpt lat="45.0971" lon="4.86477">
        <ele>207.42999267578</ele>
        <time>2010-11-17T14:44:16Z</time>
      </trkpt>
      <trkpt lat="45.09706" lon="4.86505">
        <ele>209.17599487305</ele>
        <time>2010-11-17T14:44:22Z</time>
      </trkpt>
      <trkpt lat="45.0971" lon="4.86524">
        <ele>210.13299560547</ele>
        <time>2010-11-17T14:44:27Z</time>
      </trkpt>
      <trkpt lat="45.0972" lon="4.86539">
        <ele>211.11999511719</ele>
        <time>2010-11-17T14:44:32Z</time>
      </trkpt>
      <trkpt lat="45.09736" lon="4.86547">
        <ele>211.91000366211</ele>
        <time>2010-11-17T14:44:37Z</time>
      </trkpt>
      <trkpt lat="45.09763" lon="4.86567">
        <ele>213.17199707031</ele>
        <time>2010-11-17T14:44:46Z</time>
      </trkpt>
      <trkpt lat="45.09774" lon="4.86577">
        <ele>213.97799682617</ele>
        <time>2010-11-17T14:44:50Z</time>
      </trkpt>
      <trkpt lat="45.09776" lon="4.8658">
        <ele>214.06900024414</ele>
        <time>2010-11-17T14:44:51Z</time>
      </trkpt>
      <trkpt lat="45.09779" lon="4.86583">
        <ele>214.17300415039</ele>
        <time>2010-11-17T14:44:52Z</time>
      </trkpt>
      <trkpt lat="45.09782" lon="4.86585">
        <ele>214.37699890137</ele>
        <time>2010-11-17T14:44:53Z</time>
      </trkpt>
      <trkpt lat="45.09809" lon="4.86612">
        <ele>216.47599792481</ele>
        <time>2010-11-17T14:45:02Z</time>
      </trkpt>
      <trkpt lat="45.09833" lon="4.86636">
        <ele>218.22900390625</ele>
        <time>2010-11-17T14:45:10Z</time>
      </trkpt>
      <trkpt lat="45.09851" lon="4.86654">
        <ele>219.82099914551</ele>
        <time>2010-11-17T14:45:16Z</time>
      </trkpt>
      <trkpt lat="45.09879" lon="4.86677">
        <ele>222.04299926758</ele>
        <time>2010-11-17T14:45:24Z</time>
      </trkpt>
      <trkpt lat="45.09909" lon="4.86703">
        <ele>224.3690032959</ele>
        <time>2010-11-17T14:45:33Z</time>
      </trkpt>
      <trkpt lat="45.09937" lon="4.86733">
        <ele>226.5119934082</ele>
        <time>2010-11-17T14:45:42Z</time>
      </trkpt>
      <trkpt lat="45.09966" lon="4.86772">
        <ele>229.24699401856</ele>
        <time>2010-11-17T14:45:52Z</time>
      </trkpt>
      <trkpt lat="45.09989" lon="4.86803">
        <ele>231.33999633789</ele>
        <time>2010-11-17T14:46:00Z</time>
      </trkpt>
      <trkpt lat="45.10017" lon="4.86841">
        <ele>234.15199279785</ele>
        <time>2010-11-17T14:46:10Z</time>
      </trkpt>
      <trkpt lat="45.10033" lon="4.86861">
        <ele>235.28399658203</ele>
        <time>2010-11-17T14:46:16Z</time>
      </trkpt>
      <trkpt lat="45.10048" lon="4.86876">
        <ele>235.95399475098</ele>
        <time>2010-11-17T14:46:22Z</time>
      </trkpt>
      <trkpt lat="45.10061" lon="4.86888">
        <ele>235.80200195312</ele>
        <time>2010-11-17T14:46:27Z</time>
      </trkpt>
      <trkpt lat="45.10079" lon="4.86904">
        <ele>235.30400085449</ele>
        <time>2010-11-17T14:46:33Z</time>
      </trkpt>
      <trkpt lat="45.10096" lon="4.86919">
        <ele>234.30200195312</ele>
        <time>2010-11-17T14:46:39Z</time>
      </trkpt>
      <trkpt lat="45.10105" lon="4.86927">
        <ele>233.79299926758</ele>
        <time>2010-11-17T14:46:43Z</time>
      </trkpt>
      <trkpt lat="45.10109" lon="4.86931">
        <ele>233.30099487305</ele>
        <time>2010-11-17T14:46:45Z</time>
      </trkpt>
      <trkpt lat="45.1011" lon="4.86933">
        <ele>233.17500305176</ele>
        <time>2010-11-17T14:46:46Z</time>
      </trkpt>
      <trkpt lat="45.1011" lon="4.86933">
        <ele>233.03199768066</ele>
        <time>2010-11-17T14:46:48Z</time>
      </trkpt>
      <trkpt lat="45.10114" lon="4.86934">
        <ele>232.67599487305</ele>
        <time>2010-11-17T14:47:22Z</time>
      </trkpt>
      <trkpt lat="45.10116" lon="4.86935">
        <ele>232.54200744629</ele>
        <time>2010-11-17T14:47:23Z</time>
      </trkpt>
      <trkpt lat="45.1013" lon="4.86947">
        <ele>231.38900756836</ele>
        <time>2010-11-17T14:47:27Z</time>
      </trkpt>
      <trkpt lat="45.10157" lon="4.86969">
        <ele>229.08299255371</ele>
        <time>2010-11-17T14:47:32Z</time>
      </trkpt>
      <trkpt lat="45.10191" lon="4.86999">
        <ele>226.29800415039</ele>
        <time>2010-11-17T14:47:37Z</time>
      </trkpt>
      <trkpt lat="45.10232" lon="4.87034">
        <ele>222.55599975586</ele>
        <time>2010-11-17T14:47:42Z</time>
      </trkpt>
      <trkpt lat="45.10269" lon="4.87065">
        <ele>218.43499755859</ele>
        <time>2010-11-17T14:47:46Z</time>
      </trkpt>
      <trkpt lat="45.10292" lon="4.87102">
        <ele>216.53399658203</ele>
        <time>2010-11-17T14:47:49Z</time>
      </trkpt>
      <trkpt lat="45.10297" lon="4.87147">
        <ele>215.58200073242</ele>
        <time>2010-11-17T14:47:52Z</time>
      </trkpt>
      <trkpt lat="45.1029" lon="4.87185">
        <ele>217.07299804688</ele>
        <time>2010-11-17T14:47:55Z</time>
      </trkpt>
      <trkpt lat="45.10286" lon="4.87195">
        <ele>217.45500183106</ele>
        <time>2010-11-17T14:47:56Z</time>
      </trkpt>
      <trkpt lat="45.10272" lon="4.87235">
        <ele>220.64799499512</ele>
        <time>2010-11-17T14:48:01Z</time>
      </trkpt>
      <trkpt lat="45.1026" lon="4.87273">
        <ele>222.32800292969</ele>
        <time>2010-11-17T14:48:06Z</time>
      </trkpt>
      <trkpt lat="45.10254" lon="4.873">
        <ele>223.7140045166</ele>
        <time>2010-11-17T14:48:09Z</time>
      </trkpt>
      <trkpt lat="45.10251" lon="4.8737">
        <ele>222.09800720215</ele>
        <time>2010-11-17T14:48:17Z</time>
      </trkpt>
      <trkpt lat="45.10252" lon="4.87392">
        <ele>221.16200256348</ele>
        <time>2010-11-17T14:48:19Z</time>
      </trkpt>
      <trkpt lat="45.10268" lon="4.87438">
        <ele>216.74000549316</ele>
        <time>2010-11-17T14:48:23Z</time>
      </trkpt>
      <trkpt lat="45.10311" lon="4.87516">
        <ele>209.86000061035</ele>
        <time>2010-11-17T14:48:29Z</time>
      </trkpt>
      <trkpt lat="45.1034" lon="4.87582">
        <ele>203.17399597168</ele>
        <time>2010-11-17T14:48:33Z</time>
      </trkpt>
      <trkpt lat="45.10367" lon="4.87656">
        <ele>197.85499572754</ele>
        <time>2010-11-17T14:48:37Z</time>
      </trkpt>
      <trkpt lat="45.10374" lon="4.87674">
        <ele>197.20700073242</ele>
        <time>2010-11-17T14:48:38Z</time>
      </trkpt>
      <trkpt lat="45.10381" lon="4.87693">
        <ele>196.07299804688</ele>
        <time>2010-11-17T14:48:39Z</time>
      </trkpt>
      <trkpt lat="45.10396" lon="4.87731">
        <ele>193.06399536133</ele>
        <time>2010-11-17T14:48:41Z</time>
      </trkpt>
      <trkpt lat="45.10431" lon="4.87845">
        <ele>185.99800109863</ele>
        <time>2010-11-17T14:48:47Z</time>
      </trkpt>
      <trkpt lat="45.10445" lon="4.8794">
        <ele>183.09599304199</ele>
        <time>2010-11-17T14:48:52Z</time>
      </trkpt>
      <trkpt lat="45.10448" lon="4.87976">
        <ele>182.96699523926</ele>
        <time>2010-11-17T14:48:54Z</time>
      </trkpt>
      <trkpt lat="45.10443" lon="4.8804">
        <ele>183.45100402832</ele>
        <time>2010-11-17T14:48:58Z</time>
      </trkpt>
      <trkpt lat="45.10435" lon="4.88067">
        <ele>183.34399414062</ele>
        <time>2010-11-17T14:49:00Z</time>
      </trkpt>
      <trkpt lat="45.10402" lon="4.88146">
        <ele>183.27000427246</ele>
        <time>2010-11-17T14:49:07Z</time>
      </trkpt>
      <trkpt lat="45.10378" lon="4.88194">
        <ele>182.75199890137</ele>
        <time>2010-11-17T14:49:12Z</time>
      </trkpt>
      <trkpt lat="45.1036" lon="4.88221">
        <ele>181.08799743652</ele>
        <time>2010-11-17T14:49:15Z</time>
      </trkpt>
      <trkpt lat="45.1033" lon="4.88257">
        <ele>178.00900268555</ele>
        <time>2010-11-17T14:49:19Z</time>
      </trkpt>
      <trkpt lat="45.10321" lon="4.88267">
        <ele>177.53700256348</ele>
        <time>2010-11-17T14:49:20Z</time>
      </trkpt>
      <trkpt lat="45.1028" lon="4.88315">
        <ele>174.3390045166</ele>
        <time>2010-11-17T14:49:25Z</time>
      </trkpt>
      <trkpt lat="45.10262" lon="4.8834">
        <ele>174.12199401856</ele>
        <time>2010-11-17T14:49:28Z</time>
      </trkpt>
      <trkpt lat="45.10257" lon="4.88347">
        <ele>174.74299621582</ele>
        <time>2010-11-17T14:49:30Z</time>
      </trkpt>
      <trkpt lat="45.10257" lon="4.88348">
        <ele>174.83099365234</ele>
        <time>2010-11-17T14:49:33Z</time>
      </trkpt>
      <trkpt lat="45.10255" lon="4.8835">
        <ele>174.83299255371</ele>
        <time>2010-11-17T14:49:36Z</time>
      </trkpt>
      <trkpt lat="45.10254" lon="4.88352">
        <ele>174.64799499512</ele>
        <time>2010-11-17T14:49:37Z</time>
      </trkpt>
      <trkpt lat="45.1026" lon="4.88364">
        <ele>174.50700378418</ele>
        <time>2010-11-17T14:49:42Z</time>
      </trkpt>
      <trkpt lat="45.10265" lon="4.88369">
        <ele>174.50900268555</ele>
        <time>2010-11-17T14:49:44Z</time>
      </trkpt>
      <trkpt lat="45.10286" lon="4.88393">
        <ele>174.53700256348</ele>
        <time>2010-11-17T14:49:50Z</time>
      </trkpt>
      <trkpt lat="45.10309" lon="4.88419">
        <ele>174.74699401856</ele>
        <time>2010-11-17T14:49:56Z</time>
      </trkpt>
      <trkpt lat="45.10317" lon="4.88427">
        <ele>174.82800292969</ele>
        <time>2010-11-17T14:49:58Z</time>
      </trkpt>
      <trkpt lat="45.10356" lon="4.88474">
        <ele>175.36599731445</ele>
        <time>2010-11-17T14:50:07Z</time>
      </trkpt>
      <trkpt lat="45.10381" lon="4.88513">
        <ele>175.97900390625</ele>
        <time>2010-11-17T14:50:14Z</time>
      </trkpt>
      <trkpt lat="45.10406" lon="4.8857">
        <ele>176.96299743652</ele>
        <time>2010-11-17T14:50:23Z</time>
      </trkpt>
      <trkpt lat="45.10437" lon="4.88644">
        <ele>178.03700256348</ele>
        <time>2010-11-17T14:50:34Z</time>
      </trkpt>
      <trkpt lat="45.10461" lon="4.88706">
        <ele>178.28199768066</ele>
        <time>2010-11-17T14:50:43Z</time>
      </trkpt>
      <trkpt lat="45.10488" lon="4.88771">
        <ele>178.47700500488</ele>
        <time>2010-11-17T14:50:52Z</time>
      </trkpt>
      <trkpt lat="45.10508" lon="4.88821">
        <ele>178.61199951172</ele>
        <time>2010-11-17T14:50:59Z</time>
      </trkpt>
      <trkpt lat="45.10537" lon="4.88887">
        <ele>178.77400207519</ele>
        <time>2010-11-17T14:51:08Z</time>
      </trkpt>
      <trkpt lat="45.10547" lon="4.88906">
        <ele>178.85699462891</ele>
        <time>2010-11-17T14:51:11Z</time>
      </trkpt>
      <trkpt lat="45.10582" lon="4.88966">
        <ele>179.80099487305</ele>
        <time>2010-11-17T14:51:21Z</time>
      </trkpt>
      <trkpt lat="45.10612" lon="4.89009">
        <ele>180.22399902344</ele>
        <time>2010-11-17T14:51:29Z</time>
      </trkpt>
      <trkpt lat="45.10641" lon="4.89042">
        <ele>180.0359954834</ele>
        <time>2010-11-17T14:51:35Z</time>
      </trkpt>
      <trkpt lat="45.10672" lon="4.89073">
        <ele>179.93800354004</ele>
        <time>2010-11-17T14:51:41Z</time>
      </trkpt>
      <trkpt lat="45.10709" lon="4.8911">
        <ele>180.09599304199</ele>
        <time>2010-11-17T14:51:48Z</time>
      </trkpt>
      <trkpt lat="45.1072" lon="4.8912">
        <ele>180.26600646973</ele>
        <time>2010-11-17T14:51:50Z</time>
      </trkpt>
      <trkpt lat="45.10725" lon="4.89125">
        <ele>180.3450012207</ele>
        <time>2010-11-17T14:51:51Z</time>
      </trkpt>
      <trkpt lat="45.10767" lon="4.89167">
        <ele>180.74600219727</ele>
        <time>2010-11-17T14:51:59Z</time>
      </trkpt>
      <trkpt lat="45.10799" lon="4.89205">
        <ele>181.13900756836</ele>
        <time>2010-11-17T14:52:06Z</time>
      </trkpt>
      <trkpt lat="45.10826" lon="4.89243">
        <ele>182.27200317383</ele>
        <time>2010-11-17T14:52:13Z</time>
      </trkpt>
      <trkpt lat="45.10859" lon="4.89287">
        <ele>182.74699401856</ele>
        <time>2010-11-17T14:52:21Z</time>
      </trkpt>
      <trkpt lat="45.10902" lon="4.89346">
        <ele>183.80900573731</ele>
        <time>2010-11-17T14:52:32Z</time>
      </trkpt>
      <trkpt lat="45.10924" lon="4.89374">
        <ele>184.91200256348</ele>
        <time>2010-11-17T14:52:38Z</time>
      </trkpt>
      <trkpt lat="45.1095" lon="4.89396">
        <ele>185.75</ele>
        <time>2010-11-17T14:52:44Z</time>
      </trkpt>
      <trkpt lat="45.10955" lon="4.89399">
        <ele>185.93800354004</ele>
        <time>2010-11-17T14:52:45Z</time>
      </trkpt>
      <trkpt lat="45.10977" lon="4.89428">
        <ele>186.62899780273</ele>
        <time>2010-11-17T14:52:51Z</time>
      </trkpt>
      <trkpt lat="45.10981" lon="4.89433">
        <ele>186.67599487305</ele>
        <time>2010-11-17T14:52:52Z</time>
      </trkpt>
      <trkpt lat="45.11014" lon="4.8947">
        <ele>187.37899780273</ele>
        <time>2010-11-17T14:53:00Z</time>
      </trkpt>
      <trkpt lat="45.11021" lon="4.89481">
        <ele>187.55299377441</ele>
        <time>2010-11-17T14:53:02Z</time>
      </trkpt>
      <trkpt lat="45.11035" lon="4.89513">
        <ele>187.88299560547</ele>
        <time>2010-11-17T14:53:07Z</time>
      </trkpt>
      <trkpt lat="45.11037" lon="4.89521">
        <ele>187.91299438477</ele>
        <time>2010-11-17T14:53:08Z</time>
      </trkpt>
      <trkpt lat="45.11038" lon="4.89552">
        <ele>187.76400756836</ele>
        <time>2010-11-17T14:53:12Z</time>
      </trkpt>
      <trkpt lat="45.11037" lon="4.8956">
        <ele>188.00300598144</ele>
        <time>2010-11-17T14:53:13Z</time>
      </trkpt>
      <trkpt lat="45.11029" lon="4.8959">
        <ele>188.30200195312</ele>
        <time>2010-11-17T14:53:17Z</time>
      </trkpt>
      <trkpt lat="45.11018" lon="4.8963">
        <ele>189.03399658203</ele>
        <time>2010-11-17T14:53:23Z</time>
      </trkpt>
      <trkpt lat="45.11021" lon="4.89649">
        <ele>189.47599792481</ele>
        <time>2010-11-17T14:53:26Z</time>
      </trkpt>
      <trkpt lat="45.11045" lon="4.8969">
        <ele>190.07000732422</ele>
        <time>2010-11-17T14:53:33Z</time>
      </trkpt>
      <trkpt lat="45.11069" lon="4.89734">
        <ele>190.63900756836</ele>
        <time>2010-11-17T14:53:41Z</time>
      </trkpt>
      <trkpt lat="45.11083" lon="4.89756">
        <ele>190.03300476074</ele>
        <time>2010-11-17T14:53:45Z</time>
      </trkpt>
      <trkpt lat="45.11101" lon="4.89772">
        <ele>190.67500305176</ele>
        <time>2010-11-17T14:53:49Z</time>
      </trkpt>
      <trkpt lat="45.11111" lon="4.89779">
        <ele>190.68099975586</ele>
        <time>2010-11-17T14:53:51Z</time>
      </trkpt>
      <trkpt lat="45.11139" lon="4.89793">
        <ele>190.28100585938</ele>
        <time>2010-11-17T14:53:56Z</time>
      </trkpt>
      <trkpt lat="45.11156" lon="4.89804">
        <ele>190.20700073242</ele>
        <time>2010-11-17T14:53:59Z</time>
      </trkpt>
      <trkpt lat="45.1119" lon="4.89829">
        <ele>190.05200195312</ele>
        <time>2010-11-17T14:54:05Z</time>
      </trkpt>
      <trkpt lat="45.11209" lon="4.89861">
        <ele>189.98899841309</ele>
        <time>2010-11-17T14:54:10Z</time>
      </trkpt>
      <trkpt lat="45.11226" lon="4.89922">
        <ele>191.22300720215</ele>
        <time>2010-11-17T14:54:18Z</time>
      </trkpt>
      <trkpt lat="45.11235" lon="4.89967">
        <ele>192.0890045166</ele>
        <time>2010-11-17T14:54:24Z</time>
      </trkpt>
      <trkpt lat="45.1125" lon="4.89991">
        <ele>192.39799499512</ele>
        <time>2010-11-17T14:54:28Z</time>
      </trkpt>
      <trkpt lat="45.11295" lon="4.90045">
        <ele>192.85899353027</ele>
        <time>2010-11-17T14:54:38Z</time>
      </trkpt>
      <trkpt lat="45.11334" lon="4.90087">
        <ele>193.83099365234</ele>
        <time>2010-11-17T14:54:47Z</time>
      </trkpt>
      <trkpt lat="45.11365" lon="4.90117">
        <ele>193.01800537109</ele>
        <time>2010-11-17T14:54:53Z</time>
      </trkpt>
      <trkpt lat="45.11382" lon="4.90154">
        <ele>193.10899353027</ele>
        <time>2010-11-17T14:54:58Z</time>
      </trkpt>
      <trkpt lat="45.11383" lon="4.90162">
        <ele>193.18200683594</ele>
        <time>2010-11-17T14:54:59Z</time>
      </trkpt>
      <trkpt lat="45.11398" lon="4.90222">
        <ele>194.42599487305</ele>
        <time>2010-11-17T14:55:07Z</time>
      </trkpt>
      <trkpt lat="45.11416" lon="4.90252">
        <ele>195.10699462891</ele>
        <time>2010-11-17T14:55:12Z</time>
      </trkpt>
      <trkpt lat="45.11445" lon="4.90277">
        <ele>195.55299377441</ele>
        <time>2010-11-17T14:55:18Z</time>
      </trkpt>
      <trkpt lat="45.11489" lon="4.90303">
        <ele>195.80700683594</ele>
        <time>2010-11-17T14:55:26Z</time>
      </trkpt>
      <trkpt lat="45.11528" lon="4.90323">
        <ele>196.24099731445</ele>
        <time>2010-11-17T14:55:33Z</time>
      </trkpt>
      <trkpt lat="45.11574" lon="4.9035">
        <ele>197.41400146484</ele>
        <time>2010-11-17T14:55:42Z</time>
      </trkpt>
      <trkpt lat="45.11616" lon="4.90375">
        <ele>199.16799926758</ele>
        <time>2010-11-17T14:55:51Z</time>
      </trkpt>
      <trkpt lat="45.11656" lon="4.90401">
        <ele>201.35099792481</ele>
        <time>2010-11-17T14:56:00Z</time>
      </trkpt>
      <trkpt lat="45.11664" lon="4.90408">
        <ele>201.59100341797</ele>
        <time>2010-11-17T14:56:02Z</time>
      </trkpt>
      <trkpt lat="45.11668" lon="4.90412">
        <ele>201.76300048828</ele>
        <time>2010-11-17T14:56:03Z</time>
      </trkpt>
      <trkpt lat="45.11671" lon="4.90416">
        <ele>201.94400024414</ele>
        <time>2010-11-17T14:56:04Z</time>
      </trkpt>
      <trkpt lat="45.11678" lon="4.90424">
        <ele>202.39700317383</ele>
        <time>2010-11-17T14:56:06Z</time>
      </trkpt>
      <trkpt lat="45.11693" lon="4.9045">
        <ele>202.79299926758</ele>
        <time>2010-11-17T14:56:11Z</time>
      </trkpt>
      <trkpt lat="45.11698" lon="4.90472">
        <ele>202.95700073242</ele>
        <time>2010-11-17T14:56:14Z</time>
      </trkpt>
      <trkpt lat="45.11697" lon="4.90529">
        <ele>202.95599365234</ele>
        <time>2010-11-17T14:56:21Z</time>
      </trkpt>
      <trkpt lat="45.11692" lon="4.90574">
        <ele>203.875</ele>
        <time>2010-11-17T14:56:27Z</time>
      </trkpt>
      <trkpt lat="45.11684" lon="4.9063">
        <ele>205.04499816894</ele>
        <time>2010-11-17T14:56:35Z</time>
      </trkpt>
      <trkpt lat="45.1168" lon="4.90649">
        <ele>205.36700439453</ele>
        <time>2010-11-17T14:56:38Z</time>
      </trkpt>
      <trkpt lat="45.11674" lon="4.90673">
        <ele>205.28799438477</ele>
        <time>2010-11-17T14:56:42Z</time>
      </trkpt>
      <trkpt lat="45.11676" lon="4.90695">
        <ele>205.20799255371</ele>
        <time>2010-11-17T14:56:46Z</time>
      </trkpt>
      <trkpt lat="45.11681" lon="4.90697">
        <ele>205.39500427246</ele>
        <time>2010-11-17T14:56:47Z</time>
      </trkpt>
      <trkpt lat="45.11692" lon="4.90703">
        <ele>205.61999511719</ele>
        <time>2010-11-17T14:56:50Z</time>
      </trkpt>
      <trkpt lat="45.11694" lon="4.90725">
        <ele>205.60400390625</ele>
        <time>2010-11-17T14:56:54Z</time>
      </trkpt>
      <trkpt lat="45.11692" lon="4.90731">
        <ele>205.60699462891</ele>
        <time>2010-11-17T14:56:55Z</time>
      </trkpt>
      <trkpt lat="45.11685" lon="4.90748">
        <ele>205.69799804688</ele>
        <time>2010-11-17T14:56:58Z</time>
      </trkpt>
      <trkpt lat="45.11678" lon="4.90787">
        <ele>205.90600585938</ele>
        <time>2010-11-17T14:57:04Z</time>
      </trkpt>
      <trkpt lat="45.1168" lon="4.90845">
        <ele>206.83099365234</ele>
        <time>2010-11-17T14:57:13Z</time>
      </trkpt>
      <trkpt lat="45.1168" lon="4.90893">
        <ele>208.34800720215</ele>
        <time>2010-11-17T14:57:21Z</time>
      </trkpt>
      <trkpt lat="45.11679" lon="4.90943">
        <ele>209.5890045166</ele>
        <time>2010-11-17T14:57:29Z</time>
      </trkpt>
      <trkpt lat="45.11678" lon="4.90963">
        <ele>209.82400512695</ele>
        <time>2010-11-17T14:57:32Z</time>
      </trkpt>
      <trkpt lat="45.11663" lon="4.91031">
        <ele>209.83399963379</ele>
        <time>2010-11-17T14:57:42Z</time>
      </trkpt>
      <trkpt lat="45.11649" lon="4.91091">
        <ele>209.53700256348</ele>
        <time>2010-11-17T14:57:50Z</time>
      </trkpt>
      <trkpt lat="45.1163" lon="4.91153">
        <ele>208.81100463867</ele>
        <time>2010-11-17T14:57:58Z</time>
      </trkpt>
      <trkpt lat="45.1161" lon="4.91196">
        <ele>208.90199279785</ele>
        <time>2010-11-17T14:58:04Z</time>
      </trkpt>
      <trkpt lat="45.11589" lon="4.91235">
        <ele>209.49000549316</ele>
        <time>2010-11-17T14:58:10Z</time>
      </trkpt>
      <trkpt lat="45.11568" lon="4.91288">
        <ele>210.52799987793</ele>
        <time>2010-11-17T14:58:18Z</time>
      </trkpt>
      <trkpt lat="45.11561" lon="4.91319">
        <ele>211.47500610352</ele>
        <time>2010-11-17T14:58:23Z</time>
      </trkpt>
      <trkpt lat="45.11555" lon="4.91362">
        <ele>210.84700012207</ele>
        <time>2010-11-17T14:58:30Z</time>
      </trkpt>
      <trkpt lat="45.11553" lon="4.91377">
        <ele>210.49299621582</ele>
        <time>2010-11-17T14:58:32Z</time>
      </trkpt>
      <trkpt lat="45.11552" lon="4.91385">
        <ele>210.11500549316</ele>
        <time>2010-11-17T14:58:33Z</time>
      </trkpt>
      <trkpt lat="45.11544" lon="4.91442">
        <ele>207.93600463867</ele>
        <time>2010-11-17T14:58:39Z</time>
      </trkpt>
      <trkpt lat="45.11532" lon="4.91528">
        <ele>204.7799987793</ele>
        <time>2010-11-17T14:58:47Z</time>
      </trkpt>
      <trkpt lat="45.11509" lon="4.9159">
        <ele>202.11999511719</ele>
        <time>2010-11-17T14:58:53Z</time>
      </trkpt>
      <trkpt lat="45.1147" lon="4.91663">
        <ele>201.24099731445</ele>
        <time>2010-11-17T14:59:01Z</time>
      </trkpt>
      <trkpt lat="45.11443" lon="4.91714">
        <ele>200.43400573731</ele>
        <time>2010-11-17T14:59:07Z</time>
      </trkpt>
      <trkpt lat="45.11412" lon="4.91772">
        <ele>200.12899780273</ele>
        <time>2010-11-17T14:59:14Z</time>
      </trkpt>
      <trkpt lat="45.11403" lon="4.91788">
        <ele>199.62199401856</ele>
        <time>2010-11-17T14:59:16Z</time>
      </trkpt>
      <trkpt lat="45.11383" lon="4.91819">
        <ele>198.69999694824</ele>
        <time>2010-11-17T14:59:20Z</time>
      </trkpt>
      <trkpt lat="45.11358" lon="4.91854">
        <ele>197.96699523926</ele>
        <time>2010-11-17T14:59:25Z</time>
      </trkpt>
      <trkpt lat="45.11343" lon="4.91876">
        <ele>197.52600097656</ele>
        <time>2010-11-17T14:59:28Z</time>
      </trkpt>
      <trkpt lat="45.11338" lon="4.91883">
        <ele>197.21200561523</ele>
        <time>2010-11-17T14:59:29Z</time>
      </trkpt>
      <trkpt lat="45.11324" lon="4.91904">
        <ele>196.78199768066</ele>
        <time>2010-11-17T14:59:32Z</time>
      </trkpt>
      <trkpt lat="45.11277" lon="4.91961">
        <ele>195.22300720215</ele>
        <time>2010-11-17T14:59:41Z</time>
      </trkpt>
      <trkpt lat="45.11245" lon="4.91998">
        <ele>194.52200317383</ele>
        <time>2010-11-17T14:59:47Z</time>
      </trkpt>
      <trkpt lat="45.1124" lon="4.92004">
        <ele>194.34199523926</ele>
        <time>2010-11-17T14:59:48Z</time>
      </trkpt>
      <trkpt lat="45.11215" lon="4.92049">
        <ele>193.72500610352</ele>
        <time>2010-11-17T14:59:54Z</time>
      </trkpt>
      <trkpt lat="45.11205" lon="4.92094">
        <ele>193.35400390625</ele>
        <time>2010-11-17T14:59:59Z</time>
      </trkpt>
      <trkpt lat="45.11198" lon="4.9213">
        <ele>193.07699584961</ele>
        <time>2010-11-17T15:00:03Z</time>
      </trkpt>
      <trkpt lat="45.11187" lon="4.92193">
        <ele>192.57800292969</ele>
        <time>2010-11-17T15:00:10Z</time>
      </trkpt>
      <trkpt lat="45.11179" lon="4.92243">
        <ele>193.22799682617</ele>
        <time>2010-11-17T15:00:16Z</time>
      </trkpt>
      <trkpt lat="45.11177" lon="4.92289">
        <ele>194.01499938965</ele>
        <time>2010-11-17T15:00:22Z</time>
      </trkpt>
      <trkpt lat="45.11182" lon="4.92334">
        <ele>194.36099243164</ele>
        <time>2010-11-17T15:00:28Z</time>
      </trkpt>
      <trkpt lat="45.11176" lon="4.92378">
        <ele>194.87800598144</ele>
        <time>2010-11-17T15:00:34Z</time>
      </trkpt>
      <trkpt lat="45.11169" lon="4.9239">
        <ele>194.69700622559</ele>
        <time>2010-11-17T15:00:36Z</time>
      </trkpt>
      <trkpt lat="45.11151" lon="4.92412">
        <ele>194.11000061035</ele>
        <time>2010-11-17T15:00:40Z</time>
      </trkpt>
      <trkpt lat="45.11116" lon="4.92442">
        <ele>193.86000061035</ele>
        <time>2010-11-17T15:00:47Z</time>
      </trkpt>
      <trkpt lat="45.11088" lon="4.9247">
        <ele>193.76499938965</ele>
        <time>2010-11-17T15:00:53Z</time>
      </trkpt>
      <trkpt lat="45.11084" lon="4.92475">
        <ele>193.69799804688</ele>
        <time>2010-11-17T15:00:54Z</time>
      </trkpt>
      <trkpt lat="45.11049" lon="4.92506">
        <ele>193.64599609375</ele>
        <time>2010-11-17T15:01:01Z</time>
      </trkpt>
      <trkpt lat="45.11044" lon="4.9251">
        <ele>193.66400146484</ele>
        <time>2010-11-17T15:01:02Z</time>
      </trkpt>
      <trkpt lat="45.11025" lon="4.92528">
        <ele>193.47799682617</ele>
        <time>2010-11-17T15:01:06Z</time>
      </trkpt>
      <trkpt lat="45.11012" lon="4.92542">
        <ele>193.42300415039</ele>
        <time>2010-11-17T15:01:09Z</time>
      </trkpt>
      <trkpt lat="45.10993" lon="4.92558">
        <ele>193.42999267578</ele>
        <time>2010-11-17T15:01:13Z</time>
      </trkpt>
      <trkpt lat="45.10986" lon="4.92581">
        <ele>193.53700256348</ele>
        <time>2010-11-17T15:01:17Z</time>
      </trkpt>
      <trkpt lat="45.10989" lon="4.92594">
        <ele>193.85000610352</ele>
        <time>2010-11-17T15:01:19Z</time>
      </trkpt>
      <trkpt lat="45.10995" lon="4.92612">
        <ele>194.44900512695</ele>
        <time>2010-11-17T15:01:22Z</time>
      </trkpt>
      <trkpt lat="45.11005" lon="4.9264">
        <ele>195.13499450684</ele>
        <time>2010-11-17T15:01:27Z</time>
      </trkpt>
      <trkpt lat="45.11018" lon="4.9268">
        <ele>196.19799804688</ele>
        <time>2010-11-17T15:01:34Z</time>
      </trkpt>
      <trkpt lat="45.11032" lon="4.92725">
        <ele>196.27900695801</ele>
        <time>2010-11-17T15:01:41Z</time>
      </trkpt>
      <trkpt lat="45.11047" lon="4.92788">
        <ele>195.79899597168</ele>
        <time>2010-11-17T15:01:49Z</time>
      </trkpt>
      <trkpt lat="45.11064" lon="4.92869">
        <ele>196.07800292969</ele>
        <time>2010-11-17T15:01:59Z</time>
      </trkpt>
      <trkpt lat="45.11079" lon="4.92942">
        <ele>196.7799987793</ele>
        <time>2010-11-17T15:02:08Z</time>
      </trkpt>
      <trkpt lat="45.11091" lon="4.92999">
        <ele>197.25799560547</ele>
        <time>2010-11-17T15:02:15Z</time>
      </trkpt>
      <trkpt lat="45.11105" lon="4.93064">
        <ele>198.07400512695</ele>
        <time>2010-11-17T15:02:24Z</time>
      </trkpt>
      <trkpt lat="45.11119" lon="4.9313">
        <ele>198.69599914551</ele>
        <time>2010-11-17T15:02:33Z</time>
      </trkpt>
      <trkpt lat="45.11123" lon="4.93152">
        <ele>198.95199584961</ele>
        <time>2010-11-17T15:02:37Z</time>
      </trkpt>
      <trkpt lat="45.11125" lon="4.93159">
        <ele>199.1609954834</ele>
        <time>2010-11-17T15:02:41Z</time>
      </trkpt>
      <trkpt lat="45.11125" lon="4.93165">
        <ele>199.21200561523</ele>
        <time>2010-11-17T15:02:45Z</time>
      </trkpt>
      <trkpt lat="45.11133" lon="4.93192">
        <ele>199.30000305176</ele>
        <time>2010-11-17T15:02:53Z</time>
      </trkpt>
      <trkpt lat="45.11144" lon="4.93221">
        <ele>199.90600585938</ele>
        <time>2010-11-17T15:03:00Z</time>
      </trkpt>
      <trkpt lat="45.11161" lon="4.93261">
        <ele>200.78199768066</ele>
        <time>2010-11-17T15:03:08Z</time>
      </trkpt>
      <trkpt lat="45.11177" lon="4.93295">
        <ele>201.96600341797</ele>
        <time>2010-11-17T15:03:14Z</time>
      </trkpt>
      <trkpt lat="45.11197" lon="4.93336">
        <ele>203.02000427246</ele>
        <time>2010-11-17T15:03:22Z</time>
      </trkpt>
      <trkpt lat="45.11218" lon="4.93376">
        <ele>204.61799621582</ele>
        <time>2010-11-17T15:03:31Z</time>
      </trkpt>
      <trkpt lat="45.11247" lon="4.93422">
        <ele>207.08999633789</ele>
        <time>2010-11-17T15:03:42Z</time>
      </trkpt>
      <trkpt lat="45.11274" lon="4.93461">
        <ele>209.41600036621</ele>
        <time>2010-11-17T15:03:52Z</time>
      </trkpt>
      <trkpt lat="45.11298" lon="4.93495">
        <ele>211.38600158691</ele>
        <time>2010-11-17T15:04:01Z</time>
      </trkpt>
      <trkpt lat="45.1132" lon="4.93527">
        <ele>213.24600219727</ele>
        <time>2010-11-17T15:04:09Z</time>
      </trkpt>
      <trkpt lat="45.1133" lon="4.9355">
        <ele>214.36000061035</ele>
        <time>2010-11-17T15:04:14Z</time>
      </trkpt>
      <trkpt lat="45.11335" lon="4.93559">
        <ele>214.72799682617</ele>
        <time>2010-11-17T15:04:16Z</time>
      </trkpt>
      <trkpt lat="45.11346" lon="4.93583">
        <ele>215.83000183106</ele>
        <time>2010-11-17T15:04:21Z</time>
      </trkpt>
      <trkpt lat="45.11363" lon="4.93631">
        <ele>217.75300598144</ele>
        <time>2010-11-17T15:04:30Z</time>
      </trkpt>
      <trkpt lat="45.1138" lon="4.93679">
        <ele>218.90299987793</ele>
        <time>2010-11-17T15:04:39Z</time>
      </trkpt>
      <trkpt lat="45.11381" lon="4.93684">
        <ele>219.01300048828</ele>
        <time>2010-11-17T15:04:40Z</time>
      </trkpt>
      <trkpt lat="45.11396" lon="4.93728">
        <ele>218.98100280762</ele>
        <time>2010-11-17T15:04:48Z</time>
      </trkpt>
      <trkpt lat="45.11408" lon="4.93762">
        <ele>218.20199584961</ele>
        <time>2010-11-17T15:04:54Z</time>
      </trkpt>
      <trkpt lat="45.1142" lon="4.93794">
        <ele>217.0890045166</ele>
        <time>2010-11-17T15:04:59Z</time>
      </trkpt>
      <trkpt lat="45.11424" lon="4.93801">
        <ele>216.61700439453</ele>
        <time>2010-11-17T15:05:00Z</time>
      </trkpt>
      <trkpt lat="45.11438" lon="4.93834">
        <ele>214.54100036621</ele>
        <time>2010-11-17T15:05:04Z</time>
      </trkpt>
      <trkpt lat="45.11452" lon="4.9386">
        <ele>212.36099243164</ele>
        <time>2010-11-17T15:05:07Z</time>
      </trkpt>
      <trkpt lat="45.11464" lon="4.93877">
        <ele>211.53799438477</ele>
        <time>2010-11-17T15:05:09Z</time>
      </trkpt>
      <trkpt lat="45.11483" lon="4.939">
        <ele>210.17900085449</ele>
        <time>2010-11-17T15:05:12Z</time>
      </trkpt>
      <trkpt lat="45.11501" lon="4.93922">
        <ele>209.95599365234</ele>
        <time>2010-11-17T15:05:15Z</time>
      </trkpt>
      <trkpt lat="45.11507" lon="4.93929">
        <ele>210.08999633789</ele>
        <time>2010-11-17T15:05:16Z</time>
      </trkpt>
      <trkpt lat="45.11514" lon="4.93935">
        <ele>210.16000366211</ele>
        <time>2010-11-17T15:05:17Z</time>
      </trkpt>
      <trkpt lat="45.11525" lon="4.93949">
        <ele>210.00300598144</ele>
        <time>2010-11-17T15:05:19Z</time>
      </trkpt>
      <trkpt lat="45.11541" lon="4.93982">
        <ele>209.47300720215</ele>
        <time>2010-11-17T15:05:23Z</time>
      </trkpt>
      <trkpt lat="45.11558" lon="4.94034">
        <ele>208.57699584961</ele>
        <time>2010-11-17T15:05:29Z</time>
      </trkpt>
      <trkpt lat="45.11579" lon="4.94069">
        <ele>207.79499816894</ele>
        <time>2010-11-17T15:05:34Z</time>
      </trkpt>
      <trkpt lat="45.11584" lon="4.94073">
        <ele>207.77900695801</ele>
        <time>2010-11-17T15:05:35Z</time>
      </trkpt>
      <trkpt lat="45.11605" lon="4.94087">
        <ele>208.14199829102</ele>
        <time>2010-11-17T15:05:39Z</time>
      </trkpt>
      <trkpt lat="45.11631" lon="4.94103">
        <ele>208.34100341797</ele>
        <time>2010-11-17T15:05:45Z</time>
      </trkpt>
      <trkpt lat="45.11654" lon="4.94118">
        <ele>208.56399536133</ele>
        <time>2010-11-17T15:05:51Z</time>
      </trkpt>
      <trkpt lat="45.1166" lon="4.94124">
        <ele>208.74000549316</ele>
        <time>2010-11-17T15:05:53Z</time>
      </trkpt>
      <trkpt lat="45.11662" lon="4.94128">
        <ele>208.96600341797</ele>
        <time>2010-11-17T15:05:54Z</time>
      </trkpt>
      <trkpt lat="45.11665" lon="4.94142">
        <ele>209.76899719238</ele>
        <time>2010-11-17T15:05:58Z</time>
      </trkpt>
      <trkpt lat="45.11662" lon="4.94165">
        <ele>209.45500183106</ele>
        <time>2010-11-17T15:06:04Z</time>
      </trkpt>
      <trkpt lat="45.11659" lon="4.9419">
        <ele>209.01100158691</ele>
        <time>2010-11-17T15:06:09Z</time>
      </trkpt>
      <trkpt lat="45.11658" lon="4.94202">
        <ele>209.0359954834</ele>
        <time>2010-11-17T15:06:11Z</time>
      </trkpt>
      <trkpt lat="45.11656" lon="4.94253">
        <ele>209.32899475098</ele>
        <time>2010-11-17T15:06:20Z</time>
      </trkpt>
      <trkpt lat="45.11654" lon="4.94282">
        <ele>209.46499633789</ele>
        <time>2010-11-17T15:06:25Z</time>
      </trkpt>
      <trkpt lat="45.11656" lon="4.94317">
        <ele>209.99899291992</ele>
        <time>2010-11-17T15:06:32Z</time>
      </trkpt>
      <trkpt lat="45.11659" lon="4.94343">
        <ele>210.33399963379</ele>
        <time>2010-11-17T15:06:37Z</time>
      </trkpt>
      <trkpt lat="45.11663" lon="4.94374">
        <ele>211.1309967041</ele>
        <time>2010-11-17T15:06:43Z</time>
      </trkpt>
      <trkpt lat="45.1167" lon="4.94406">
        <ele>212.7440032959</ele>
        <time>2010-11-17T15:06:50Z</time>
      </trkpt>
      <trkpt lat="45.11673" lon="4.94421">
        <ele>214.17500305176</ele>
        <time>2010-11-17T15:06:55Z</time>
      </trkpt>
      <trkpt lat="45.11673" lon="4.94422">
        <ele>214.48899841309</ele>
        <time>2010-11-17T15:06:57Z</time>
      </trkpt>
      <trkpt lat="45.11674" lon="4.94428">
        <ele>214.98699951172</ele>
        <time>2010-11-17T15:07:01Z</time>
      </trkpt>
      <trkpt lat="45.11673" lon="4.94431">
        <ele>215.34800720215</ele>
        <time>2010-11-17T15:07:03Z</time>
      </trkpt>
      <trkpt lat="45.11671" lon="4.94432">
        <ele>215.4049987793</ele>
        <time>2010-11-17T15:07:04Z</time>
      </trkpt>
      <trkpt lat="45.11669" lon="4.94433">
        <ele>215.56100463867</ele>
        <time>2010-11-17T15:07:05Z</time>
      </trkpt>
      <trkpt lat="45.11667" lon="4.94434">
        <ele>215.58399963379</ele>
        <time>2010-11-17T15:07:06Z</time>
      </trkpt>
      <trkpt lat="45.1165" lon="4.94441">
        <ele>216.37199401856</ele>
        <time>2010-11-17T15:07:12Z</time>
      </trkpt>
      <trkpt lat="45.11632" lon="4.94451">
        <ele>217.82499694824</ele>
        <time>2010-11-17T15:07:18Z</time>
      </trkpt>
      <trkpt lat="45.11608" lon="4.94469">
        <ele>220.05499267578</ele>
        <time>2010-11-17T15:07:26Z</time>
      </trkpt>
      <trkpt lat="45.11594" lon="4.94487">
        <ele>221.21800231934</ele>
        <time>2010-11-17T15:07:32Z</time>
      </trkpt>
      <trkpt lat="45.11576" lon="4.94509">
        <ele>222.81700134277</ele>
        <time>2010-11-17T15:07:39Z</time>
      </trkpt>
      <trkpt lat="45.11572" lon="4.94515">
        <ele>223.26499938965</ele>
        <time>2010-11-17T15:07:41Z</time>
      </trkpt>
      <trkpt lat="45.11567" lon="4.94526">
        <ele>223.95199584961</ele>
        <time>2010-11-17T15:07:44Z</time>
      </trkpt>
      <trkpt lat="45.11565" lon="4.9453">
        <ele>224.12800598144</ele>
        <time>2010-11-17T15:07:45Z</time>
      </trkpt>
      <trkpt lat="45.11561" lon="4.94554">
        <ele>224.67399597168</ele>
        <time>2010-11-17T15:07:50Z</time>
      </trkpt>
      <trkpt lat="45.1156" lon="4.9457">
        <ele>224.92100524902</ele>
        <time>2010-11-17T15:07:53Z</time>
      </trkpt>
      <trkpt lat="45.11559" lon="4.9458">
        <ele>225.06199645996</ele>
        <time>2010-11-17T15:07:55Z</time>
      </trkpt>
      <trkpt lat="45.11559" lon="4.94585">
        <ele>225.12399291992</ele>
        <time>2010-11-17T15:07:56Z</time>
      </trkpt>
      <trkpt lat="45.11559" lon="4.94595">
        <ele>225.23599243164</ele>
        <time>2010-11-17T15:07:58Z</time>
      </trkpt>
      <trkpt lat="45.11558" lon="4.94609">
        <ele>225.44000244141</ele>
        <time>2010-11-17T15:08:01Z</time>
      </trkpt>
      <trkpt lat="45.11554" lon="4.94619">
        <ele>225.68299865723</ele>
        <time>2010-11-17T15:08:04Z</time>
      </trkpt>
      <trkpt lat="45.11552" lon="4.94622">
        <ele>225.7380065918</ele>
        <time>2010-11-17T15:08:05Z</time>
      </trkpt>
      <trkpt lat="45.1154" lon="4.94633">
        <ele>225.82800292969</ele>
        <time>2010-11-17T15:08:12Z</time>
      </trkpt>
      <trkpt lat="45.11528" lon="4.94641">
        <ele>225.28900146484</ele>
        <time>2010-11-17T15:08:17Z</time>
      </trkpt>
      <trkpt lat="45.11508" lon="4.94654">
        <ele>224.59300231934</ele>
        <time>2010-11-17T15:08:23Z</time>
      </trkpt>
      <trkpt lat="45.11483" lon="4.9467">
        <ele>223.81300354004</ele>
        <time>2010-11-17T15:08:30Z</time>
      </trkpt>
      <trkpt lat="45.11475" lon="4.94675">
        <ele>223.66400146484</ele>
        <time>2010-11-17T15:08:32Z</time>
      </trkpt>
      <trkpt lat="45.11453" lon="4.94689">
        <ele>222.51800537109</ele>
        <time>2010-11-17T15:08:37Z</time>
      </trkpt>
      <trkpt lat="45.11433" lon="4.947">
        <ele>221.66999816894</ele>
        <time>2010-11-17T15:08:41Z</time>
      </trkpt>
      <trkpt lat="45.11428" lon="4.94703">
        <ele>221.46499633789</ele>
        <time>2010-11-17T15:08:42Z</time>
      </trkpt>
      <trkpt lat="45.11406" lon="4.94717">
        <ele>220.73599243164</ele>
        <time>2010-11-17T15:08:46Z</time>
      </trkpt>
      <trkpt lat="45.114" lon="4.9472">
        <ele>220.54299926758</ele>
        <time>2010-11-17T15:08:47Z</time>
      </trkpt>
      <trkpt lat="45.11361" lon="4.94738">
        <ele>219.16299438477</ele>
        <time>2010-11-17T15:08:54Z</time>
      </trkpt>
      <trkpt lat="45.11325" lon="4.9474">
        <ele>218.52000427246</ele>
        <time>2010-11-17T15:09:00Z</time>
      </trkpt>
      <trkpt lat="45.11288" lon="4.94739">
        <ele>216.94500732422</ele>
        <time>2010-11-17T15:09:06Z</time>
      </trkpt>
      <trkpt lat="45.11232" lon="4.94739">
        <ele>214.80400085449</ele>
        <time>2010-11-17T15:09:14Z</time>
      </trkpt>
      <trkpt lat="45.11182" lon="4.94749">
        <ele>213.11700439453</ele>
        <time>2010-11-17T15:09:21Z</time>
      </trkpt>
      <trkpt lat="45.11109" lon="4.94768">
        <ele>210.78500366211</ele>
        <time>2010-11-17T15:09:31Z</time>
      </trkpt>
      <trkpt lat="45.11049" lon="4.94784">
        <ele>209.22599792481</ele>
        <time>2010-11-17T15:09:39Z</time>
      </trkpt>
      <trkpt lat="45.10983" lon="4.94801">
        <ele>208.16200256348</ele>
        <time>2010-11-17T15:09:48Z</time>
      </trkpt>
      <trkpt lat="45.1095" lon="4.9481">
        <ele>207.86599731445</ele>
        <time>2010-11-17T15:09:53Z</time>
      </trkpt>
      <trkpt lat="45.10943" lon="4.94811">
        <ele>207.81900024414</ele>
        <time>2010-11-17T15:09:54Z</time>
      </trkpt>
      <trkpt lat="45.10902" lon="4.94823">
        <ele>207.29200744629</ele>
        <time>2010-11-17T15:10:01Z</time>
      </trkpt>
      <trkpt lat="45.10896" lon="4.94824">
        <ele>207.14300537109</ele>
        <time>2010-11-17T15:10:02Z</time>
      </trkpt>
      <trkpt lat="45.10868" lon="4.94832">
        <ele>206.01699829102</ele>
        <time>2010-11-17T15:10:07Z</time>
      </trkpt>
      <trkpt lat="45.10857" lon="4.94847">
        <ele>205.92999267578</ele>
        <time>2010-11-17T15:10:10Z</time>
      </trkpt>
      <trkpt lat="45.10856" lon="4.94854">
        <ele>205.98199462891</ele>
        <time>2010-11-17T15:10:11Z</time>
      </trkpt>
      <trkpt lat="45.10855" lon="4.94909">
        <ele>204.25300598144</ele>
        <time>2010-11-17T15:10:17Z</time>
      </trkpt>
      <trkpt lat="45.10853" lon="4.94967">
        <ele>201.01300048828</ele>
        <time>2010-11-17T15:10:22Z</time>
      </trkpt>
      <trkpt lat="45.10849" lon="4.95041">
        <ele>197.01600646973</ele>
        <time>2010-11-17T15:10:28Z</time>
      </trkpt>
      <trkpt lat="45.10849" lon="4.95105">
        <ele>193.37399291992</ele>
        <time>2010-11-17T15:10:33Z</time>
      </trkpt>
      <trkpt lat="45.10858" lon="4.95157">
        <ele>189.27600097656</ele>
        <time>2010-11-17T15:10:37Z</time>
      </trkpt>
      <trkpt lat="45.10865" lon="4.9518">
        <ele>188.64999389648</ele>
        <time>2010-11-17T15:10:39Z</time>
      </trkpt>
      <trkpt lat="45.10875" lon="4.9521">
        <ele>188.59399414062</ele>
        <time>2010-11-17T15:10:42Z</time>
      </trkpt>
      <trkpt lat="45.10873" lon="4.95243">
        <ele>188.18400573731</ele>
        <time>2010-11-17T15:10:46Z</time>
      </trkpt>
      <trkpt lat="45.10874" lon="4.95268">
        <ele>187.27499389648</ele>
        <time>2010-11-17T15:10:50Z</time>
      </trkpt>
      <trkpt lat="45.10877" lon="4.95273">
        <ele>187.25900268555</ele>
        <time>2010-11-17T15:10:51Z</time>
      </trkpt>
      <trkpt lat="45.10909" lon="4.95315">
        <ele>187.28900146484</ele>
        <time>2010-11-17T15:10:59Z</time>
      </trkpt>
      <trkpt lat="45.10926" lon="4.95356">
        <ele>187.30799865723</ele>
        <time>2010-11-17T15:11:05Z</time>
      </trkpt>
      <trkpt lat="45.10942" lon="4.95418">
        <ele>187.17900085449</ele>
        <time>2010-11-17T15:11:13Z</time>
      </trkpt>
      <trkpt lat="45.10954" lon="4.95472">
        <ele>187.47700500488</ele>
        <time>2010-11-17T15:11:20Z</time>
      </trkpt>
      <trkpt lat="45.10973" lon="4.95529">
        <ele>188.22900390625</ele>
        <time>2010-11-17T15:11:28Z</time>
      </trkpt>
      <trkpt lat="45.11003" lon="4.95586">
        <ele>188.76499938965</ele>
        <time>2010-11-17T15:11:37Z</time>
      </trkpt>
      <trkpt lat="45.1104" lon="4.95635">
        <ele>190.08000183106</ele>
        <time>2010-11-17T15:11:46Z</time>
      </trkpt>
      <trkpt lat="45.11081" lon="4.95676">
        <ele>189.90199279785</ele>
        <time>2010-11-17T15:11:54Z</time>
      </trkpt>
      <trkpt lat="45.11113" lon="4.95713">
        <ele>189.45300292969</ele>
        <time>2010-11-17T15:12:00Z</time>
      </trkpt>
      <trkpt lat="45.11142" lon="4.95768">
        <ele>188.56599426269</ele>
        <time>2010-11-17T15:12:07Z</time>
      </trkpt>
      <trkpt lat="45.11177" lon="4.95827">
        <ele>188.30099487305</ele>
        <time>2010-11-17T15:12:15Z</time>
      </trkpt>
      <trkpt lat="45.11227" lon="4.95899">
        <ele>188.69200134277</ele>
        <time>2010-11-17T15:12:26Z</time>
      </trkpt>
      <trkpt lat="45.1127" lon="4.95964">
        <ele>189.60200500488</ele>
        <time>2010-11-17T15:12:36Z</time>
      </trkpt>
      <trkpt lat="45.11308" lon="4.9603">
        <ele>190.58000183106</ele>
        <time>2010-11-17T15:12:46Z</time>
      </trkpt>
      <trkpt lat="45.11351" lon="4.96102">
        <ele>191.2380065918</ele>
        <time>2010-11-17T15:12:57Z</time>
      </trkpt>
      <trkpt lat="45.11386" lon="4.96174">
        <ele>192.21899414062</ele>
        <time>2010-11-17T15:13:07Z</time>
      </trkpt>
      <trkpt lat="45.11421" lon="4.96245">
        <ele>193.03700256348</ele>
        <time>2010-11-17T15:13:17Z</time>
      </trkpt>
      <trkpt lat="45.11456" lon="4.9631">
        <ele>192.49699401856</ele>
        <time>2010-11-17T15:13:26Z</time>
      </trkpt>
      <trkpt lat="45.11503" lon="4.9638">
        <ele>191.67900085449</ele>
        <time>2010-11-17T15:13:36Z</time>
      </trkpt>
      <trkpt lat="45.11543" lon="4.96441">
        <ele>190.97300720215</ele>
        <time>2010-11-17T15:13:45Z</time>
      </trkpt>
      <trkpt lat="45.11565" lon="4.96476">
        <ele>190.92700195312</ele>
        <time>2010-11-17T15:13:51Z</time>
      </trkpt>
      <trkpt lat="45.11568" lon="4.96481">
        <ele>190.80900573731</ele>
        <time>2010-11-17T15:13:52Z</time>
      </trkpt>
      <trkpt lat="45.11581" lon="4.96486">
        <ele>191.11099243164</ele>
        <time>2010-11-17T15:13:55Z</time>
      </trkpt>
      <trkpt lat="45.11586" lon="4.96473">
        <ele>191.38999938965</ele>
        <time>2010-11-17T15:13:58Z</time>
      </trkpt>
      <trkpt lat="45.11586" lon="4.96468">
        <ele>191.53500366211</ele>
        <time>2010-11-17T15:13:59Z</time>
      </trkpt>
      <trkpt lat="45.11586" lon="4.96454">
        <ele>191.90800476074</ele>
        <time>2010-11-17T15:14:02Z</time>
      </trkpt>
      <trkpt lat="45.1158" lon="4.96449">
        <ele>192.39599609375</ele>
        <time>2010-11-17T15:14:06Z</time>
      </trkpt>
      <trkpt lat="45.1158" lon="4.96449">
        <ele>192.37699890137</ele>
        <time>2010-11-17T15:14:08Z</time>
      </trkpt>
      <trkpt lat="45.11577" lon="4.96453">
        <ele>192.21200561523</ele>
        <time>2010-11-17T15:14:40Z</time>
      </trkpt>
      <trkpt lat="45.11568" lon="4.9645">
        <ele>191.64799499512</ele>
        <time>2010-11-17T15:14:45Z</time>
      </trkpt>
      <trkpt lat="45.11564" lon="4.96432">
        <ele>191.56900024414</ele>
        <time>2010-11-17T15:14:49Z</time>
      </trkpt>
      <trkpt lat="45.11567" lon="4.96429">
        <ele>192.47500610352</ele>
        <time>2010-11-17T15:14:51Z</time>
      </trkpt>
      <trkpt lat="45.1157" lon="4.9643">
        <ele>192.94099426269</ele>
        <time>2010-11-17T15:14:56Z</time>
      </trkpt>
    </trkseg>
  </trk>
</gpx>